<?xml version="1.0" encoding="UTF-8" standalone="no" ?>
<gpx xmlns="http://www.topografix.com/GPX/1/1" xmlns:xsi="http://www.w3.org/2001/XMLSchema-instance" xsi:schemaLocation="http://www.topografix.com/GPX/1/1 http://www.topografix.com/GPX/1/1/gpx.xsd" version="1.1" creator="VisuGPX - https://www.visugpx.com">
  <metadata>
    <name>GR20</name>
    <desc><![CDATA[GR20 - Juin 2015]]></desc>
  </metadata>
  <trk>
    <name><![CDATA[GR20 Ortu di u Piobbu - Calinzana]]></name>
    <trkseg>
      <trkpt lat="42.46528" lon="8.90681">
        <ele>1553.8</ele>
        <time>2015-07-02T04:02:44Z</time>
      </trkpt>
      <trkpt lat="42.46532" lon="8.90678">
        <ele>1553.8</ele>
        <time>2015-07-02T04:03:37Z</time>
      </trkpt>
      <trkpt lat="42.46545" lon="8.90686">
        <ele>1553.2</ele>
        <time>2015-07-02T04:04:09Z</time>
      </trkpt>
      <trkpt lat="42.46546" lon="8.90691">
        <ele>1554</ele>
        <time>2015-07-02T04:04:17Z</time>
      </trkpt>
      <trkpt lat="42.46548" lon="8.90697">
        <ele>1555.2</ele>
        <time>2015-07-02T04:04:25Z</time>
      </trkpt>
      <trkpt lat="42.4655" lon="8.90699">
        <ele>1555.8</ele>
        <time>2015-07-02T04:04:31Z</time>
      </trkpt>
      <trkpt lat="42.46557" lon="8.90707">
        <ele>1557.6</ele>
        <time>2015-07-02T04:04:42Z</time>
      </trkpt>
      <trkpt lat="42.46557" lon="8.90707">
        <ele>1557.8</ele>
        <time>2015-07-02T04:04:43Z</time>
      </trkpt>
      <trkpt lat="42.46562" lon="8.90711">
        <ele>1558.4</ele>
        <time>2015-07-02T04:04:51Z</time>
      </trkpt>
      <trkpt lat="42.46567" lon="8.90715">
        <ele>1559.6</ele>
        <time>2015-07-02T04:05:01Z</time>
      </trkpt>
      <trkpt lat="42.46573" lon="8.9072">
        <ele>1560.8</ele>
        <time>2015-07-02T04:05:11Z</time>
      </trkpt>
      <trkpt lat="42.46575" lon="8.90726">
        <ele>1561.8</ele>
        <time>2015-07-02T04:05:19Z</time>
      </trkpt>
      <trkpt lat="42.46577" lon="8.90729">
        <ele>1562.6</ele>
        <time>2015-07-02T04:05:27Z</time>
      </trkpt>
      <trkpt lat="42.46583" lon="8.90731">
        <ele>1563.8</ele>
        <time>2015-07-02T04:05:34Z</time>
      </trkpt>
      <trkpt lat="42.46601" lon="8.90735">
        <ele>1564.8</ele>
        <time>2015-07-02T04:05:54Z</time>
      </trkpt>
      <trkpt lat="42.46609" lon="8.90755">
        <ele>1564.4</ele>
        <time>2015-07-02T04:06:24Z</time>
      </trkpt>
      <trkpt lat="42.46615" lon="8.90764">
        <ele>1563</ele>
        <time>2015-07-02T04:06:38Z</time>
      </trkpt>
      <trkpt lat="42.46616" lon="8.90771">
        <ele>1562.4</ele>
        <time>2015-07-02T04:06:44Z</time>
      </trkpt>
      <trkpt lat="42.46616" lon="8.90784">
        <ele>1560.8</ele>
        <time>2015-07-02T04:06:55Z</time>
      </trkpt>
      <trkpt lat="42.46618" lon="8.90798">
        <ele>1560.2</ele>
        <time>2015-07-02T04:07:12Z</time>
      </trkpt>
      <trkpt lat="42.4662" lon="8.90809">
        <ele>1560.6</ele>
        <time>2015-07-02T04:07:27Z</time>
      </trkpt>
      <trkpt lat="42.46622" lon="8.90808">
        <ele>1560</ele>
        <time>2015-07-02T04:07:33Z</time>
      </trkpt>
      <trkpt lat="42.46626" lon="8.90807">
        <ele>1558.4</ele>
        <time>2015-07-02T04:07:44Z</time>
      </trkpt>
      <trkpt lat="42.46627" lon="8.90811">
        <ele>1557.8</ele>
        <time>2015-07-02T04:07:50Z</time>
      </trkpt>
      <trkpt lat="42.46629" lon="8.90814">
        <ele>1556.8</ele>
        <time>2015-07-02T04:07:57Z</time>
      </trkpt>
      <trkpt lat="42.46631" lon="8.90843">
        <ele>1554.8</ele>
        <time>2015-07-02T04:08:30Z</time>
      </trkpt>
      <trkpt lat="42.46635" lon="8.9085">
        <ele>1554.4</ele>
        <time>2015-07-02T04:09:09Z</time>
      </trkpt>
      <trkpt lat="42.46636" lon="8.90854">
        <ele>1555.2</ele>
        <time>2015-07-02T04:09:16Z</time>
      </trkpt>
      <trkpt lat="42.46642" lon="8.90858">
        <ele>1556.4</ele>
        <time>2015-07-02T04:09:23Z</time>
      </trkpt>
      <trkpt lat="42.46643" lon="8.9086">
        <ele>1556.8</ele>
        <time>2015-07-02T04:09:31Z</time>
      </trkpt>
      <trkpt lat="42.46648" lon="8.9086">
        <ele>1557</ele>
        <time>2015-07-02T04:09:35Z</time>
      </trkpt>
      <trkpt lat="42.46653" lon="8.90859">
        <ele>1557.2</ele>
        <time>2015-07-02T04:09:38Z</time>
      </trkpt>
      <trkpt lat="42.46655" lon="8.90859">
        <ele>1557.4</ele>
        <time>2015-07-02T04:09:40Z</time>
      </trkpt>
      <trkpt lat="42.46647" lon="8.90875">
        <ele>1559</ele>
        <time>2015-07-02T04:10:05Z</time>
      </trkpt>
      <trkpt lat="42.46647" lon="8.90875">
        <ele>1559</ele>
        <time>2015-07-02T04:10:06Z</time>
      </trkpt>
      <trkpt lat="42.46641" lon="8.90881">
        <ele>1559.2</ele>
        <time>2015-07-02T04:10:15Z</time>
      </trkpt>
      <trkpt lat="42.46648" lon="8.9089">
        <ele>1560.4</ele>
        <time>2015-07-02T04:10:36Z</time>
      </trkpt>
      <trkpt lat="42.46644" lon="8.909">
        <ele>1560</ele>
        <time>2015-07-02T04:10:44Z</time>
      </trkpt>
      <trkpt lat="42.46636" lon="8.90908">
        <ele>1559.2</ele>
        <time>2015-07-02T04:10:56Z</time>
      </trkpt>
      <trkpt lat="42.46633" lon="8.90914">
        <ele>1560</ele>
        <time>2015-07-02T04:11:05Z</time>
      </trkpt>
      <trkpt lat="42.4663" lon="8.90923">
        <ele>1561</ele>
        <time>2015-07-02T04:11:17Z</time>
      </trkpt>
      <trkpt lat="42.4663" lon="8.90926">
        <ele>1562</ele>
        <time>2015-07-02T04:11:26Z</time>
      </trkpt>
      <trkpt lat="42.46628" lon="8.90928">
        <ele>1563.2</ele>
        <time>2015-07-02T04:11:34Z</time>
      </trkpt>
      <trkpt lat="42.46632" lon="8.90934">
        <ele>1564</ele>
        <time>2015-07-02T04:11:52Z</time>
      </trkpt>
      <trkpt lat="42.46634" lon="8.90939">
        <ele>1565</ele>
        <time>2015-07-02T04:11:59Z</time>
      </trkpt>
      <trkpt lat="42.46636" lon="8.90941">
        <ele>1566</ele>
        <time>2015-07-02T04:12:06Z</time>
      </trkpt>
      <trkpt lat="42.46642" lon="8.90943">
        <ele>1567</ele>
        <time>2015-07-02T04:12:17Z</time>
      </trkpt>
      <trkpt lat="42.46641" lon="8.90945">
        <ele>1568</ele>
        <time>2015-07-02T04:12:24Z</time>
      </trkpt>
      <trkpt lat="42.4664" lon="8.90947">
        <ele>1569.2</ele>
        <time>2015-07-02T04:12:33Z</time>
      </trkpt>
      <trkpt lat="42.46642" lon="8.90949">
        <ele>1569.8</ele>
        <time>2015-07-02T04:12:40Z</time>
      </trkpt>
      <trkpt lat="42.46642" lon="8.90951">
        <ele>1571.4</ele>
        <time>2015-07-02T04:12:50Z</time>
      </trkpt>
      <trkpt lat="42.46638" lon="8.90954">
        <ele>1572</ele>
        <time>2015-07-02T04:12:59Z</time>
      </trkpt>
      <trkpt lat="42.46638" lon="8.90957">
        <ele>1572.8</ele>
        <time>2015-07-02T04:13:05Z</time>
      </trkpt>
      <trkpt lat="42.46638" lon="8.90957">
        <ele>1574</ele>
        <time>2015-07-02T04:13:11Z</time>
      </trkpt>
      <trkpt lat="42.46642" lon="8.90959">
        <ele>1575.6</ele>
        <time>2015-07-02T04:13:20Z</time>
      </trkpt>
      <trkpt lat="42.46653" lon="8.90961">
        <ele>1576</ele>
        <time>2015-07-02T04:13:42Z</time>
      </trkpt>
      <trkpt lat="42.46659" lon="8.90961">
        <ele>1574.8</ele>
        <time>2015-07-02T04:13:49Z</time>
      </trkpt>
      <trkpt lat="42.46663" lon="8.90959">
        <ele>1574.2</ele>
        <time>2015-07-02T04:13:54Z</time>
      </trkpt>
      <trkpt lat="42.46668" lon="8.90955">
        <ele>1572.8</ele>
        <time>2015-07-02T04:14:02Z</time>
      </trkpt>
      <trkpt lat="42.4667" lon="8.90954">
        <ele>1571.8</ele>
        <time>2015-07-02T04:14:07Z</time>
      </trkpt>
      <trkpt lat="42.46671" lon="8.9095">
        <ele>1570.2</ele>
        <time>2015-07-02T04:14:14Z</time>
      </trkpt>
      <trkpt lat="42.46674" lon="8.90948">
        <ele>1569.2</ele>
        <time>2015-07-02T04:14:21Z</time>
      </trkpt>
      <trkpt lat="42.46677" lon="8.90945">
        <ele>1568</ele>
        <time>2015-07-02T04:14:26Z</time>
      </trkpt>
      <trkpt lat="42.46676" lon="8.90943">
        <ele>1567.4</ele>
        <time>2015-07-02T04:14:30Z</time>
      </trkpt>
      <trkpt lat="42.46673" lon="8.9094">
        <ele>1566</ele>
        <time>2015-07-02T04:14:35Z</time>
      </trkpt>
      <trkpt lat="42.46674" lon="8.90937">
        <ele>1564.6</ele>
        <time>2015-07-02T04:14:41Z</time>
      </trkpt>
      <trkpt lat="42.46676" lon="8.90934">
        <ele>1563.4</ele>
        <time>2015-07-02T04:14:47Z</time>
      </trkpt>
      <trkpt lat="42.46674" lon="8.90931">
        <ele>1562.6</ele>
        <time>2015-07-02T04:14:52Z</time>
      </trkpt>
      <trkpt lat="42.46673" lon="8.9093">
        <ele>1562</ele>
        <time>2015-07-02T04:14:54Z</time>
      </trkpt>
      <trkpt lat="42.46673" lon="8.90928">
        <ele>1561.2</ele>
        <time>2015-07-02T04:14:57Z</time>
      </trkpt>
      <trkpt lat="42.46676" lon="8.90928">
        <ele>1559.8</ele>
        <time>2015-07-02T04:15:03Z</time>
      </trkpt>
      <trkpt lat="42.46683" lon="8.90926">
        <ele>1558.4</ele>
        <time>2015-07-02T04:15:14Z</time>
      </trkpt>
      <trkpt lat="42.46686" lon="8.9092">
        <ele>1557.8</ele>
        <time>2015-07-02T04:15:19Z</time>
      </trkpt>
      <trkpt lat="42.4669" lon="8.90916">
        <ele>1556.6</ele>
        <time>2015-07-02T04:15:25Z</time>
      </trkpt>
      <trkpt lat="42.46692" lon="8.90918">
        <ele>1555.8</ele>
        <time>2015-07-02T04:15:28Z</time>
      </trkpt>
      <trkpt lat="42.46705" lon="8.90934">
        <ele>1555</ele>
        <time>2015-07-02T04:15:52Z</time>
      </trkpt>
      <trkpt lat="42.46737" lon="8.90915">
        <ele>1554.6</ele>
        <time>2015-07-02T04:16:34Z</time>
      </trkpt>
      <trkpt lat="42.46741" lon="8.90902">
        <ele>1555</ele>
        <time>2015-07-02T04:16:46Z</time>
      </trkpt>
      <trkpt lat="42.46746" lon="8.90883">
        <ele>1554.8</ele>
        <time>2015-07-02T04:17:06Z</time>
      </trkpt>
      <trkpt lat="42.46747" lon="8.90876">
        <ele>1554</ele>
        <time>2015-07-02T04:17:12Z</time>
      </trkpt>
      <trkpt lat="42.46749" lon="8.90872">
        <ele>1553.2</ele>
        <time>2015-07-02T04:17:17Z</time>
      </trkpt>
      <trkpt lat="42.4675" lon="8.90866">
        <ele>1552.6</ele>
        <time>2015-07-02T04:17:21Z</time>
      </trkpt>
      <trkpt lat="42.46751" lon="8.90859">
        <ele>1551.8</ele>
        <time>2015-07-02T04:17:27Z</time>
      </trkpt>
      <trkpt lat="42.46755" lon="8.90849">
        <ele>1550.4</ele>
        <time>2015-07-02T04:17:37Z</time>
      </trkpt>
      <trkpt lat="42.46758" lon="8.90845">
        <ele>1549.2</ele>
        <time>2015-07-02T04:17:44Z</time>
      </trkpt>
      <trkpt lat="42.46762" lon="8.90837">
        <ele>1548</ele>
        <time>2015-07-02T04:17:55Z</time>
      </trkpt>
      <trkpt lat="42.46763" lon="8.90828">
        <ele>1547.2</ele>
        <time>2015-07-02T04:18:03Z</time>
      </trkpt>
      <trkpt lat="42.46766" lon="8.90821">
        <ele>1546.2</ele>
        <time>2015-07-02T04:18:13Z</time>
      </trkpt>
      <trkpt lat="42.46768" lon="8.90815">
        <ele>1545.4</ele>
        <time>2015-07-02T04:18:18Z</time>
      </trkpt>
      <trkpt lat="42.46777" lon="8.90804">
        <ele>1543.4</ele>
        <time>2015-07-02T04:18:39Z</time>
      </trkpt>
      <trkpt lat="42.46778" lon="8.908">
        <ele>1542.8</ele>
        <time>2015-07-02T04:18:46Z</time>
      </trkpt>
      <trkpt lat="42.4678" lon="8.90795">
        <ele>1541.6</ele>
        <time>2015-07-02T04:18:54Z</time>
      </trkpt>
      <trkpt lat="42.46781" lon="8.9079">
        <ele>1541</ele>
        <time>2015-07-02T04:18:59Z</time>
      </trkpt>
      <trkpt lat="42.46784" lon="8.90786">
        <ele>1539.8</ele>
        <time>2015-07-02T04:19:04Z</time>
      </trkpt>
      <trkpt lat="42.46788" lon="8.90778">
        <ele>1538.2</ele>
        <time>2015-07-02T04:19:11Z</time>
      </trkpt>
      <trkpt lat="42.46792" lon="8.9077">
        <ele>1536.8</ele>
        <time>2015-07-02T04:19:19Z</time>
      </trkpt>
      <trkpt lat="42.46802" lon="8.90755">
        <ele>1535.8</ele>
        <time>2015-07-02T04:19:42Z</time>
      </trkpt>
      <trkpt lat="42.46806" lon="8.90752">
        <ele>1535</ele>
        <time>2015-07-02T04:19:49Z</time>
      </trkpt>
      <trkpt lat="42.46807" lon="8.90749">
        <ele>1533.8</ele>
        <time>2015-07-02T04:19:56Z</time>
      </trkpt>
      <trkpt lat="42.46809" lon="8.90745">
        <ele>1532.6</ele>
        <time>2015-07-02T04:20:04Z</time>
      </trkpt>
      <trkpt lat="42.46809" lon="8.90741">
        <ele>1531.8</ele>
        <time>2015-07-02T04:20:10Z</time>
      </trkpt>
      <trkpt lat="42.4681" lon="8.90735">
        <ele>1530.6</ele>
        <time>2015-07-02T04:20:20Z</time>
      </trkpt>
      <trkpt lat="42.4681" lon="8.90732">
        <ele>1529.8</ele>
        <time>2015-07-02T04:20:25Z</time>
      </trkpt>
      <trkpt lat="42.46809" lon="8.90729">
        <ele>1528.8</ele>
        <time>2015-07-02T04:20:30Z</time>
      </trkpt>
      <trkpt lat="42.46811" lon="8.90724">
        <ele>1527.2</ele>
        <time>2015-07-02T04:20:37Z</time>
      </trkpt>
      <trkpt lat="42.46815" lon="8.9072">
        <ele>1525.8</ele>
        <time>2015-07-02T04:20:47Z</time>
      </trkpt>
      <trkpt lat="42.46817" lon="8.90718">
        <ele>1524.6</ele>
        <time>2015-07-02T04:20:57Z</time>
      </trkpt>
      <trkpt lat="42.46814" lon="8.90717">
        <ele>1524</ele>
        <time>2015-07-02T04:21:05Z</time>
      </trkpt>
      <trkpt lat="42.46815" lon="8.90713">
        <ele>1522.8</ele>
        <time>2015-07-02T04:21:12Z</time>
      </trkpt>
      <trkpt lat="42.46818" lon="8.90708">
        <ele>1522.2</ele>
        <time>2015-07-02T04:21:17Z</time>
      </trkpt>
      <trkpt lat="42.46823" lon="8.90701">
        <ele>1520.6</ele>
        <time>2015-07-02T04:21:25Z</time>
      </trkpt>
      <trkpt lat="42.46823" lon="8.907">
        <ele>1520.4</ele>
        <time>2015-07-02T04:21:26Z</time>
      </trkpt>
      <trkpt lat="42.46826" lon="8.90696">
        <ele>1520</ele>
        <time>2015-07-02T04:21:29Z</time>
      </trkpt>
      <trkpt lat="42.46828" lon="8.90695">
        <ele>1519.8</ele>
        <time>2015-07-02T04:21:32Z</time>
      </trkpt>
      <trkpt lat="42.46833" lon="8.90696">
        <ele>1519</ele>
        <time>2015-07-02T04:21:36Z</time>
      </trkpt>
      <trkpt lat="42.46837" lon="8.90699">
        <ele>1518.8</ele>
        <time>2015-07-02T04:21:41Z</time>
      </trkpt>
      <trkpt lat="42.4684" lon="8.90706">
        <ele>1519.4</ele>
        <time>2015-07-02T04:22:01Z</time>
      </trkpt>
      <trkpt lat="42.46843" lon="8.90705">
        <ele>1519.8</ele>
        <time>2015-07-02T04:23:15Z</time>
      </trkpt>
      <trkpt lat="42.46841" lon="8.90703">
        <ele>1519.8</ele>
        <time>2015-07-02T04:23:18Z</time>
      </trkpt>
      <trkpt lat="42.46841" lon="8.90702">
        <ele>1519.8</ele>
        <time>2015-07-02T04:23:25Z</time>
      </trkpt>
      <trkpt lat="42.46848" lon="8.90703">
        <ele>1518.2</ele>
        <time>2015-07-02T04:24:35Z</time>
      </trkpt>
      <trkpt lat="42.46854" lon="8.90705">
        <ele>1517.4</ele>
        <time>2015-07-02T04:24:43Z</time>
      </trkpt>
      <trkpt lat="42.46857" lon="8.90707">
        <ele>1516.8</ele>
        <time>2015-07-02T04:24:47Z</time>
      </trkpt>
      <trkpt lat="42.46861" lon="8.90708">
        <ele>1515.2</ele>
        <time>2015-07-02T04:24:54Z</time>
      </trkpt>
      <trkpt lat="42.46862" lon="8.90712">
        <ele>1514.8</ele>
        <time>2015-07-02T04:24:57Z</time>
      </trkpt>
      <trkpt lat="42.46865" lon="8.90718">
        <ele>1513.8</ele>
        <time>2015-07-02T04:25:03Z</time>
      </trkpt>
      <trkpt lat="42.46866" lon="8.90719">
        <ele>1513.8</ele>
        <time>2015-07-02T04:25:05Z</time>
      </trkpt>
      <trkpt lat="42.46888" lon="8.90712">
        <ele>1513.4</ele>
        <time>2015-07-02T04:25:39Z</time>
      </trkpt>
      <trkpt lat="42.4689" lon="8.90712">
        <ele>1513.8</ele>
        <time>2015-07-02T04:25:42Z</time>
      </trkpt>
      <trkpt lat="42.46891" lon="8.9071">
        <ele>1514.4</ele>
        <time>2015-07-02T04:25:46Z</time>
      </trkpt>
      <trkpt lat="42.46895" lon="8.90708">
        <ele>1515.2</ele>
        <time>2015-07-02T04:25:51Z</time>
      </trkpt>
      <trkpt lat="42.46899" lon="8.90705">
        <ele>1516.6</ele>
        <time>2015-07-02T04:25:58Z</time>
      </trkpt>
      <trkpt lat="42.46902" lon="8.907">
        <ele>1517.6</ele>
        <time>2015-07-02T04:26:04Z</time>
      </trkpt>
      <trkpt lat="42.46936" lon="8.90664">
        <ele>1517.6</ele>
        <time>2015-07-02T04:26:50Z</time>
      </trkpt>
      <trkpt lat="42.46937" lon="8.90653">
        <ele>1517.6</ele>
        <time>2015-07-02T04:27:00Z</time>
      </trkpt>
      <trkpt lat="42.46936" lon="8.90651">
        <ele>1517.8</ele>
        <time>2015-07-02T04:27:02Z</time>
      </trkpt>
      <trkpt lat="42.46937" lon="8.90645">
        <ele>1517.6</ele>
        <time>2015-07-02T04:27:07Z</time>
      </trkpt>
      <trkpt lat="42.46936" lon="8.90642">
        <ele>1517.8</ele>
        <time>2015-07-02T04:27:09Z</time>
      </trkpt>
      <trkpt lat="42.46935" lon="8.90635">
        <ele>1517.6</ele>
        <time>2015-07-02T04:27:13Z</time>
      </trkpt>
      <trkpt lat="42.46937" lon="8.90628">
        <ele>1518</ele>
        <time>2015-07-02T04:27:24Z</time>
      </trkpt>
      <trkpt lat="42.46938" lon="8.90623">
        <ele>1518.4</ele>
        <time>2015-07-02T04:27:29Z</time>
      </trkpt>
      <trkpt lat="42.46941" lon="8.90604">
        <ele>1518.2</ele>
        <time>2015-07-02T04:27:45Z</time>
      </trkpt>
      <trkpt lat="42.46942" lon="8.90602">
        <ele>1518</ele>
        <time>2015-07-02T04:27:47Z</time>
      </trkpt>
      <trkpt lat="42.46942" lon="8.90594">
        <ele>1517.6</ele>
        <time>2015-07-02T04:27:53Z</time>
      </trkpt>
      <trkpt lat="42.46941" lon="8.90572">
        <ele>1517.2</ele>
        <time>2015-07-02T04:28:16Z</time>
      </trkpt>
      <trkpt lat="42.4694" lon="8.90559">
        <ele>1517</ele>
        <time>2015-07-02T04:28:32Z</time>
      </trkpt>
      <trkpt lat="42.4694" lon="8.90554">
        <ele>1516.8</ele>
        <time>2015-07-02T04:28:36Z</time>
      </trkpt>
      <trkpt lat="42.4694" lon="8.90542">
        <ele>1516.2</ele>
        <time>2015-07-02T04:28:52Z</time>
      </trkpt>
      <trkpt lat="42.46941" lon="8.90523">
        <ele>1515</ele>
        <time>2015-07-02T04:29:05Z</time>
      </trkpt>
      <trkpt lat="42.46941" lon="8.90519">
        <ele>1514.6</ele>
        <time>2015-07-02T04:29:08Z</time>
      </trkpt>
      <trkpt lat="42.4694" lon="8.90509">
        <ele>1514</ele>
        <time>2015-07-02T04:29:15Z</time>
      </trkpt>
      <trkpt lat="42.46943" lon="8.90487">
        <ele>1512.8</ele>
        <time>2015-07-02T04:29:31Z</time>
      </trkpt>
      <trkpt lat="42.46944" lon="8.9048">
        <ele>1512.6</ele>
        <time>2015-07-02T04:29:35Z</time>
      </trkpt>
      <trkpt lat="42.46945" lon="8.90478">
        <ele>1512.4</ele>
        <time>2015-07-02T04:29:37Z</time>
      </trkpt>
      <trkpt lat="42.46947" lon="8.90476">
        <ele>1512</ele>
        <time>2015-07-02T04:29:40Z</time>
      </trkpt>
      <trkpt lat="42.46948" lon="8.90467">
        <ele>1512</ele>
        <time>2015-07-02T04:29:47Z</time>
      </trkpt>
      <trkpt lat="42.46952" lon="8.90458">
        <ele>1512.4</ele>
        <time>2015-07-02T04:29:55Z</time>
      </trkpt>
      <trkpt lat="42.46957" lon="8.90453">
        <ele>1512.8</ele>
        <time>2015-07-02T04:30:04Z</time>
      </trkpt>
      <trkpt lat="42.4696" lon="8.90434">
        <ele>1513.4</ele>
        <time>2015-07-02T04:30:19Z</time>
      </trkpt>
      <trkpt lat="42.4698" lon="8.90398">
        <ele>1514.2</ele>
        <time>2015-07-02T04:31:10Z</time>
      </trkpt>
      <trkpt lat="42.46982" lon="8.90397">
        <ele>1514.2</ele>
        <time>2015-07-02T04:31:13Z</time>
      </trkpt>
      <trkpt lat="42.47002" lon="8.90382">
        <ele>1514.2</ele>
        <time>2015-07-02T04:31:56Z</time>
      </trkpt>
      <trkpt lat="42.47004" lon="8.90377">
        <ele>1514.8</ele>
        <time>2015-07-02T04:32:04Z</time>
      </trkpt>
      <trkpt lat="42.47008" lon="8.90372">
        <ele>1515.6</ele>
        <time>2015-07-02T04:32:10Z</time>
      </trkpt>
      <trkpt lat="42.47012" lon="8.90359">
        <ele>1516</ele>
        <time>2015-07-02T04:32:21Z</time>
      </trkpt>
      <trkpt lat="42.47014" lon="8.90357">
        <ele>1516</ele>
        <time>2015-07-02T04:32:23Z</time>
      </trkpt>
      <trkpt lat="42.47015" lon="8.90356">
        <ele>1516</ele>
        <time>2015-07-02T04:32:25Z</time>
      </trkpt>
      <trkpt lat="42.4702" lon="8.90348">
        <ele>1516.4</ele>
        <time>2015-07-02T04:32:36Z</time>
      </trkpt>
      <trkpt lat="42.47023" lon="8.90345">
        <ele>1516.8</ele>
        <time>2015-07-02T04:32:42Z</time>
      </trkpt>
      <trkpt lat="42.47027" lon="8.90339">
        <ele>1518.4</ele>
        <time>2015-07-02T04:32:51Z</time>
      </trkpt>
      <trkpt lat="42.47029" lon="8.90324">
        <ele>1519.6</ele>
        <time>2015-07-02T04:33:06Z</time>
      </trkpt>
      <trkpt lat="42.47031" lon="8.90316">
        <ele>1519.8</ele>
        <time>2015-07-02T04:33:15Z</time>
      </trkpt>
      <trkpt lat="42.47036" lon="8.90307">
        <ele>1520.6</ele>
        <time>2015-07-02T04:33:26Z</time>
      </trkpt>
      <trkpt lat="42.47043" lon="8.90299">
        <ele>1521.8</ele>
        <time>2015-07-02T04:33:40Z</time>
      </trkpt>
      <trkpt lat="42.47046" lon="8.90299">
        <ele>1522.4</ele>
        <time>2015-07-02T04:33:46Z</time>
      </trkpt>
      <trkpt lat="42.47048" lon="8.90301">
        <ele>1523.8</ele>
        <time>2015-07-02T04:33:55Z</time>
      </trkpt>
      <trkpt lat="42.47051" lon="8.903">
        <ele>1524.6</ele>
        <time>2015-07-02T04:34:02Z</time>
      </trkpt>
      <trkpt lat="42.47051" lon="8.90296">
        <ele>1525.8</ele>
        <time>2015-07-02T04:34:10Z</time>
      </trkpt>
      <trkpt lat="42.47058" lon="8.90287">
        <ele>1526.4</ele>
        <time>2015-07-02T04:34:29Z</time>
      </trkpt>
      <trkpt lat="42.4706" lon="8.90284">
        <ele>1525.6</ele>
        <time>2015-07-02T04:34:34Z</time>
      </trkpt>
      <trkpt lat="42.47064" lon="8.90279">
        <ele>1524</ele>
        <time>2015-07-02T04:34:41Z</time>
      </trkpt>
      <trkpt lat="42.47067" lon="8.90277">
        <ele>1523.4</ele>
        <time>2015-07-02T04:34:45Z</time>
      </trkpt>
      <trkpt lat="42.47078" lon="8.9027">
        <ele>1521.2</ele>
        <time>2015-07-02T04:35:03Z</time>
      </trkpt>
      <trkpt lat="42.47099" lon="8.90253">
        <ele>1519.8</ele>
        <time>2015-07-02T04:35:29Z</time>
      </trkpt>
      <trkpt lat="42.47101" lon="8.9025">
        <ele>1519.8</ele>
        <time>2015-07-02T04:35:32Z</time>
      </trkpt>
      <trkpt lat="42.4712" lon="8.90233">
        <ele>1518.8</ele>
        <time>2015-07-02T04:35:57Z</time>
      </trkpt>
      <trkpt lat="42.47123" lon="8.90227">
        <ele>1518.2</ele>
        <time>2015-07-02T04:36:05Z</time>
      </trkpt>
      <trkpt lat="42.47127" lon="8.90228">
        <ele>1517.4</ele>
        <time>2015-07-02T04:36:20Z</time>
      </trkpt>
      <trkpt lat="42.47132" lon="8.90222">
        <ele>1519.2</ele>
        <time>2015-07-02T04:36:29Z</time>
      </trkpt>
      <trkpt lat="42.47135" lon="8.90218">
        <ele>1519.2</ele>
        <time>2015-07-02T04:36:34Z</time>
      </trkpt>
      <trkpt lat="42.47142" lon="8.90203">
        <ele>1519</ele>
        <time>2015-07-02T04:36:47Z</time>
      </trkpt>
      <trkpt lat="42.47146" lon="8.90199">
        <ele>1518.8</ele>
        <time>2015-07-02T04:36:52Z</time>
      </trkpt>
      <trkpt lat="42.47157" lon="8.90164">
        <ele>1519</ele>
        <time>2015-07-02T04:37:20Z</time>
      </trkpt>
      <trkpt lat="42.47161" lon="8.90146">
        <ele>1520</ele>
        <time>2015-07-02T04:37:34Z</time>
      </trkpt>
      <trkpt lat="42.47165" lon="8.90136">
        <ele>1520.4</ele>
        <time>2015-07-02T04:37:42Z</time>
      </trkpt>
      <trkpt lat="42.47167" lon="8.9013">
        <ele>1521</ele>
        <time>2015-07-02T04:37:48Z</time>
      </trkpt>
      <trkpt lat="42.47175" lon="8.90114">
        <ele>1522.2</ele>
        <time>2015-07-02T04:38:04Z</time>
      </trkpt>
      <trkpt lat="42.47174" lon="8.90108">
        <ele>1522.4</ele>
        <time>2015-07-02T04:38:11Z</time>
      </trkpt>
      <trkpt lat="42.47175" lon="8.90097">
        <ele>1523.6</ele>
        <time>2015-07-02T04:38:19Z</time>
      </trkpt>
      <trkpt lat="42.47175" lon="8.90089">
        <ele>1524.6</ele>
        <time>2015-07-02T04:38:25Z</time>
      </trkpt>
      <trkpt lat="42.47176" lon="8.90083">
        <ele>1525.8</ele>
        <time>2015-07-02T04:38:32Z</time>
      </trkpt>
      <trkpt lat="42.47178" lon="8.90072">
        <ele>1527</ele>
        <time>2015-07-02T04:38:41Z</time>
      </trkpt>
      <trkpt lat="42.47182" lon="8.90059">
        <ele>1527.8</ele>
        <time>2015-07-02T04:38:54Z</time>
      </trkpt>
      <trkpt lat="42.47184" lon="8.90053">
        <ele>1528.6</ele>
        <time>2015-07-02T04:38:59Z</time>
      </trkpt>
      <trkpt lat="42.47185" lon="8.90046">
        <ele>1529.8</ele>
        <time>2015-07-02T04:39:06Z</time>
      </trkpt>
      <trkpt lat="42.47186" lon="8.90038">
        <ele>1531</ele>
        <time>2015-07-02T04:39:12Z</time>
      </trkpt>
      <trkpt lat="42.47187" lon="8.90031">
        <ele>1532</ele>
        <time>2015-07-02T04:39:18Z</time>
      </trkpt>
      <trkpt lat="42.47188" lon="8.90022">
        <ele>1533.4</ele>
        <time>2015-07-02T04:39:25Z</time>
      </trkpt>
      <trkpt lat="42.47188" lon="8.90015">
        <ele>1534.6</ele>
        <time>2015-07-02T04:39:33Z</time>
      </trkpt>
      <trkpt lat="42.47188" lon="8.89996">
        <ele>1536</ele>
        <time>2015-07-02T04:39:46Z</time>
      </trkpt>
      <trkpt lat="42.47184" lon="8.89982">
        <ele>1536.8</ele>
        <time>2015-07-02T04:39:56Z</time>
      </trkpt>
      <trkpt lat="42.47181" lon="8.89974">
        <ele>1537.8</ele>
        <time>2015-07-02T04:40:04Z</time>
      </trkpt>
      <trkpt lat="42.47173" lon="8.89938">
        <ele>1539.4</ele>
        <time>2015-07-02T04:40:34Z</time>
      </trkpt>
      <trkpt lat="42.47173" lon="8.89932">
        <ele>1539.8</ele>
        <time>2015-07-02T04:40:41Z</time>
      </trkpt>
      <trkpt lat="42.47174" lon="8.89928">
        <ele>1541.6</ele>
        <time>2015-07-02T04:40:52Z</time>
      </trkpt>
      <trkpt lat="42.47174" lon="8.89926">
        <ele>1541.6</ele>
        <time>2015-07-02T04:40:57Z</time>
      </trkpt>
      <trkpt lat="42.47171" lon="8.8992">
        <ele>1543.6</ele>
        <time>2015-07-02T04:41:06Z</time>
      </trkpt>
      <trkpt lat="42.4717" lon="8.89915">
        <ele>1544.4</ele>
        <time>2015-07-02T04:41:13Z</time>
      </trkpt>
      <trkpt lat="42.4717" lon="8.89912">
        <ele>1545.4</ele>
        <time>2015-07-02T04:41:21Z</time>
      </trkpt>
      <trkpt lat="42.47167" lon="8.89908">
        <ele>1546.6</ele>
        <time>2015-07-02T04:41:28Z</time>
      </trkpt>
      <trkpt lat="42.47163" lon="8.89901">
        <ele>1548</ele>
        <time>2015-07-02T04:41:39Z</time>
      </trkpt>
      <trkpt lat="42.47163" lon="8.89892">
        <ele>1549</ele>
        <time>2015-07-02T04:41:49Z</time>
      </trkpt>
      <trkpt lat="42.47159" lon="8.89884">
        <ele>1550</ele>
        <time>2015-07-02T04:41:58Z</time>
      </trkpt>
      <trkpt lat="42.47156" lon="8.89879">
        <ele>1550.8</ele>
        <time>2015-07-02T04:42:05Z</time>
      </trkpt>
      <trkpt lat="42.47154" lon="8.89871">
        <ele>1552.2</ele>
        <time>2015-07-02T04:42:14Z</time>
      </trkpt>
      <trkpt lat="42.47151" lon="8.89867">
        <ele>1553.2</ele>
        <time>2015-07-02T04:42:22Z</time>
      </trkpt>
      <trkpt lat="42.4715" lon="8.89861">
        <ele>1554.2</ele>
        <time>2015-07-02T04:42:30Z</time>
      </trkpt>
      <trkpt lat="42.47147" lon="8.89855">
        <ele>1555</ele>
        <time>2015-07-02T04:42:37Z</time>
      </trkpt>
      <trkpt lat="42.47146" lon="8.89851">
        <ele>1556.4</ele>
        <time>2015-07-02T04:42:44Z</time>
      </trkpt>
      <trkpt lat="42.47145" lon="8.89849">
        <ele>1557.4</ele>
        <time>2015-07-02T04:42:51Z</time>
      </trkpt>
      <trkpt lat="42.47143" lon="8.8984">
        <ele>1558.4</ele>
        <time>2015-07-02T04:43:00Z</time>
      </trkpt>
      <trkpt lat="42.47145" lon="8.89831">
        <ele>1559.6</ele>
        <time>2015-07-02T04:43:09Z</time>
      </trkpt>
      <trkpt lat="42.47145" lon="8.89826">
        <ele>1560.6</ele>
        <time>2015-07-02T04:43:16Z</time>
      </trkpt>
      <trkpt lat="42.47148" lon="8.89822">
        <ele>1561.8</ele>
        <time>2015-07-02T04:43:24Z</time>
      </trkpt>
      <trkpt lat="42.47148" lon="8.89816">
        <ele>1562.6</ele>
        <time>2015-07-02T04:43:31Z</time>
      </trkpt>
      <trkpt lat="42.47146" lon="8.89804">
        <ele>1564</ele>
        <time>2015-07-02T04:43:42Z</time>
      </trkpt>
      <trkpt lat="42.47147" lon="8.89793">
        <ele>1565.4</ele>
        <time>2015-07-02T04:43:56Z</time>
      </trkpt>
      <trkpt lat="42.47148" lon="8.89776">
        <ele>1566.2</ele>
        <time>2015-07-02T04:44:08Z</time>
      </trkpt>
      <trkpt lat="42.47141" lon="8.8974">
        <ele>1566.4</ele>
        <time>2015-07-02T04:44:36Z</time>
      </trkpt>
      <trkpt lat="42.47143" lon="8.89688">
        <ele>1565.8</ele>
        <time>2015-07-02T04:46:15Z</time>
      </trkpt>
      <trkpt lat="42.47144" lon="8.89677">
        <ele>1565.6</ele>
        <time>2015-07-02T04:46:23Z</time>
      </trkpt>
      <trkpt lat="42.47145" lon="8.89663">
        <ele>1565</ele>
        <time>2015-07-02T04:46:31Z</time>
      </trkpt>
      <trkpt lat="42.47151" lon="8.89631">
        <ele>1564.2</ele>
        <time>2015-07-02T04:46:53Z</time>
      </trkpt>
      <trkpt lat="42.47152" lon="8.89629">
        <ele>1564</ele>
        <time>2015-07-02T04:46:55Z</time>
      </trkpt>
      <trkpt lat="42.47166" lon="8.89582">
        <ele>1563</ele>
        <time>2015-07-02T04:47:52Z</time>
      </trkpt>
      <trkpt lat="42.47169" lon="8.8957">
        <ele>1562.6</ele>
        <time>2015-07-02T04:48:01Z</time>
      </trkpt>
      <trkpt lat="42.47169" lon="8.89569">
        <ele>1562.4</ele>
        <time>2015-07-02T04:48:02Z</time>
      </trkpt>
      <trkpt lat="42.4717" lon="8.89567">
        <ele>1562.2</ele>
        <time>2015-07-02T04:48:03Z</time>
      </trkpt>
      <trkpt lat="42.47179" lon="8.89537">
        <ele>1560.6</ele>
        <time>2015-07-02T04:48:23Z</time>
      </trkpt>
      <trkpt lat="42.47182" lon="8.8953">
        <ele>1560.6</ele>
        <time>2015-07-02T04:48:29Z</time>
      </trkpt>
      <trkpt lat="42.47184" lon="8.89522">
        <ele>1560.4</ele>
        <time>2015-07-02T04:48:36Z</time>
      </trkpt>
      <trkpt lat="42.47185" lon="8.8952">
        <ele>1560.2</ele>
        <time>2015-07-02T04:48:38Z</time>
      </trkpt>
      <trkpt lat="42.47185" lon="8.89516">
        <ele>1560</ele>
        <time>2015-07-02T04:48:41Z</time>
      </trkpt>
      <trkpt lat="42.47185" lon="8.89514">
        <ele>1559.4</ele>
        <time>2015-07-02T04:48:44Z</time>
      </trkpt>
      <trkpt lat="42.47186" lon="8.89511">
        <ele>1558.2</ele>
        <time>2015-07-02T04:48:54Z</time>
      </trkpt>
      <trkpt lat="42.47185" lon="8.89506">
        <ele>1557.4</ele>
        <time>2015-07-02T04:49:00Z</time>
      </trkpt>
      <trkpt lat="42.47185" lon="8.89502">
        <ele>1556.2</ele>
        <time>2015-07-02T04:49:06Z</time>
      </trkpt>
      <trkpt lat="42.47186" lon="8.89494">
        <ele>1555</ele>
        <time>2015-07-02T04:49:14Z</time>
      </trkpt>
      <trkpt lat="42.47187" lon="8.89489">
        <ele>1554</ele>
        <time>2015-07-02T04:49:21Z</time>
      </trkpt>
      <trkpt lat="42.47189" lon="8.89484">
        <ele>1553</ele>
        <time>2015-07-02T04:49:26Z</time>
      </trkpt>
      <trkpt lat="42.47189" lon="8.89471">
        <ele>1551</ele>
        <time>2015-07-02T04:49:38Z</time>
      </trkpt>
      <trkpt lat="42.47189" lon="8.8946">
        <ele>1550.2</ele>
        <time>2015-07-02T04:49:49Z</time>
      </trkpt>
      <trkpt lat="42.47188" lon="8.8945">
        <ele>1549.4</ele>
        <time>2015-07-02T04:49:56Z</time>
      </trkpt>
      <trkpt lat="42.47189" lon="8.8944">
        <ele>1548.4</ele>
        <time>2015-07-02T04:50:03Z</time>
      </trkpt>
      <trkpt lat="42.4719" lon="8.89428">
        <ele>1547.2</ele>
        <time>2015-07-02T04:50:12Z</time>
      </trkpt>
      <trkpt lat="42.47192" lon="8.89426">
        <ele>1547</ele>
        <time>2015-07-02T04:50:15Z</time>
      </trkpt>
      <trkpt lat="42.47193" lon="8.89407">
        <ele>1546.2</ele>
        <time>2015-07-02T04:50:31Z</time>
      </trkpt>
      <trkpt lat="42.47198" lon="8.89389">
        <ele>1544.8</ele>
        <time>2015-07-02T04:50:46Z</time>
      </trkpt>
      <trkpt lat="42.47198" lon="8.89382">
        <ele>1545.6</ele>
        <time>2015-07-02T04:50:57Z</time>
      </trkpt>
      <trkpt lat="42.47196" lon="8.89379">
        <ele>1546</ele>
        <time>2015-07-02T04:51:06Z</time>
      </trkpt>
      <trkpt lat="42.47195" lon="8.89375">
        <ele>1545.6</ele>
        <time>2015-07-02T04:51:10Z</time>
      </trkpt>
      <trkpt lat="42.47195" lon="8.89369">
        <ele>1544.2</ele>
        <time>2015-07-02T04:51:15Z</time>
      </trkpt>
      <trkpt lat="42.47194" lon="8.89312">
        <ele>1543.4</ele>
        <time>2015-07-02T04:51:56Z</time>
      </trkpt>
      <trkpt lat="42.47192" lon="8.893">
        <ele>1544.4</ele>
        <time>2015-07-02T04:52:05Z</time>
      </trkpt>
      <trkpt lat="42.47191" lon="8.8929">
        <ele>1545.4</ele>
        <time>2015-07-02T04:52:14Z</time>
      </trkpt>
      <trkpt lat="42.47189" lon="8.89278">
        <ele>1546.6</ele>
        <time>2015-07-02T04:52:25Z</time>
      </trkpt>
      <trkpt lat="42.47186" lon="8.89265">
        <ele>1547.6</ele>
        <time>2015-07-02T04:52:38Z</time>
      </trkpt>
      <trkpt lat="42.47192" lon="8.89213">
        <ele>1547.8</ele>
        <time>2015-07-02T04:53:19Z</time>
      </trkpt>
      <trkpt lat="42.47192" lon="8.89196">
        <ele>1546.8</ele>
        <time>2015-07-02T04:53:29Z</time>
      </trkpt>
      <trkpt lat="42.47192" lon="8.89179">
        <ele>1546</ele>
        <time>2015-07-02T04:53:41Z</time>
      </trkpt>
      <trkpt lat="42.47191" lon="8.8917">
        <ele>1545.6</ele>
        <time>2015-07-02T04:53:46Z</time>
      </trkpt>
      <trkpt lat="42.47186" lon="8.89144">
        <ele>1544.6</ele>
        <time>2015-07-02T04:54:03Z</time>
      </trkpt>
      <trkpt lat="42.4718" lon="8.89127">
        <ele>1544.4</ele>
        <time>2015-07-02T04:54:15Z</time>
      </trkpt>
      <trkpt lat="42.47177" lon="8.89119">
        <ele>1544.6</ele>
        <time>2015-07-02T04:54:22Z</time>
      </trkpt>
      <trkpt lat="42.47175" lon="8.89096">
        <ele>1544.6</ele>
        <time>2015-07-02T04:54:38Z</time>
      </trkpt>
      <trkpt lat="42.47175" lon="8.89086">
        <ele>1544</ele>
        <time>2015-07-02T04:54:46Z</time>
      </trkpt>
      <trkpt lat="42.47176" lon="8.89074">
        <ele>1542.6</ele>
        <time>2015-07-02T04:54:55Z</time>
      </trkpt>
      <trkpt lat="42.47172" lon="8.89072">
        <ele>1542</ele>
        <time>2015-07-02T04:54:59Z</time>
      </trkpt>
      <trkpt lat="42.47172" lon="8.89066">
        <ele>1541.6</ele>
        <time>2015-07-02T04:55:03Z</time>
      </trkpt>
      <trkpt lat="42.47174" lon="8.89055">
        <ele>1540.6</ele>
        <time>2015-07-02T04:55:11Z</time>
      </trkpt>
      <trkpt lat="42.47174" lon="8.89053">
        <ele>1540.4</ele>
        <time>2015-07-02T04:55:13Z</time>
      </trkpt>
      <trkpt lat="42.47173" lon="8.89049">
        <ele>1540.2</ele>
        <time>2015-07-02T04:55:16Z</time>
      </trkpt>
      <trkpt lat="42.47172" lon="8.89042">
        <ele>1539.4</ele>
        <time>2015-07-02T04:55:22Z</time>
      </trkpt>
      <trkpt lat="42.47171" lon="8.89041">
        <ele>1539.2</ele>
        <time>2015-07-02T04:55:23Z</time>
      </trkpt>
      <trkpt lat="42.4717" lon="8.8903">
        <ele>1538.2</ele>
        <time>2015-07-02T04:55:30Z</time>
      </trkpt>
      <trkpt lat="42.47171" lon="8.89019">
        <ele>1537.4</ele>
        <time>2015-07-02T04:55:36Z</time>
      </trkpt>
      <trkpt lat="42.47174" lon="8.89016">
        <ele>1537</ele>
        <time>2015-07-02T04:55:39Z</time>
      </trkpt>
      <trkpt lat="42.47176" lon="8.8901">
        <ele>1536.8</ele>
        <time>2015-07-02T04:55:43Z</time>
      </trkpt>
      <trkpt lat="42.47179" lon="8.89004">
        <ele>1536.6</ele>
        <time>2015-07-02T04:55:48Z</time>
      </trkpt>
      <trkpt lat="42.4718" lon="8.89001">
        <ele>1536.4</ele>
        <time>2015-07-02T04:55:50Z</time>
      </trkpt>
      <trkpt lat="42.47183" lon="8.88995">
        <ele>1536</ele>
        <time>2015-07-02T04:55:56Z</time>
      </trkpt>
      <trkpt lat="42.47184" lon="8.88992">
        <ele>1535.6</ele>
        <time>2015-07-02T04:55:58Z</time>
      </trkpt>
      <trkpt lat="42.47188" lon="8.88988">
        <ele>1534.8</ele>
        <time>2015-07-02T04:56:04Z</time>
      </trkpt>
      <trkpt lat="42.47193" lon="8.88982">
        <ele>1533.2</ele>
        <time>2015-07-02T04:56:15Z</time>
      </trkpt>
      <trkpt lat="42.472" lon="8.88977">
        <ele>1532.2</ele>
        <time>2015-07-02T04:57:53Z</time>
      </trkpt>
      <trkpt lat="42.47204" lon="8.88976">
        <ele>1531.8</ele>
        <time>2015-07-02T04:57:56Z</time>
      </trkpt>
      <trkpt lat="42.47205" lon="8.88976">
        <ele>1531.4</ele>
        <time>2015-07-02T04:57:58Z</time>
      </trkpt>
      <trkpt lat="42.47205" lon="8.88976">
        <ele>1531.2</ele>
        <time>2015-07-02T04:57:59Z</time>
      </trkpt>
      <trkpt lat="42.47209" lon="8.88974">
        <ele>1530.2</ele>
        <time>2015-07-02T04:58:05Z</time>
      </trkpt>
      <trkpt lat="42.47211" lon="8.88971">
        <ele>1529.2</ele>
        <time>2015-07-02T04:58:10Z</time>
      </trkpt>
      <trkpt lat="42.47214" lon="8.88969">
        <ele>1528</ele>
        <time>2015-07-02T04:58:15Z</time>
      </trkpt>
      <trkpt lat="42.47218" lon="8.88965">
        <ele>1526.6</ele>
        <time>2015-07-02T04:58:21Z</time>
      </trkpt>
      <trkpt lat="42.47221" lon="8.88964">
        <ele>1526</ele>
        <time>2015-07-02T04:58:26Z</time>
      </trkpt>
      <trkpt lat="42.47225" lon="8.88962">
        <ele>1524.2</ele>
        <time>2015-07-02T04:58:34Z</time>
      </trkpt>
      <trkpt lat="42.47227" lon="8.8896">
        <ele>1523.4</ele>
        <time>2015-07-02T04:58:40Z</time>
      </trkpt>
      <trkpt lat="42.47231" lon="8.88957">
        <ele>1522.4</ele>
        <time>2015-07-02T04:58:46Z</time>
      </trkpt>
      <trkpt lat="42.47235" lon="8.88953">
        <ele>1521.2</ele>
        <time>2015-07-02T04:58:52Z</time>
      </trkpt>
      <trkpt lat="42.47238" lon="8.8895">
        <ele>1520.2</ele>
        <time>2015-07-02T04:58:57Z</time>
      </trkpt>
      <trkpt lat="42.4724" lon="8.88947">
        <ele>1519.8</ele>
        <time>2015-07-02T04:59:00Z</time>
      </trkpt>
      <trkpt lat="42.47239" lon="8.88944">
        <ele>1519.4</ele>
        <time>2015-07-02T04:59:02Z</time>
      </trkpt>
      <trkpt lat="42.47239" lon="8.88943">
        <ele>1519.2</ele>
        <time>2015-07-02T04:59:03Z</time>
      </trkpt>
      <trkpt lat="42.47235" lon="8.88939">
        <ele>1518.2</ele>
        <time>2015-07-02T04:59:08Z</time>
      </trkpt>
      <trkpt lat="42.47234" lon="8.88936">
        <ele>1517</ele>
        <time>2015-07-02T04:59:13Z</time>
      </trkpt>
      <trkpt lat="42.47231" lon="8.88932">
        <ele>1515.6</ele>
        <time>2015-07-02T04:59:19Z</time>
      </trkpt>
      <trkpt lat="42.47228" lon="8.88926">
        <ele>1514.4</ele>
        <time>2015-07-02T04:59:25Z</time>
      </trkpt>
      <trkpt lat="42.47226" lon="8.88921">
        <ele>1513.4</ele>
        <time>2015-07-02T04:59:30Z</time>
      </trkpt>
      <trkpt lat="42.47225" lon="8.88919">
        <ele>1512.8</ele>
        <time>2015-07-02T04:59:33Z</time>
      </trkpt>
      <trkpt lat="42.47226" lon="8.88917">
        <ele>1512.4</ele>
        <time>2015-07-02T04:59:36Z</time>
      </trkpt>
      <trkpt lat="42.47231" lon="8.88914">
        <ele>1511</ele>
        <time>2015-07-02T04:59:43Z</time>
      </trkpt>
      <trkpt lat="42.47236" lon="8.88911">
        <ele>1509.8</ele>
        <time>2015-07-02T04:59:49Z</time>
      </trkpt>
      <trkpt lat="42.4724" lon="8.88908">
        <ele>1508.8</ele>
        <time>2015-07-02T04:59:55Z</time>
      </trkpt>
      <trkpt lat="42.4724" lon="8.88903">
        <ele>1508</ele>
        <time>2015-07-02T05:00:00Z</time>
      </trkpt>
      <trkpt lat="42.47242" lon="8.88896">
        <ele>1506</ele>
        <time>2015-07-02T05:00:13Z</time>
      </trkpt>
      <trkpt lat="42.47243" lon="8.8889">
        <ele>1505.6</ele>
        <time>2015-07-02T05:00:18Z</time>
      </trkpt>
      <trkpt lat="42.47246" lon="8.88887">
        <ele>1504.4</ele>
        <time>2015-07-02T05:00:24Z</time>
      </trkpt>
      <trkpt lat="42.47249" lon="8.88884">
        <ele>1503.6</ele>
        <time>2015-07-02T05:00:28Z</time>
      </trkpt>
      <trkpt lat="42.47252" lon="8.88884">
        <ele>1503</ele>
        <time>2015-07-02T05:00:31Z</time>
      </trkpt>
      <trkpt lat="42.47258" lon="8.88883">
        <ele>1502</ele>
        <time>2015-07-02T05:00:39Z</time>
      </trkpt>
      <trkpt lat="42.47268" lon="8.8888">
        <ele>1500.2</ele>
        <time>2015-07-02T05:00:52Z</time>
      </trkpt>
      <trkpt lat="42.47272" lon="8.88875">
        <ele>1499.8</ele>
        <time>2015-07-02T05:01:01Z</time>
      </trkpt>
      <trkpt lat="42.47274" lon="8.8887">
        <ele>1499</ele>
        <time>2015-07-02T05:01:06Z</time>
      </trkpt>
      <trkpt lat="42.47276" lon="8.88864">
        <ele>1497.4</ele>
        <time>2015-07-02T05:02:18Z</time>
      </trkpt>
      <trkpt lat="42.47277" lon="8.88858">
        <ele>1496.6</ele>
        <time>2015-07-02T05:02:24Z</time>
      </trkpt>
      <trkpt lat="42.4728" lon="8.88853">
        <ele>1495.6</ele>
        <time>2015-07-02T05:02:29Z</time>
      </trkpt>
      <trkpt lat="42.47284" lon="8.88846">
        <ele>1494.2</ele>
        <time>2015-07-02T05:02:35Z</time>
      </trkpt>
      <trkpt lat="42.47286" lon="8.88846">
        <ele>1493.8</ele>
        <time>2015-07-02T05:02:37Z</time>
      </trkpt>
      <trkpt lat="42.47287" lon="8.88843">
        <ele>1493.2</ele>
        <time>2015-07-02T05:02:40Z</time>
      </trkpt>
      <trkpt lat="42.47288" lon="8.88842">
        <ele>1493</ele>
        <time>2015-07-02T05:02:41Z</time>
      </trkpt>
      <trkpt lat="42.47291" lon="8.88841">
        <ele>1492.4</ele>
        <time>2015-07-02T05:02:44Z</time>
      </trkpt>
      <trkpt lat="42.47292" lon="8.88838">
        <ele>1491.8</ele>
        <time>2015-07-02T05:02:47Z</time>
      </trkpt>
      <trkpt lat="42.47294" lon="8.88834">
        <ele>1491.4</ele>
        <time>2015-07-02T05:02:50Z</time>
      </trkpt>
      <trkpt lat="42.47296" lon="8.88834">
        <ele>1491</ele>
        <time>2015-07-02T05:02:52Z</time>
      </trkpt>
      <trkpt lat="42.47301" lon="8.88828">
        <ele>1489.8</ele>
        <time>2015-07-02T05:02:58Z</time>
      </trkpt>
      <trkpt lat="42.47304" lon="8.88821">
        <ele>1488.6</ele>
        <time>2015-07-02T05:03:04Z</time>
      </trkpt>
      <trkpt lat="42.47308" lon="8.88815">
        <ele>1487.2</ele>
        <time>2015-07-02T05:03:11Z</time>
      </trkpt>
      <trkpt lat="42.47312" lon="8.88813">
        <ele>1486.6</ele>
        <time>2015-07-02T05:03:17Z</time>
      </trkpt>
      <trkpt lat="42.47313" lon="8.88813">
        <ele>1486.4</ele>
        <time>2015-07-02T05:03:18Z</time>
      </trkpt>
      <trkpt lat="42.47314" lon="8.88815">
        <ele>1485.4</ele>
        <time>2015-07-02T05:03:23Z</time>
      </trkpt>
      <trkpt lat="42.47318" lon="8.88819">
        <ele>1483.8</ele>
        <time>2015-07-02T05:03:35Z</time>
      </trkpt>
      <trkpt lat="42.47319" lon="8.88824">
        <ele>1483</ele>
        <time>2015-07-02T05:03:42Z</time>
      </trkpt>
      <trkpt lat="42.47319" lon="8.88825">
        <ele>1482.4</ele>
        <time>2015-07-02T05:03:46Z</time>
      </trkpt>
      <trkpt lat="42.47321" lon="8.88829">
        <ele>1481.2</ele>
        <time>2015-07-02T05:03:51Z</time>
      </trkpt>
      <trkpt lat="42.47323" lon="8.88831">
        <ele>1480.2</ele>
        <time>2015-07-02T05:03:56Z</time>
      </trkpt>
      <trkpt lat="42.47326" lon="8.88835">
        <ele>1478.8</ele>
        <time>2015-07-02T05:04:02Z</time>
      </trkpt>
      <trkpt lat="42.47328" lon="8.88838">
        <ele>1477.4</ele>
        <time>2015-07-02T05:04:09Z</time>
      </trkpt>
      <trkpt lat="42.47331" lon="8.88841">
        <ele>1476.6</ele>
        <time>2015-07-02T05:04:14Z</time>
      </trkpt>
      <trkpt lat="42.47333" lon="8.88845">
        <ele>1475.6</ele>
        <time>2015-07-02T05:04:19Z</time>
      </trkpt>
      <trkpt lat="42.47334" lon="8.88847">
        <ele>1474.4</ele>
        <time>2015-07-02T05:04:25Z</time>
      </trkpt>
      <trkpt lat="42.47335" lon="8.88849">
        <ele>1473.2</ele>
        <time>2015-07-02T05:04:31Z</time>
      </trkpt>
      <trkpt lat="42.47339" lon="8.88851">
        <ele>1471.8</ele>
        <time>2015-07-02T05:04:38Z</time>
      </trkpt>
      <trkpt lat="42.4734" lon="8.88856">
        <ele>1471</ele>
        <time>2015-07-02T05:04:43Z</time>
      </trkpt>
      <trkpt lat="42.47341" lon="8.88859">
        <ele>1469.8</ele>
        <time>2015-07-02T05:04:49Z</time>
      </trkpt>
      <trkpt lat="42.47344" lon="8.88858">
        <ele>1468.8</ele>
        <time>2015-07-02T05:04:54Z</time>
      </trkpt>
      <trkpt lat="42.47345" lon="8.88857">
        <ele>1467.2</ele>
        <time>2015-07-02T05:05:03Z</time>
      </trkpt>
      <trkpt lat="42.47347" lon="8.88857">
        <ele>1466.6</ele>
        <time>2015-07-02T05:05:09Z</time>
      </trkpt>
      <trkpt lat="42.47348" lon="8.88857">
        <ele>1466</ele>
        <time>2015-07-02T05:05:12Z</time>
      </trkpt>
      <trkpt lat="42.47349" lon="8.88861">
        <ele>1465.6</ele>
        <time>2015-07-02T05:05:18Z</time>
      </trkpt>
      <trkpt lat="42.4735" lon="8.88863">
        <ele>1464.4</ele>
        <time>2015-07-02T05:05:24Z</time>
      </trkpt>
      <trkpt lat="42.47353" lon="8.8886">
        <ele>1463.4</ele>
        <time>2015-07-02T05:05:29Z</time>
      </trkpt>
      <trkpt lat="42.47355" lon="8.88856">
        <ele>1462.2</ele>
        <time>2015-07-02T05:05:35Z</time>
      </trkpt>
      <trkpt lat="42.47357" lon="8.88851">
        <ele>1461.2</ele>
        <time>2015-07-02T05:05:40Z</time>
      </trkpt>
      <trkpt lat="42.4736" lon="8.88845">
        <ele>1460</ele>
        <time>2015-07-02T05:05:46Z</time>
      </trkpt>
      <trkpt lat="42.47361" lon="8.88846">
        <ele>1459.8</ele>
        <time>2015-07-02T05:05:47Z</time>
      </trkpt>
      <trkpt lat="42.47363" lon="8.88842">
        <ele>1458.8</ele>
        <time>2015-07-02T05:05:52Z</time>
      </trkpt>
      <trkpt lat="42.47367" lon="8.88838">
        <ele>1457.6</ele>
        <time>2015-07-02T05:05:59Z</time>
      </trkpt>
      <trkpt lat="42.4737" lon="8.88833">
        <ele>1456.6</ele>
        <time>2015-07-02T05:06:06Z</time>
      </trkpt>
      <trkpt lat="42.47371" lon="8.88827">
        <ele>1455.6</ele>
        <time>2015-07-02T05:06:12Z</time>
      </trkpt>
      <trkpt lat="42.47373" lon="8.88825">
        <ele>1454.6</ele>
        <time>2015-07-02T05:06:17Z</time>
      </trkpt>
      <trkpt lat="42.47375" lon="8.88821">
        <ele>1453.4</ele>
        <time>2015-07-02T05:06:23Z</time>
      </trkpt>
      <trkpt lat="42.47378" lon="8.88815">
        <ele>1452.2</ele>
        <time>2015-07-02T05:06:30Z</time>
      </trkpt>
      <trkpt lat="42.47381" lon="8.88809">
        <ele>1451.2</ele>
        <time>2015-07-02T05:06:38Z</time>
      </trkpt>
      <trkpt lat="42.47385" lon="8.88806">
        <ele>1450.2</ele>
        <time>2015-07-02T05:06:44Z</time>
      </trkpt>
      <trkpt lat="42.47387" lon="8.88803">
        <ele>1449.2</ele>
        <time>2015-07-02T05:06:49Z</time>
      </trkpt>
      <trkpt lat="42.47389" lon="8.888">
        <ele>1448.2</ele>
        <time>2015-07-02T05:06:53Z</time>
      </trkpt>
      <trkpt lat="42.47392" lon="8.88798">
        <ele>1447</ele>
        <time>2015-07-02T05:06:59Z</time>
      </trkpt>
      <trkpt lat="42.47395" lon="8.88796">
        <ele>1445.8</ele>
        <time>2015-07-02T05:07:05Z</time>
      </trkpt>
      <trkpt lat="42.47397" lon="8.88795">
        <ele>1445</ele>
        <time>2015-07-02T05:07:10Z</time>
      </trkpt>
      <trkpt lat="42.47399" lon="8.88794">
        <ele>1443.6</ele>
        <time>2015-07-02T05:07:16Z</time>
      </trkpt>
      <trkpt lat="42.47402" lon="8.88792">
        <ele>1442.4</ele>
        <time>2015-07-02T05:07:22Z</time>
      </trkpt>
      <trkpt lat="42.47405" lon="8.88789">
        <ele>1441.4</ele>
        <time>2015-07-02T05:07:27Z</time>
      </trkpt>
      <trkpt lat="42.47406" lon="8.88784">
        <ele>1440.4</ele>
        <time>2015-07-02T05:07:32Z</time>
      </trkpt>
      <trkpt lat="42.47397" lon="8.88764">
        <ele>1439.4</ele>
        <time>2015-07-02T05:07:52Z</time>
      </trkpt>
      <trkpt lat="42.47395" lon="8.88764">
        <ele>1440.2</ele>
        <time>2015-07-02T05:07:59Z</time>
      </trkpt>
      <trkpt lat="42.47395" lon="8.8876">
        <ele>1441.4</ele>
        <time>2015-07-02T05:08:09Z</time>
      </trkpt>
      <trkpt lat="42.47407" lon="8.88703">
        <ele>1441.8</ele>
        <time>2015-07-02T05:09:09Z</time>
      </trkpt>
      <trkpt lat="42.47405" lon="8.88685">
        <ele>1442.8</ele>
        <time>2015-07-02T05:09:30Z</time>
      </trkpt>
      <trkpt lat="42.47406" lon="8.88681">
        <ele>1444</ele>
        <time>2015-07-02T05:09:37Z</time>
      </trkpt>
      <trkpt lat="42.47408" lon="8.88678">
        <ele>1445</ele>
        <time>2015-07-02T05:09:43Z</time>
      </trkpt>
      <trkpt lat="42.47408" lon="8.88674">
        <ele>1446.2</ele>
        <time>2015-07-02T05:09:49Z</time>
      </trkpt>
      <trkpt lat="42.47405" lon="8.8867">
        <ele>1447.6</ele>
        <time>2015-07-02T05:09:57Z</time>
      </trkpt>
      <trkpt lat="42.47406" lon="8.88666">
        <ele>1448.6</ele>
        <time>2015-07-02T05:10:04Z</time>
      </trkpt>
      <trkpt lat="42.47407" lon="8.88664">
        <ele>1449.6</ele>
        <time>2015-07-02T05:10:11Z</time>
      </trkpt>
      <trkpt lat="42.47406" lon="8.88661">
        <ele>1451</ele>
        <time>2015-07-02T05:10:19Z</time>
      </trkpt>
      <trkpt lat="42.47406" lon="8.88657">
        <ele>1452</ele>
        <time>2015-07-02T05:10:27Z</time>
      </trkpt>
      <trkpt lat="42.47407" lon="8.8865">
        <ele>1453.6</ele>
        <time>2015-07-02T05:10:36Z</time>
      </trkpt>
      <trkpt lat="42.47406" lon="8.88638">
        <ele>1455</ele>
        <time>2015-07-02T05:11:04Z</time>
      </trkpt>
      <trkpt lat="42.47407" lon="8.88611">
        <ele>1455.6</ele>
        <time>2015-07-02T05:11:27Z</time>
      </trkpt>
      <trkpt lat="42.47409" lon="8.88603">
        <ele>1457</ele>
        <time>2015-07-02T05:11:34Z</time>
      </trkpt>
      <trkpt lat="42.47411" lon="8.88592">
        <ele>1457</ele>
        <time>2015-07-02T05:11:42Z</time>
      </trkpt>
      <trkpt lat="42.47411" lon="8.8859">
        <ele>1457.2</ele>
        <time>2015-07-02T05:11:44Z</time>
      </trkpt>
      <trkpt lat="42.4741" lon="8.88584">
        <ele>1457.4</ele>
        <time>2015-07-02T05:11:48Z</time>
      </trkpt>
      <trkpt lat="42.47408" lon="8.88571">
        <ele>1458.4</ele>
        <time>2015-07-02T05:11:59Z</time>
      </trkpt>
      <trkpt lat="42.47409" lon="8.88566">
        <ele>1459.2</ele>
        <time>2015-07-02T05:12:06Z</time>
      </trkpt>
      <trkpt lat="42.47408" lon="8.88549">
        <ele>1461</ele>
        <time>2015-07-02T05:12:22Z</time>
      </trkpt>
      <trkpt lat="42.47407" lon="8.88539">
        <ele>1461.6</ele>
        <time>2015-07-02T05:12:29Z</time>
      </trkpt>
      <trkpt lat="42.47406" lon="8.88534">
        <ele>1462.6</ele>
        <time>2015-07-02T05:12:35Z</time>
      </trkpt>
      <trkpt lat="42.47404" lon="8.88528">
        <ele>1464</ele>
        <time>2015-07-02T05:12:42Z</time>
      </trkpt>
      <trkpt lat="42.47405" lon="8.88521">
        <ele>1465</ele>
        <time>2015-07-02T05:12:49Z</time>
      </trkpt>
      <trkpt lat="42.47405" lon="8.88514">
        <ele>1466.4</ele>
        <time>2015-07-02T05:12:56Z</time>
      </trkpt>
      <trkpt lat="42.47403" lon="8.88507">
        <ele>1467.8</ele>
        <time>2015-07-02T05:13:03Z</time>
      </trkpt>
      <trkpt lat="42.47402" lon="8.88491">
        <ele>1469.2</ele>
        <time>2015-07-02T05:13:17Z</time>
      </trkpt>
      <trkpt lat="42.47402" lon="8.8848">
        <ele>1470.6</ele>
        <time>2015-07-02T05:13:28Z</time>
      </trkpt>
      <trkpt lat="42.47412" lon="8.88442">
        <ele>1471.6</ele>
        <time>2015-07-02T05:14:06Z</time>
      </trkpt>
      <trkpt lat="42.47417" lon="8.88429">
        <ele>1471.2</ele>
        <time>2015-07-02T05:14:21Z</time>
      </trkpt>
      <trkpt lat="42.47429" lon="8.88398">
        <ele>1472</ele>
        <time>2015-07-02T05:14:51Z</time>
      </trkpt>
      <trkpt lat="42.47441" lon="8.88371">
        <ele>1471</ele>
        <time>2015-07-02T05:15:22Z</time>
      </trkpt>
      <trkpt lat="42.47437" lon="8.88367">
        <ele>1470</ele>
        <time>2015-07-02T05:17:13Z</time>
      </trkpt>
      <trkpt lat="42.47437" lon="8.88371">
        <ele>1469.8</ele>
        <time>2015-07-02T05:18:34Z</time>
      </trkpt>
      <trkpt lat="42.47439" lon="8.88367">
        <ele>1470</ele>
        <time>2015-07-02T05:21:08Z</time>
      </trkpt>
      <trkpt lat="42.47438" lon="8.88349">
        <ele>1469.8</ele>
        <time>2015-07-02T05:21:33Z</time>
      </trkpt>
      <trkpt lat="42.4744" lon="8.88342">
        <ele>1468.8</ele>
        <time>2015-07-02T05:21:39Z</time>
      </trkpt>
      <trkpt lat="42.4744" lon="8.88334">
        <ele>1467.6</ele>
        <time>2015-07-02T05:21:46Z</time>
      </trkpt>
      <trkpt lat="42.47445" lon="8.88323">
        <ele>1466.4</ele>
        <time>2015-07-02T05:21:57Z</time>
      </trkpt>
      <trkpt lat="42.47452" lon="8.88283">
        <ele>1465.4</ele>
        <time>2015-07-02T05:22:39Z</time>
      </trkpt>
      <trkpt lat="42.47455" lon="8.88276">
        <ele>1464.4</ele>
        <time>2015-07-02T05:22:46Z</time>
      </trkpt>
      <trkpt lat="42.47459" lon="8.88271">
        <ele>1463.4</ele>
        <time>2015-07-02T05:22:54Z</time>
      </trkpt>
      <trkpt lat="42.47462" lon="8.88267">
        <ele>1463</ele>
        <time>2015-07-02T05:22:59Z</time>
      </trkpt>
      <trkpt lat="42.47463" lon="8.8826">
        <ele>1462</ele>
        <time>2015-07-02T05:23:10Z</time>
      </trkpt>
      <trkpt lat="42.47464" lon="8.88256">
        <ele>1462.6</ele>
        <time>2015-07-02T05:23:16Z</time>
      </trkpt>
      <trkpt lat="42.47464" lon="8.88251">
        <ele>1463.6</ele>
        <time>2015-07-02T05:23:22Z</time>
      </trkpt>
      <trkpt lat="42.47462" lon="8.88246">
        <ele>1465</ele>
        <time>2015-07-02T05:23:33Z</time>
      </trkpt>
      <trkpt lat="42.47466" lon="8.88238">
        <ele>1465.4</ele>
        <time>2015-07-02T05:23:57Z</time>
      </trkpt>
      <trkpt lat="42.47465" lon="8.88232">
        <ele>1464.6</ele>
        <time>2015-07-02T05:24:03Z</time>
      </trkpt>
      <trkpt lat="42.47467" lon="8.88224">
        <ele>1463.4</ele>
        <time>2015-07-02T05:24:13Z</time>
      </trkpt>
      <trkpt lat="42.47471" lon="8.88217">
        <ele>1462.2</ele>
        <time>2015-07-02T05:24:21Z</time>
      </trkpt>
      <trkpt lat="42.4747" lon="8.8821">
        <ele>1461.4</ele>
        <time>2015-07-02T05:24:37Z</time>
      </trkpt>
      <trkpt lat="42.47483" lon="8.88182">
        <ele>1463.2</ele>
        <time>2015-07-02T05:25:21Z</time>
      </trkpt>
      <trkpt lat="42.47486" lon="8.88177">
        <ele>1463.2</ele>
        <time>2015-07-02T05:25:39Z</time>
      </trkpt>
      <trkpt lat="42.47485" lon="8.88173">
        <ele>1461.8</ele>
        <time>2015-07-02T05:25:49Z</time>
      </trkpt>
      <trkpt lat="42.47486" lon="8.88171">
        <ele>1461</ele>
        <time>2015-07-02T05:25:58Z</time>
      </trkpt>
      <trkpt lat="42.47486" lon="8.88168">
        <ele>1460</ele>
        <time>2015-07-02T05:26:05Z</time>
      </trkpt>
      <trkpt lat="42.47486" lon="8.88165">
        <ele>1459.4</ele>
        <time>2015-07-02T05:26:10Z</time>
      </trkpt>
      <trkpt lat="42.47484" lon="8.88162">
        <ele>1457.6</ele>
        <time>2015-07-02T05:26:19Z</time>
      </trkpt>
      <trkpt lat="42.47484" lon="8.88157">
        <ele>1456.8</ele>
        <time>2015-07-02T05:26:26Z</time>
      </trkpt>
      <trkpt lat="42.47484" lon="8.88155">
        <ele>1456.2</ele>
        <time>2015-07-02T05:26:30Z</time>
      </trkpt>
      <trkpt lat="42.47485" lon="8.88148">
        <ele>1454.6</ele>
        <time>2015-07-02T05:26:36Z</time>
      </trkpt>
      <trkpt lat="42.47485" lon="8.88131">
        <ele>1452.6</ele>
        <time>2015-07-02T05:27:07Z</time>
      </trkpt>
      <trkpt lat="42.47482" lon="8.88125">
        <ele>1451.8</ele>
        <time>2015-07-02T05:27:16Z</time>
      </trkpt>
      <trkpt lat="42.47479" lon="8.8812">
        <ele>1450.8</ele>
        <time>2015-07-02T05:27:30Z</time>
      </trkpt>
      <trkpt lat="42.47478" lon="8.88111">
        <ele>1449.8</ele>
        <time>2015-07-02T05:27:38Z</time>
      </trkpt>
      <trkpt lat="42.47477" lon="8.88111">
        <ele>1450</ele>
        <time>2015-07-02T05:27:39Z</time>
      </trkpt>
      <trkpt lat="42.47484" lon="8.88092">
        <ele>1448</ele>
        <time>2015-07-02T05:28:14Z</time>
      </trkpt>
      <trkpt lat="42.47487" lon="8.88089">
        <ele>1447.8</ele>
        <time>2015-07-02T05:28:19Z</time>
      </trkpt>
      <trkpt lat="42.4749" lon="8.88087">
        <ele>1446.2</ele>
        <time>2015-07-02T05:28:26Z</time>
      </trkpt>
      <trkpt lat="42.47494" lon="8.88085">
        <ele>1445</ele>
        <time>2015-07-02T05:28:32Z</time>
      </trkpt>
      <trkpt lat="42.47497" lon="8.88083">
        <ele>1444</ele>
        <time>2015-07-02T05:28:37Z</time>
      </trkpt>
      <trkpt lat="42.47499" lon="8.8808">
        <ele>1443.4</ele>
        <time>2015-07-02T05:28:41Z</time>
      </trkpt>
      <trkpt lat="42.47502" lon="8.88075">
        <ele>1441.4</ele>
        <time>2015-07-02T05:28:47Z</time>
      </trkpt>
      <trkpt lat="42.47507" lon="8.88056">
        <ele>1440.4</ele>
        <time>2015-07-02T05:29:08Z</time>
      </trkpt>
      <trkpt lat="42.47509" lon="8.88051">
        <ele>1441.4</ele>
        <time>2015-07-02T05:29:14Z</time>
      </trkpt>
      <trkpt lat="42.47509" lon="8.88041">
        <ele>1442.6</ele>
        <time>2015-07-02T05:29:24Z</time>
      </trkpt>
      <trkpt lat="42.47509" lon="8.88028">
        <ele>1444</ele>
        <time>2015-07-02T05:29:37Z</time>
      </trkpt>
      <trkpt lat="42.47509" lon="8.88023">
        <ele>1444.6</ele>
        <time>2015-07-02T05:29:44Z</time>
      </trkpt>
      <trkpt lat="42.47508" lon="8.88018">
        <ele>1445.4</ele>
        <time>2015-07-02T05:29:50Z</time>
      </trkpt>
      <trkpt lat="42.47507" lon="8.88013">
        <ele>1446.6</ele>
        <time>2015-07-02T05:29:58Z</time>
      </trkpt>
      <trkpt lat="42.47503" lon="8.88009">
        <ele>1447.6</ele>
        <time>2015-07-02T05:30:06Z</time>
      </trkpt>
      <trkpt lat="42.47502" lon="8.88004">
        <ele>1449</ele>
        <time>2015-07-02T05:30:15Z</time>
      </trkpt>
      <trkpt lat="42.47498" lon="8.87999">
        <ele>1449</ele>
        <time>2015-07-02T05:30:32Z</time>
      </trkpt>
      <trkpt lat="42.47501" lon="8.87988">
        <ele>1449.2</ele>
        <time>2015-07-02T05:30:58Z</time>
      </trkpt>
      <trkpt lat="42.47505" lon="8.87989">
        <ele>1448.2</ele>
        <time>2015-07-02T05:31:07Z</time>
      </trkpt>
      <trkpt lat="42.47507" lon="8.8799">
        <ele>1447</ele>
        <time>2015-07-02T05:31:14Z</time>
      </trkpt>
      <trkpt lat="42.47509" lon="8.8799">
        <ele>1446</ele>
        <time>2015-07-02T05:31:22Z</time>
      </trkpt>
      <trkpt lat="42.47511" lon="8.87989">
        <ele>1444.6</ele>
        <time>2015-07-02T05:31:47Z</time>
      </trkpt>
      <trkpt lat="42.47515" lon="8.87988">
        <ele>1443.6</ele>
        <time>2015-07-02T05:31:55Z</time>
      </trkpt>
      <trkpt lat="42.47516" lon="8.87985">
        <ele>1442.4</ele>
        <time>2015-07-02T05:32:02Z</time>
      </trkpt>
      <trkpt lat="42.47519" lon="8.87984">
        <ele>1441.4</ele>
        <time>2015-07-02T05:32:09Z</time>
      </trkpt>
      <trkpt lat="42.47518" lon="8.87987">
        <ele>1440</ele>
        <time>2015-07-02T05:32:18Z</time>
      </trkpt>
      <trkpt lat="42.47519" lon="8.87987">
        <ele>1439.2</ele>
        <time>2015-07-02T05:32:27Z</time>
      </trkpt>
      <trkpt lat="42.47519" lon="8.87993">
        <ele>1437.8</ele>
        <time>2015-07-02T05:32:36Z</time>
      </trkpt>
      <trkpt lat="42.47521" lon="8.87992">
        <ele>1436.2</ele>
        <time>2015-07-02T05:32:48Z</time>
      </trkpt>
      <trkpt lat="42.47522" lon="8.8799">
        <ele>1435.6</ele>
        <time>2015-07-02T05:32:59Z</time>
      </trkpt>
      <trkpt lat="42.47522" lon="8.87987">
        <ele>1434.4</ele>
        <time>2015-07-02T05:33:08Z</time>
      </trkpt>
      <trkpt lat="42.47521" lon="8.87985">
        <ele>1432.8</ele>
        <time>2015-07-02T05:33:25Z</time>
      </trkpt>
      <trkpt lat="42.47523" lon="8.87984">
        <ele>1431.8</ele>
        <time>2015-07-02T05:33:37Z</time>
      </trkpt>
      <trkpt lat="42.47525" lon="8.87981">
        <ele>1430.6</ele>
        <time>2015-07-02T05:33:48Z</time>
      </trkpt>
      <trkpt lat="42.47528" lon="8.87985">
        <ele>1429.8</ele>
        <time>2015-07-02T05:33:57Z</time>
      </trkpt>
      <trkpt lat="42.4753" lon="8.87986">
        <ele>1428.2</ele>
        <time>2015-07-02T05:34:07Z</time>
      </trkpt>
      <trkpt lat="42.47532" lon="8.87989">
        <ele>1427.6</ele>
        <time>2015-07-02T05:34:13Z</time>
      </trkpt>
      <trkpt lat="42.47533" lon="8.87992">
        <ele>1426.4</ele>
        <time>2015-07-02T05:34:20Z</time>
      </trkpt>
      <trkpt lat="42.47535" lon="8.87993">
        <ele>1424.6</ele>
        <time>2015-07-02T05:34:42Z</time>
      </trkpt>
      <trkpt lat="42.47534" lon="8.87997">
        <ele>1423.4</ele>
        <time>2015-07-02T05:34:55Z</time>
      </trkpt>
      <trkpt lat="42.47535" lon="8.87997">
        <ele>1422.8</ele>
        <time>2015-07-02T05:35:02Z</time>
      </trkpt>
      <trkpt lat="42.47537" lon="8.87996">
        <ele>1421.6</ele>
        <time>2015-07-02T05:35:09Z</time>
      </trkpt>
      <trkpt lat="42.47541" lon="8.87993">
        <ele>1419.8</ele>
        <time>2015-07-02T05:35:43Z</time>
      </trkpt>
      <trkpt lat="42.47542" lon="8.87999">
        <ele>1419</ele>
        <time>2015-07-02T05:35:51Z</time>
      </trkpt>
      <trkpt lat="42.47541" lon="8.88004">
        <ele>1417.4</ele>
        <time>2015-07-02T05:36:08Z</time>
      </trkpt>
      <trkpt lat="42.4754" lon="8.88008">
        <ele>1416.2</ele>
        <time>2015-07-02T05:36:27Z</time>
      </trkpt>
      <trkpt lat="42.47539" lon="8.88007">
        <ele>1415.8</ele>
        <time>2015-07-02T05:36:30Z</time>
      </trkpt>
      <trkpt lat="42.47541" lon="8.88004">
        <ele>1415.8</ele>
        <time>2015-07-02T05:36:53Z</time>
      </trkpt>
      <trkpt lat="42.47545" lon="8.88002">
        <ele>1415.4</ele>
        <time>2015-07-02T05:37:19Z</time>
      </trkpt>
      <trkpt lat="42.47558" lon="8.87995">
        <ele>1415</ele>
        <time>2015-07-02T05:38:18Z</time>
      </trkpt>
      <trkpt lat="42.47559" lon="8.87995">
        <ele>1415</ele>
        <time>2015-07-02T05:38:20Z</time>
      </trkpt>
      <trkpt lat="42.47561" lon="8.87995">
        <ele>1415</ele>
        <time>2015-07-02T05:38:22Z</time>
      </trkpt>
      <trkpt lat="42.47564" lon="8.87993">
        <ele>1415</ele>
        <time>2015-07-02T05:38:26Z</time>
      </trkpt>
      <trkpt lat="42.4757" lon="8.87994">
        <ele>1414</ele>
        <time>2015-07-02T05:38:38Z</time>
      </trkpt>
      <trkpt lat="42.47567" lon="8.87995">
        <ele>1412.8</ele>
        <time>2015-07-02T05:38:46Z</time>
      </trkpt>
      <trkpt lat="42.47569" lon="8.87994">
        <ele>1411.4</ele>
        <time>2015-07-02T05:38:59Z</time>
      </trkpt>
      <trkpt lat="42.4757" lon="8.8799">
        <ele>1409.8</ele>
        <time>2015-07-02T05:39:17Z</time>
      </trkpt>
      <trkpt lat="42.47572" lon="8.87988">
        <ele>1409.4</ele>
        <time>2015-07-02T05:39:24Z</time>
      </trkpt>
      <trkpt lat="42.47579" lon="8.87988">
        <ele>1407.8</ele>
        <time>2015-07-02T05:39:33Z</time>
      </trkpt>
      <trkpt lat="42.47582" lon="8.87986">
        <ele>1406.6</ele>
        <time>2015-07-02T05:39:56Z</time>
      </trkpt>
      <trkpt lat="42.47585" lon="8.87989">
        <ele>1405.2</ele>
        <time>2015-07-02T05:40:09Z</time>
      </trkpt>
      <trkpt lat="42.47586" lon="8.87987">
        <ele>1404.4</ele>
        <time>2015-07-02T05:40:15Z</time>
      </trkpt>
      <trkpt lat="42.47588" lon="8.87987">
        <ele>1402.8</ele>
        <time>2015-07-02T05:40:23Z</time>
      </trkpt>
      <trkpt lat="42.4759" lon="8.87988">
        <ele>1402</ele>
        <time>2015-07-02T05:40:31Z</time>
      </trkpt>
      <trkpt lat="42.47592" lon="8.87985">
        <ele>1401</ele>
        <time>2015-07-02T05:40:37Z</time>
      </trkpt>
      <trkpt lat="42.47594" lon="8.87986">
        <ele>1399.6</ele>
        <time>2015-07-02T05:40:47Z</time>
      </trkpt>
      <trkpt lat="42.47597" lon="8.87986">
        <ele>1398.4</ele>
        <time>2015-07-02T05:40:58Z</time>
      </trkpt>
      <trkpt lat="42.476" lon="8.87981">
        <ele>1397.4</ele>
        <time>2015-07-02T05:41:04Z</time>
      </trkpt>
      <trkpt lat="42.47608" lon="8.87954">
        <ele>1396.6</ele>
        <time>2015-07-02T05:41:33Z</time>
      </trkpt>
      <trkpt lat="42.47609" lon="8.87949">
        <ele>1397.2</ele>
        <time>2015-07-02T05:41:40Z</time>
      </trkpt>
      <trkpt lat="42.47607" lon="8.87952">
        <ele>1398.4</ele>
        <time>2015-07-02T05:41:48Z</time>
      </trkpt>
      <trkpt lat="42.47606" lon="8.87953">
        <ele>1399.2</ele>
        <time>2015-07-02T05:41:53Z</time>
      </trkpt>
      <trkpt lat="42.47604" lon="8.87951">
        <ele>1400.8</ele>
        <time>2015-07-02T05:42:07Z</time>
      </trkpt>
      <trkpt lat="42.47606" lon="8.87949">
        <ele>1401.6</ele>
        <time>2015-07-02T05:42:17Z</time>
      </trkpt>
      <trkpt lat="42.47608" lon="8.87948">
        <ele>1402.2</ele>
        <time>2015-07-02T05:42:23Z</time>
      </trkpt>
      <trkpt lat="42.47605" lon="8.87945">
        <ele>1403.4</ele>
        <time>2015-07-02T05:42:29Z</time>
      </trkpt>
      <trkpt lat="42.47604" lon="8.87943">
        <ele>1403.6</ele>
        <time>2015-07-02T05:42:32Z</time>
      </trkpt>
      <trkpt lat="42.47604" lon="8.8794">
        <ele>1404.4</ele>
        <time>2015-07-02T05:42:38Z</time>
      </trkpt>
      <trkpt lat="42.47604" lon="8.87933">
        <ele>1405.8</ele>
        <time>2015-07-02T05:42:47Z</time>
      </trkpt>
      <trkpt lat="42.47609" lon="8.87924">
        <ele>1406.2</ele>
        <time>2015-07-02T05:43:02Z</time>
      </trkpt>
      <trkpt lat="42.4761" lon="8.87916">
        <ele>1404.6</ele>
        <time>2015-07-02T05:43:13Z</time>
      </trkpt>
      <trkpt lat="42.47615" lon="8.87908">
        <ele>1404</ele>
        <time>2015-07-02T05:43:20Z</time>
      </trkpt>
      <trkpt lat="42.47621" lon="8.87902">
        <ele>1402.8</ele>
        <time>2015-07-02T05:43:28Z</time>
      </trkpt>
      <trkpt lat="42.47621" lon="8.87896">
        <ele>1402</ele>
        <time>2015-07-02T05:43:36Z</time>
      </trkpt>
      <trkpt lat="42.47625" lon="8.87894">
        <ele>1400.8</ele>
        <time>2015-07-02T05:43:44Z</time>
      </trkpt>
      <trkpt lat="42.47628" lon="8.87895">
        <ele>1400</ele>
        <time>2015-07-02T05:43:49Z</time>
      </trkpt>
      <trkpt lat="42.47629" lon="8.87894">
        <ele>1399.8</ele>
        <time>2015-07-02T05:43:50Z</time>
      </trkpt>
      <trkpt lat="42.47632" lon="8.87892">
        <ele>1399.2</ele>
        <time>2015-07-02T05:43:53Z</time>
      </trkpt>
      <trkpt lat="42.47631" lon="8.87873">
        <ele>1396.8</ele>
        <time>2015-07-02T05:44:17Z</time>
      </trkpt>
      <trkpt lat="42.47636" lon="8.87868">
        <ele>1395.6</ele>
        <time>2015-07-02T05:44:26Z</time>
      </trkpt>
      <trkpt lat="42.47638" lon="8.87864">
        <ele>1394.8</ele>
        <time>2015-07-02T05:44:34Z</time>
      </trkpt>
      <trkpt lat="42.47644" lon="8.87847">
        <ele>1393.4</ele>
        <time>2015-07-02T05:44:52Z</time>
      </trkpt>
      <trkpt lat="42.4765" lon="8.87844">
        <ele>1392.8</ele>
        <time>2015-07-02T05:45:01Z</time>
      </trkpt>
      <trkpt lat="42.47655" lon="8.87841">
        <ele>1392.4</ele>
        <time>2015-07-02T05:45:13Z</time>
      </trkpt>
      <trkpt lat="42.47652" lon="8.87837">
        <ele>1391.8</ele>
        <time>2015-07-02T05:45:20Z</time>
      </trkpt>
      <trkpt lat="42.47655" lon="8.87839">
        <ele>1391.2</ele>
        <time>2015-07-02T05:45:27Z</time>
      </trkpt>
      <trkpt lat="42.47656" lon="8.87839">
        <ele>1390.6</ele>
        <time>2015-07-02T05:45:33Z</time>
      </trkpt>
      <trkpt lat="42.4766" lon="8.87839">
        <ele>1389.2</ele>
        <time>2015-07-02T05:45:40Z</time>
      </trkpt>
      <trkpt lat="42.47663" lon="8.87838">
        <ele>1388.4</ele>
        <time>2015-07-02T05:45:47Z</time>
      </trkpt>
      <trkpt lat="42.47664" lon="8.87838">
        <ele>1386.8</ele>
        <time>2015-07-02T05:46:03Z</time>
      </trkpt>
      <trkpt lat="42.47662" lon="8.87843">
        <ele>1385.8</ele>
        <time>2015-07-02T05:46:11Z</time>
      </trkpt>
      <trkpt lat="42.47663" lon="8.87847">
        <ele>1385.2</ele>
        <time>2015-07-02T05:46:23Z</time>
      </trkpt>
      <trkpt lat="42.4766" lon="8.87851">
        <ele>1383.6</ele>
        <time>2015-07-02T05:46:33Z</time>
      </trkpt>
      <trkpt lat="42.47662" lon="8.87854">
        <ele>1382.4</ele>
        <time>2015-07-02T05:46:47Z</time>
      </trkpt>
      <trkpt lat="42.47665" lon="8.87858">
        <ele>1381.6</ele>
        <time>2015-07-02T05:46:56Z</time>
      </trkpt>
      <trkpt lat="42.47666" lon="8.87863">
        <ele>1380.8</ele>
        <time>2015-07-02T05:47:03Z</time>
      </trkpt>
      <trkpt lat="42.47666" lon="8.87864">
        <ele>1379.6</ele>
        <time>2015-07-02T05:47:10Z</time>
      </trkpt>
      <trkpt lat="42.47666" lon="8.87863">
        <ele>1378.6</ele>
        <time>2015-07-02T05:47:16Z</time>
      </trkpt>
      <trkpt lat="42.47669" lon="8.87861">
        <ele>1377.4</ele>
        <time>2015-07-02T05:47:22Z</time>
      </trkpt>
      <trkpt lat="42.47669" lon="8.87861">
        <ele>1377.2</ele>
        <time>2015-07-02T05:47:23Z</time>
      </trkpt>
      <trkpt lat="42.47673" lon="8.87861">
        <ele>1375.4</ele>
        <time>2015-07-02T05:47:36Z</time>
      </trkpt>
      <trkpt lat="42.47674" lon="8.87862">
        <ele>1374.8</ele>
        <time>2015-07-02T05:47:42Z</time>
      </trkpt>
      <trkpt lat="42.47673" lon="8.87864">
        <ele>1373.8</ele>
        <time>2015-07-02T05:47:48Z</time>
      </trkpt>
      <trkpt lat="42.47678" lon="8.87865">
        <ele>1372.4</ele>
        <time>2015-07-02T05:47:55Z</time>
      </trkpt>
      <trkpt lat="42.47681" lon="8.87867">
        <ele>1371.6</ele>
        <time>2015-07-02T05:48:02Z</time>
      </trkpt>
      <trkpt lat="42.47682" lon="8.87869">
        <ele>1370.8</ele>
        <time>2015-07-02T05:48:07Z</time>
      </trkpt>
      <trkpt lat="42.47685" lon="8.87872">
        <ele>1369.6</ele>
        <time>2015-07-02T05:48:12Z</time>
      </trkpt>
      <trkpt lat="42.47684" lon="8.87871">
        <ele>1368.4</ele>
        <time>2015-07-02T05:48:17Z</time>
      </trkpt>
      <trkpt lat="42.47688" lon="8.87871">
        <ele>1367</ele>
        <time>2015-07-02T05:48:23Z</time>
      </trkpt>
      <trkpt lat="42.47688" lon="8.87872">
        <ele>1366</ele>
        <time>2015-07-02T05:48:29Z</time>
      </trkpt>
      <trkpt lat="42.47689" lon="8.87868">
        <ele>1364.8</ele>
        <time>2015-07-02T05:48:34Z</time>
      </trkpt>
      <trkpt lat="42.47693" lon="8.87858">
        <ele>1362.8</ele>
        <time>2015-07-02T05:48:54Z</time>
      </trkpt>
      <trkpt lat="42.47698" lon="8.87861">
        <ele>1361.8</ele>
        <time>2015-07-02T05:49:21Z</time>
      </trkpt>
      <trkpt lat="42.47699" lon="8.8786">
        <ele>1360.8</ele>
        <time>2015-07-02T05:49:44Z</time>
      </trkpt>
      <trkpt lat="42.47697" lon="8.87865">
        <ele>1359.6</ele>
        <time>2015-07-02T05:50:15Z</time>
      </trkpt>
      <trkpt lat="42.47697" lon="8.87865">
        <ele>1359.4</ele>
        <time>2015-07-02T05:50:19Z</time>
      </trkpt>
      <trkpt lat="42.47698" lon="8.87865">
        <ele>1358.8</ele>
        <time>2015-07-02T05:50:24Z</time>
      </trkpt>
      <trkpt lat="42.47699" lon="8.87864">
        <ele>1358.2</ele>
        <time>2015-07-02T05:50:28Z</time>
      </trkpt>
      <trkpt lat="42.47702" lon="8.87863">
        <ele>1356</ele>
        <time>2015-07-02T05:50:56Z</time>
      </trkpt>
      <trkpt lat="42.47704" lon="8.87864">
        <ele>1355.2</ele>
        <time>2015-07-02T05:51:06Z</time>
      </trkpt>
      <trkpt lat="42.47702" lon="8.87866">
        <ele>1354</ele>
        <time>2015-07-02T05:51:33Z</time>
      </trkpt>
      <trkpt lat="42.4771" lon="8.87869">
        <ele>1353</ele>
        <time>2015-07-02T05:51:44Z</time>
      </trkpt>
      <trkpt lat="42.47709" lon="8.8787">
        <ele>1353</ele>
        <time>2015-07-02T05:51:45Z</time>
      </trkpt>
      <trkpt lat="42.47706" lon="8.8787">
        <ele>1352.4</ele>
        <time>2015-07-02T05:51:49Z</time>
      </trkpt>
      <trkpt lat="42.47706" lon="8.8787">
        <ele>1352.4</ele>
        <time>2015-07-02T05:51:50Z</time>
      </trkpt>
      <trkpt lat="42.47711" lon="8.87864">
        <ele>1351.4</ele>
        <time>2015-07-02T05:51:57Z</time>
      </trkpt>
      <trkpt lat="42.4771" lon="8.87852">
        <ele>1350.8</ele>
        <time>2015-07-02T05:52:25Z</time>
      </trkpt>
      <trkpt lat="42.47713" lon="8.87849">
        <ele>1349.6</ele>
        <time>2015-07-02T05:52:33Z</time>
      </trkpt>
      <trkpt lat="42.47716" lon="8.87849">
        <ele>1348.6</ele>
        <time>2015-07-02T05:52:40Z</time>
      </trkpt>
      <trkpt lat="42.47719" lon="8.87845">
        <ele>1347.4</ele>
        <time>2015-07-02T05:52:47Z</time>
      </trkpt>
      <trkpt lat="42.4772" lon="8.8784">
        <ele>1346.4</ele>
        <time>2015-07-02T05:52:54Z</time>
      </trkpt>
      <trkpt lat="42.47723" lon="8.87833">
        <ele>1345.2</ele>
        <time>2015-07-02T05:53:01Z</time>
      </trkpt>
      <trkpt lat="42.47733" lon="8.87831">
        <ele>1343.6</ele>
        <time>2015-07-02T05:53:14Z</time>
      </trkpt>
      <trkpt lat="42.47736" lon="8.87835">
        <ele>1343.2</ele>
        <time>2015-07-02T05:53:20Z</time>
      </trkpt>
      <trkpt lat="42.47739" lon="8.87836">
        <ele>1342.6</ele>
        <time>2015-07-02T05:53:28Z</time>
      </trkpt>
      <trkpt lat="42.47743" lon="8.87834">
        <ele>1341.6</ele>
        <time>2015-07-02T05:53:35Z</time>
      </trkpt>
      <trkpt lat="42.47749" lon="8.87832">
        <ele>1340.2</ele>
        <time>2015-07-02T05:53:56Z</time>
      </trkpt>
      <trkpt lat="42.4775" lon="8.87829">
        <ele>1338.6</ele>
        <time>2015-07-02T05:54:14Z</time>
      </trkpt>
      <trkpt lat="42.47753" lon="8.87825">
        <ele>1338.2</ele>
        <time>2015-07-02T05:54:23Z</time>
      </trkpt>
      <trkpt lat="42.47756" lon="8.87825">
        <ele>1336.8</ele>
        <time>2015-07-02T05:54:41Z</time>
      </trkpt>
      <trkpt lat="42.47758" lon="8.87828">
        <ele>1336.2</ele>
        <time>2015-07-02T05:54:53Z</time>
      </trkpt>
      <trkpt lat="42.47759" lon="8.87829">
        <ele>1335.6</ele>
        <time>2015-07-02T05:54:58Z</time>
      </trkpt>
      <trkpt lat="42.47762" lon="8.87832">
        <ele>1333.6</ele>
        <time>2015-07-02T05:55:09Z</time>
      </trkpt>
      <trkpt lat="42.47764" lon="8.87834">
        <ele>1332.8</ele>
        <time>2015-07-02T05:55:17Z</time>
      </trkpt>
      <trkpt lat="42.47765" lon="8.87835">
        <ele>1332</ele>
        <time>2015-07-02T05:55:23Z</time>
      </trkpt>
      <trkpt lat="42.47769" lon="8.87829">
        <ele>1331.2</ele>
        <time>2015-07-02T05:55:48Z</time>
      </trkpt>
      <trkpt lat="42.47771" lon="8.87823">
        <ele>1331.4</ele>
        <time>2015-07-02T05:55:56Z</time>
      </trkpt>
      <trkpt lat="42.47773" lon="8.87819">
        <ele>1331.8</ele>
        <time>2015-07-02T05:56:00Z</time>
      </trkpt>
      <trkpt lat="42.47773" lon="8.87818">
        <ele>1331.8</ele>
        <time>2015-07-02T05:56:01Z</time>
      </trkpt>
      <trkpt lat="42.47774" lon="8.8781">
        <ele>1333.4</ele>
        <time>2015-07-02T05:56:10Z</time>
      </trkpt>
      <trkpt lat="42.47778" lon="8.87807">
        <ele>1333.6</ele>
        <time>2015-07-02T05:56:15Z</time>
      </trkpt>
      <trkpt lat="42.47782" lon="8.87804">
        <ele>1333.6</ele>
        <time>2015-07-02T05:56:39Z</time>
      </trkpt>
      <trkpt lat="42.47786" lon="8.87809">
        <ele>1332.4</ele>
        <time>2015-07-02T05:56:52Z</time>
      </trkpt>
      <trkpt lat="42.47798" lon="8.87806">
        <ele>1331.4</ele>
        <time>2015-07-02T05:57:00Z</time>
      </trkpt>
      <trkpt lat="42.478" lon="8.87805">
        <ele>1331</ele>
        <time>2015-07-02T05:57:04Z</time>
      </trkpt>
      <trkpt lat="42.47798" lon="8.87803">
        <ele>1329.4</ele>
        <time>2015-07-02T05:57:11Z</time>
      </trkpt>
      <trkpt lat="42.47798" lon="8.87804">
        <ele>1328.8</ele>
        <time>2015-07-02T05:57:20Z</time>
      </trkpt>
      <trkpt lat="42.47801" lon="8.87805">
        <ele>1328.2</ele>
        <time>2015-07-02T05:57:27Z</time>
      </trkpt>
      <trkpt lat="42.47805" lon="8.87807">
        <ele>1326.6</ele>
        <time>2015-07-02T05:57:41Z</time>
      </trkpt>
      <trkpt lat="42.47802" lon="8.87809">
        <ele>1326.2</ele>
        <time>2015-07-02T05:57:48Z</time>
      </trkpt>
      <trkpt lat="42.47801" lon="8.87811">
        <ele>1324.2</ele>
        <time>2015-07-02T05:57:59Z</time>
      </trkpt>
      <trkpt lat="42.47799" lon="8.87814">
        <ele>1323.4</ele>
        <time>2015-07-02T05:58:09Z</time>
      </trkpt>
      <trkpt lat="42.478" lon="8.87815">
        <ele>1322.8</ele>
        <time>2015-07-02T05:58:15Z</time>
      </trkpt>
      <trkpt lat="42.47799" lon="8.87818">
        <ele>1321.8</ele>
        <time>2015-07-02T05:58:20Z</time>
      </trkpt>
      <trkpt lat="42.47802" lon="8.87819">
        <ele>1320.4</ele>
        <time>2015-07-02T05:58:26Z</time>
      </trkpt>
      <trkpt lat="42.47806" lon="8.87818">
        <ele>1318.8</ele>
        <time>2015-07-02T05:58:36Z</time>
      </trkpt>
      <trkpt lat="42.47806" lon="8.87818">
        <ele>1318.8</ele>
        <time>2015-07-02T05:58:37Z</time>
      </trkpt>
      <trkpt lat="42.47803" lon="8.87816">
        <ele>1317.6</ele>
        <time>2015-07-02T05:58:47Z</time>
      </trkpt>
      <trkpt lat="42.47806" lon="8.87814">
        <ele>1317</ele>
        <time>2015-07-02T05:58:53Z</time>
      </trkpt>
      <trkpt lat="42.47807" lon="8.87812">
        <ele>1316.4</ele>
        <time>2015-07-02T05:58:56Z</time>
      </trkpt>
      <trkpt lat="42.47809" lon="8.87809">
        <ele>1315.6</ele>
        <time>2015-07-02T05:59:00Z</time>
      </trkpt>
      <trkpt lat="42.47813" lon="8.87805">
        <ele>1313.4</ele>
        <time>2015-07-02T05:59:07Z</time>
      </trkpt>
      <trkpt lat="42.47819" lon="8.87797">
        <ele>1312</ele>
        <time>2015-07-02T05:59:27Z</time>
      </trkpt>
      <trkpt lat="42.47824" lon="8.87796">
        <ele>1311.4</ele>
        <time>2015-07-02T05:59:34Z</time>
      </trkpt>
      <trkpt lat="42.47832" lon="8.87793">
        <ele>1309.4</ele>
        <time>2015-07-02T05:59:45Z</time>
      </trkpt>
      <trkpt lat="42.47845" lon="8.87791">
        <ele>1309</ele>
        <time>2015-07-02T06:00:17Z</time>
      </trkpt>
      <trkpt lat="42.47845" lon="8.87781">
        <ele>1307.2</ele>
        <time>2015-07-02T06:00:39Z</time>
      </trkpt>
      <trkpt lat="42.47856" lon="8.87775">
        <ele>1306.6</ele>
        <time>2015-07-02T06:01:02Z</time>
      </trkpt>
      <trkpt lat="42.47859" lon="8.87774">
        <ele>1306.6</ele>
        <time>2015-07-02T06:01:05Z</time>
      </trkpt>
      <trkpt lat="42.47865" lon="8.87775">
        <ele>1306.8</ele>
        <time>2015-07-02T06:01:11Z</time>
      </trkpt>
      <trkpt lat="42.47868" lon="8.87774">
        <ele>1307</ele>
        <time>2015-07-02T06:01:15Z</time>
      </trkpt>
      <trkpt lat="42.47874" lon="8.8777">
        <ele>1307.2</ele>
        <time>2015-07-02T06:01:22Z</time>
      </trkpt>
      <trkpt lat="42.47878" lon="8.87771">
        <ele>1307.6</ele>
        <time>2015-07-02T06:01:26Z</time>
      </trkpt>
      <trkpt lat="42.4788" lon="8.8777">
        <ele>1307.8</ele>
        <time>2015-07-02T06:01:28Z</time>
      </trkpt>
      <trkpt lat="42.47889" lon="8.87763">
        <ele>1308.2</ele>
        <time>2015-07-02T06:01:43Z</time>
      </trkpt>
      <trkpt lat="42.47896" lon="8.87762">
        <ele>1306.4</ele>
        <time>2015-07-02T06:01:52Z</time>
      </trkpt>
      <trkpt lat="42.47899" lon="8.87763">
        <ele>1305.6</ele>
        <time>2015-07-02T06:01:58Z</time>
      </trkpt>
      <trkpt lat="42.47902" lon="8.87765">
        <ele>1304.8</ele>
        <time>2015-07-02T06:02:02Z</time>
      </trkpt>
      <trkpt lat="42.47904" lon="8.87764">
        <ele>1303.8</ele>
        <time>2015-07-02T06:02:06Z</time>
      </trkpt>
      <trkpt lat="42.47909" lon="8.87763">
        <ele>1302.4</ele>
        <time>2015-07-02T06:02:11Z</time>
      </trkpt>
      <trkpt lat="42.47912" lon="8.87762">
        <ele>1301.4</ele>
        <time>2015-07-02T06:02:15Z</time>
      </trkpt>
      <trkpt lat="42.47916" lon="8.8776">
        <ele>1299.8</ele>
        <time>2015-07-02T06:02:20Z</time>
      </trkpt>
      <trkpt lat="42.47923" lon="8.87755">
        <ele>1298</ele>
        <time>2015-07-02T06:02:30Z</time>
      </trkpt>
      <trkpt lat="42.47927" lon="8.87754">
        <ele>1297.2</ele>
        <time>2015-07-02T06:02:36Z</time>
      </trkpt>
      <trkpt lat="42.47934" lon="8.87748">
        <ele>1295.6</ele>
        <time>2015-07-02T06:02:45Z</time>
      </trkpt>
      <trkpt lat="42.47937" lon="8.87747">
        <ele>1294.8</ele>
        <time>2015-07-02T06:02:52Z</time>
      </trkpt>
      <trkpt lat="42.47939" lon="8.87746">
        <ele>1294.4</ele>
        <time>2015-07-02T06:02:54Z</time>
      </trkpt>
      <trkpt lat="42.47942" lon="8.87744">
        <ele>1294</ele>
        <time>2015-07-02T06:02:58Z</time>
      </trkpt>
      <trkpt lat="42.47947" lon="8.8774">
        <ele>1292.6</ele>
        <time>2015-07-02T06:03:06Z</time>
      </trkpt>
      <trkpt lat="42.4795" lon="8.87737">
        <ele>1291.8</ele>
        <time>2015-07-02T06:03:11Z</time>
      </trkpt>
      <trkpt lat="42.47952" lon="8.87732">
        <ele>1290.6</ele>
        <time>2015-07-02T06:03:16Z</time>
      </trkpt>
      <trkpt lat="42.47954" lon="8.87728">
        <ele>1289.4</ele>
        <time>2015-07-02T06:03:21Z</time>
      </trkpt>
      <trkpt lat="42.47956" lon="8.87733">
        <ele>1288</ele>
        <time>2015-07-02T06:03:27Z</time>
      </trkpt>
      <trkpt lat="42.47959" lon="8.87734">
        <ele>1287.2</ele>
        <time>2015-07-02T06:03:32Z</time>
      </trkpt>
      <trkpt lat="42.47963" lon="8.8773">
        <ele>1286</ele>
        <time>2015-07-02T06:03:37Z</time>
      </trkpt>
      <trkpt lat="42.47967" lon="8.87725">
        <ele>1284.8</ele>
        <time>2015-07-02T06:03:43Z</time>
      </trkpt>
      <trkpt lat="42.47971" lon="8.87725">
        <ele>1283.6</ele>
        <time>2015-07-02T06:03:48Z</time>
      </trkpt>
      <trkpt lat="42.47974" lon="8.87723">
        <ele>1282.4</ele>
        <time>2015-07-02T06:03:53Z</time>
      </trkpt>
      <trkpt lat="42.47976" lon="8.87718">
        <ele>1281.4</ele>
        <time>2015-07-02T06:03:59Z</time>
      </trkpt>
      <trkpt lat="42.47978" lon="8.87715">
        <ele>1280</ele>
        <time>2015-07-02T06:04:05Z</time>
      </trkpt>
      <trkpt lat="42.47981" lon="8.87716">
        <ele>1279.2</ele>
        <time>2015-07-02T06:04:09Z</time>
      </trkpt>
      <trkpt lat="42.47982" lon="8.87717">
        <ele>1279</ele>
        <time>2015-07-02T06:04:10Z</time>
      </trkpt>
      <trkpt lat="42.47986" lon="8.87718">
        <ele>1277.6</ele>
        <time>2015-07-02T06:04:16Z</time>
      </trkpt>
      <trkpt lat="42.47988" lon="8.87716">
        <ele>1276.6</ele>
        <time>2015-07-02T06:04:21Z</time>
      </trkpt>
      <trkpt lat="42.47989" lon="8.87716">
        <ele>1275.6</ele>
        <time>2015-07-02T06:04:26Z</time>
      </trkpt>
      <trkpt lat="42.47992" lon="8.87714">
        <ele>1274.6</ele>
        <time>2015-07-02T06:04:31Z</time>
      </trkpt>
      <trkpt lat="42.47995" lon="8.87713">
        <ele>1273.4</ele>
        <time>2015-07-02T06:04:36Z</time>
      </trkpt>
      <trkpt lat="42.48" lon="8.87712">
        <ele>1272.2</ele>
        <time>2015-07-02T06:04:41Z</time>
      </trkpt>
      <trkpt lat="42.48001" lon="8.87715">
        <ele>1271.8</ele>
        <time>2015-07-02T06:04:44Z</time>
      </trkpt>
      <trkpt lat="42.48002" lon="8.87717">
        <ele>1271.6</ele>
        <time>2015-07-02T06:04:45Z</time>
      </trkpt>
      <trkpt lat="42.48002" lon="8.87723">
        <ele>1270.2</ele>
        <time>2015-07-02T06:04:49Z</time>
      </trkpt>
      <trkpt lat="42.48002" lon="8.87727">
        <ele>1269.6</ele>
        <time>2015-07-02T06:04:51Z</time>
      </trkpt>
      <trkpt lat="42.48002" lon="8.87731">
        <ele>1268.4</ele>
        <time>2015-07-02T06:04:56Z</time>
      </trkpt>
      <trkpt lat="42.48006" lon="8.87736">
        <ele>1267.8</ele>
        <time>2015-07-02T06:05:01Z</time>
      </trkpt>
      <trkpt lat="42.48007" lon="8.87737">
        <ele>1267.6</ele>
        <time>2015-07-02T06:05:02Z</time>
      </trkpt>
      <trkpt lat="42.48011" lon="8.87741">
        <ele>1267</ele>
        <time>2015-07-02T06:05:06Z</time>
      </trkpt>
      <trkpt lat="42.48013" lon="8.87741">
        <ele>1266.8</ele>
        <time>2015-07-02T06:05:07Z</time>
      </trkpt>
      <trkpt lat="42.48013" lon="8.87742">
        <ele>1266.4</ele>
        <time>2015-07-02T06:05:08Z</time>
      </trkpt>
      <trkpt lat="42.48014" lon="8.87745">
        <ele>1265.2</ele>
        <time>2015-07-02T06:05:13Z</time>
      </trkpt>
      <trkpt lat="42.48015" lon="8.87748">
        <ele>1264.4</ele>
        <time>2015-07-02T06:05:17Z</time>
      </trkpt>
      <trkpt lat="42.48014" lon="8.87753">
        <ele>1263.6</ele>
        <time>2015-07-02T06:05:23Z</time>
      </trkpt>
      <trkpt lat="42.48016" lon="8.87754">
        <ele>1263.6</ele>
        <time>2015-07-02T06:05:25Z</time>
      </trkpt>
      <trkpt lat="42.48016" lon="8.87756">
        <ele>1263.4</ele>
        <time>2015-07-02T06:05:27Z</time>
      </trkpt>
      <trkpt lat="42.48017" lon="8.87758">
        <ele>1262.8</ele>
        <time>2015-07-02T06:05:29Z</time>
      </trkpt>
      <trkpt lat="42.48016" lon="8.8776">
        <ele>1262.4</ele>
        <time>2015-07-02T06:05:31Z</time>
      </trkpt>
      <trkpt lat="42.48014" lon="8.8776">
        <ele>1261.4</ele>
        <time>2015-07-02T06:05:36Z</time>
      </trkpt>
      <trkpt lat="42.48015" lon="8.87756">
        <ele>1260.6</ele>
        <time>2015-07-02T06:05:41Z</time>
      </trkpt>
      <trkpt lat="42.48016" lon="8.87754">
        <ele>1260.6</ele>
        <time>2015-07-02T06:05:42Z</time>
      </trkpt>
      <trkpt lat="42.48016" lon="8.87752">
        <ele>1259.2</ele>
        <time>2015-07-02T06:05:49Z</time>
      </trkpt>
      <trkpt lat="42.48015" lon="8.87749">
        <ele>1258.6</ele>
        <time>2015-07-02T06:05:54Z</time>
      </trkpt>
      <trkpt lat="42.48015" lon="8.87736">
        <ele>1256.2</ele>
        <time>2015-07-02T06:06:06Z</time>
      </trkpt>
      <trkpt lat="42.48017" lon="8.87733">
        <ele>1256</ele>
        <time>2015-07-02T06:06:11Z</time>
      </trkpt>
      <trkpt lat="42.48017" lon="8.8773">
        <ele>1255.8</ele>
        <time>2015-07-02T06:06:17Z</time>
      </trkpt>
      <trkpt lat="42.48019" lon="8.87724">
        <ele>1254.6</ele>
        <time>2015-07-02T06:06:24Z</time>
      </trkpt>
      <trkpt lat="42.48026" lon="8.87729">
        <ele>1253.6</ele>
        <time>2015-07-02T06:07:08Z</time>
      </trkpt>
      <trkpt lat="42.48023" lon="8.87729">
        <ele>1253.6</ele>
        <time>2015-07-02T06:07:13Z</time>
      </trkpt>
      <trkpt lat="42.48032" lon="8.87731">
        <ele>1253.6</ele>
        <time>2015-07-02T06:07:56Z</time>
      </trkpt>
      <trkpt lat="42.48023" lon="8.87729">
        <ele>1253.2</ele>
        <time>2015-07-02T06:08:04Z</time>
      </trkpt>
      <trkpt lat="42.48026" lon="8.87729">
        <ele>1253.4</ele>
        <time>2015-07-02T06:08:10Z</time>
      </trkpt>
      <trkpt lat="42.48028" lon="8.8773">
        <ele>1253.2</ele>
        <time>2015-07-02T06:08:12Z</time>
      </trkpt>
      <trkpt lat="42.48029" lon="8.87731">
        <ele>1253.6</ele>
        <time>2015-07-02T06:08:18Z</time>
      </trkpt>
      <trkpt lat="42.48025" lon="8.87725">
        <ele>1253.2</ele>
        <time>2015-07-02T06:08:44Z</time>
      </trkpt>
      <trkpt lat="42.48027" lon="8.87728">
        <ele>1253.4</ele>
        <time>2015-07-02T06:08:47Z</time>
      </trkpt>
      <trkpt lat="42.48033" lon="8.8773">
        <ele>1253.4</ele>
        <time>2015-07-02T06:08:51Z</time>
      </trkpt>
      <trkpt lat="42.48034" lon="8.87729">
        <ele>1253.4</ele>
        <time>2015-07-02T06:08:52Z</time>
      </trkpt>
      <trkpt lat="42.48045" lon="8.87722">
        <ele>1253.6</ele>
        <time>2015-07-02T06:09:04Z</time>
      </trkpt>
      <trkpt lat="42.48028" lon="8.87736">
        <ele>1253.6</ele>
        <time>2015-07-02T06:10:14Z</time>
      </trkpt>
      <trkpt lat="42.48024" lon="8.87736">
        <ele>1253.6</ele>
        <time>2015-07-02T06:10:18Z</time>
      </trkpt>
      <trkpt lat="42.48022" lon="8.87735">
        <ele>1253.4</ele>
        <time>2015-07-02T06:10:20Z</time>
      </trkpt>
      <trkpt lat="42.48023" lon="8.87732">
        <ele>1253.6</ele>
        <time>2015-07-02T06:10:23Z</time>
      </trkpt>
      <trkpt lat="42.48026" lon="8.87728">
        <ele>1253.6</ele>
        <time>2015-07-02T06:10:25Z</time>
      </trkpt>
      <trkpt lat="42.48027" lon="8.87723">
        <ele>1253.4</ele>
        <time>2015-07-02T06:10:28Z</time>
      </trkpt>
      <trkpt lat="42.48029" lon="8.87719">
        <ele>1253.4</ele>
        <time>2015-07-02T06:10:31Z</time>
      </trkpt>
      <trkpt lat="42.4803" lon="8.87717">
        <ele>1253.6</ele>
        <time>2015-07-02T06:10:33Z</time>
      </trkpt>
      <trkpt lat="42.48032" lon="8.87716">
        <ele>1253.4</ele>
        <time>2015-07-02T06:10:35Z</time>
      </trkpt>
      <trkpt lat="42.48042" lon="8.87708">
        <ele>1254.2</ele>
        <time>2015-07-02T06:10:48Z</time>
      </trkpt>
      <trkpt lat="42.48049" lon="8.87706">
        <ele>1254.2</ele>
        <time>2015-07-02T06:10:58Z</time>
      </trkpt>
      <trkpt lat="42.48055" lon="8.87705">
        <ele>1254.4</ele>
        <time>2015-07-02T06:11:04Z</time>
      </trkpt>
      <trkpt lat="42.48058" lon="8.87704">
        <ele>1254.4</ele>
        <time>2015-07-02T06:11:07Z</time>
      </trkpt>
      <trkpt lat="42.48082" lon="8.87679">
        <ele>1254.8</ele>
        <time>2015-07-02T06:11:52Z</time>
      </trkpt>
      <trkpt lat="42.48087" lon="8.87679">
        <ele>1255.2</ele>
        <time>2015-07-02T06:11:57Z</time>
      </trkpt>
      <trkpt lat="42.48091" lon="8.87679">
        <ele>1255.6</ele>
        <time>2015-07-02T06:12:00Z</time>
      </trkpt>
      <trkpt lat="42.48091" lon="8.8768">
        <ele>1255.6</ele>
        <time>2015-07-02T06:12:02Z</time>
      </trkpt>
      <trkpt lat="42.48097" lon="8.87676">
        <ele>1255.8</ele>
        <time>2015-07-02T06:12:15Z</time>
      </trkpt>
      <trkpt lat="42.48097" lon="8.87673">
        <ele>1255.8</ele>
        <time>2015-07-02T06:12:18Z</time>
      </trkpt>
      <trkpt lat="42.48098" lon="8.87671">
        <ele>1256</ele>
        <time>2015-07-02T06:12:20Z</time>
      </trkpt>
      <trkpt lat="42.48093" lon="8.8767">
        <ele>1256.2</ele>
        <time>2015-07-02T06:12:23Z</time>
      </trkpt>
      <trkpt lat="42.48089" lon="8.87669">
        <ele>1256.6</ele>
        <time>2015-07-02T06:12:25Z</time>
      </trkpt>
      <trkpt lat="42.48088" lon="8.87668">
        <ele>1256.6</ele>
        <time>2015-07-02T06:12:26Z</time>
      </trkpt>
      <trkpt lat="42.48085" lon="8.87665">
        <ele>1258</ele>
        <time>2015-07-02T06:12:34Z</time>
      </trkpt>
      <trkpt lat="42.48083" lon="8.87659">
        <ele>1258.8</ele>
        <time>2015-07-02T06:12:46Z</time>
      </trkpt>
      <trkpt lat="42.48083" lon="8.87658">
        <ele>1258.8</ele>
        <time>2015-07-02T06:12:47Z</time>
      </trkpt>
      <trkpt lat="42.48086" lon="8.87654">
        <ele>1260</ele>
        <time>2015-07-02T06:12:55Z</time>
      </trkpt>
      <trkpt lat="42.48087" lon="8.87651">
        <ele>1261</ele>
        <time>2015-07-02T06:13:02Z</time>
      </trkpt>
      <trkpt lat="42.4809" lon="8.87649">
        <ele>1261.4</ele>
        <time>2015-07-02T06:13:04Z</time>
      </trkpt>
      <trkpt lat="42.48093" lon="8.87648">
        <ele>1261.8</ele>
        <time>2015-07-02T06:13:06Z</time>
      </trkpt>
      <trkpt lat="42.48097" lon="8.87647">
        <ele>1262.2</ele>
        <time>2015-07-02T06:13:10Z</time>
      </trkpt>
      <trkpt lat="42.48098" lon="8.87647">
        <ele>1262.6</ele>
        <time>2015-07-02T06:13:12Z</time>
      </trkpt>
      <trkpt lat="42.481" lon="8.87646">
        <ele>1263.2</ele>
        <time>2015-07-02T06:13:17Z</time>
      </trkpt>
      <trkpt lat="42.48104" lon="8.87645">
        <ele>1264</ele>
        <time>2015-07-02T06:13:21Z</time>
      </trkpt>
      <trkpt lat="42.48106" lon="8.87644">
        <ele>1264.2</ele>
        <time>2015-07-02T06:13:24Z</time>
      </trkpt>
      <trkpt lat="42.48108" lon="8.87643">
        <ele>1264.6</ele>
        <time>2015-07-02T06:13:27Z</time>
      </trkpt>
      <trkpt lat="42.4811" lon="8.87643">
        <ele>1265.2</ele>
        <time>2015-07-02T06:13:31Z</time>
      </trkpt>
      <trkpt lat="42.4811" lon="8.87643">
        <ele>1265.4</ele>
        <time>2015-07-02T06:13:34Z</time>
      </trkpt>
      <trkpt lat="42.48111" lon="8.8764">
        <ele>1266.8</ele>
        <time>2015-07-02T06:13:43Z</time>
      </trkpt>
      <trkpt lat="42.48111" lon="8.87636">
        <ele>1268.2</ele>
        <time>2015-07-02T06:13:52Z</time>
      </trkpt>
      <trkpt lat="42.48114" lon="8.87632">
        <ele>1269.2</ele>
        <time>2015-07-02T06:14:00Z</time>
      </trkpt>
      <trkpt lat="42.48119" lon="8.87628">
        <ele>1270.2</ele>
        <time>2015-07-02T06:14:09Z</time>
      </trkpt>
      <trkpt lat="42.48121" lon="8.87625">
        <ele>1271.4</ele>
        <time>2015-07-02T06:14:17Z</time>
      </trkpt>
      <trkpt lat="42.48148" lon="8.87589">
        <ele>1272.6</ele>
        <time>2015-07-02T06:15:09Z</time>
      </trkpt>
      <trkpt lat="42.48155" lon="8.87573">
        <ele>1271.4</ele>
        <time>2015-07-02T06:15:29Z</time>
      </trkpt>
      <trkpt lat="42.48156" lon="8.87571">
        <ele>1270.4</ele>
        <time>2015-07-02T06:15:49Z</time>
      </trkpt>
      <trkpt lat="42.48167" lon="8.87563">
        <ele>1270</ele>
        <time>2015-07-02T06:16:29Z</time>
      </trkpt>
      <trkpt lat="42.48169" lon="8.87561">
        <ele>1269.6</ele>
        <time>2015-07-02T06:16:32Z</time>
      </trkpt>
      <trkpt lat="42.4817" lon="8.87556">
        <ele>1269</ele>
        <time>2015-07-02T06:16:36Z</time>
      </trkpt>
      <trkpt lat="42.48173" lon="8.8755">
        <ele>1268.2</ele>
        <time>2015-07-02T06:16:42Z</time>
      </trkpt>
      <trkpt lat="42.48173" lon="8.87549">
        <ele>1267.8</ele>
        <time>2015-07-02T06:16:43Z</time>
      </trkpt>
      <trkpt lat="42.48173" lon="8.87546">
        <ele>1267.2</ele>
        <time>2015-07-02T06:16:47Z</time>
      </trkpt>
      <trkpt lat="42.48173" lon="8.87541">
        <ele>1265.2</ele>
        <time>2015-07-02T06:17:04Z</time>
      </trkpt>
      <trkpt lat="42.48172" lon="8.87536">
        <ele>1265</ele>
        <time>2015-07-02T06:17:08Z</time>
      </trkpt>
      <trkpt lat="42.48173" lon="8.87532">
        <ele>1264.2</ele>
        <time>2015-07-02T06:17:12Z</time>
      </trkpt>
      <trkpt lat="42.48172" lon="8.87528">
        <ele>1262.6</ele>
        <time>2015-07-02T06:17:17Z</time>
      </trkpt>
      <trkpt lat="42.48169" lon="8.87526">
        <ele>1261.8</ele>
        <time>2015-07-02T06:17:21Z</time>
      </trkpt>
      <trkpt lat="42.48168" lon="8.87522">
        <ele>1260.8</ele>
        <time>2015-07-02T06:17:25Z</time>
      </trkpt>
      <trkpt lat="42.48167" lon="8.87518">
        <ele>1259.6</ele>
        <time>2015-07-02T06:17:29Z</time>
      </trkpt>
      <trkpt lat="42.48164" lon="8.87516">
        <ele>1258.6</ele>
        <time>2015-07-02T06:17:33Z</time>
      </trkpt>
      <trkpt lat="42.4816" lon="8.87513">
        <ele>1257.2</ele>
        <time>2015-07-02T06:17:39Z</time>
      </trkpt>
      <trkpt lat="42.48156" lon="8.8751">
        <ele>1256.2</ele>
        <time>2015-07-02T06:17:44Z</time>
      </trkpt>
      <trkpt lat="42.4815" lon="8.87509">
        <ele>1255</ele>
        <time>2015-07-02T06:17:50Z</time>
      </trkpt>
      <trkpt lat="42.48146" lon="8.87508">
        <ele>1253.8</ele>
        <time>2015-07-02T06:17:56Z</time>
      </trkpt>
      <trkpt lat="42.48141" lon="8.87506">
        <ele>1252.8</ele>
        <time>2015-07-02T06:18:02Z</time>
      </trkpt>
      <trkpt lat="42.48135" lon="8.87506">
        <ele>1251.6</ele>
        <time>2015-07-02T06:18:08Z</time>
      </trkpt>
      <trkpt lat="42.48131" lon="8.87503">
        <ele>1250.6</ele>
        <time>2015-07-02T06:18:13Z</time>
      </trkpt>
      <trkpt lat="42.48127" lon="8.875">
        <ele>1249.8</ele>
        <time>2015-07-02T06:18:18Z</time>
      </trkpt>
      <trkpt lat="42.48123" lon="8.87497">
        <ele>1248.6</ele>
        <time>2015-07-02T06:18:23Z</time>
      </trkpt>
      <trkpt lat="42.48118" lon="8.87495">
        <ele>1247.2</ele>
        <time>2015-07-02T06:18:29Z</time>
      </trkpt>
      <trkpt lat="42.48111" lon="8.87492">
        <ele>1246</ele>
        <time>2015-07-02T06:18:37Z</time>
      </trkpt>
      <trkpt lat="42.48107" lon="8.87492">
        <ele>1245.4</ele>
        <time>2015-07-02T06:18:42Z</time>
      </trkpt>
      <trkpt lat="42.48107" lon="8.87491">
        <ele>1245</ele>
        <time>2015-07-02T06:18:43Z</time>
      </trkpt>
      <trkpt lat="42.48104" lon="8.87488">
        <ele>1244.2</ele>
        <time>2015-07-02T06:18:47Z</time>
      </trkpt>
      <trkpt lat="42.48101" lon="8.87486">
        <ele>1243.4</ele>
        <time>2015-07-02T06:18:51Z</time>
      </trkpt>
      <trkpt lat="42.48097" lon="8.87485">
        <ele>1241.6</ele>
        <time>2015-07-02T06:18:57Z</time>
      </trkpt>
      <trkpt lat="42.48092" lon="8.87477">
        <ele>1240</ele>
        <time>2015-07-02T06:19:29Z</time>
      </trkpt>
      <trkpt lat="42.48089" lon="8.87474">
        <ele>1239.6</ele>
        <time>2015-07-02T06:19:34Z</time>
      </trkpt>
      <trkpt lat="42.48087" lon="8.8747">
        <ele>1238.2</ele>
        <time>2015-07-02T06:19:40Z</time>
      </trkpt>
      <trkpt lat="42.48083" lon="8.87467">
        <ele>1237.2</ele>
        <time>2015-07-02T06:19:46Z</time>
      </trkpt>
      <trkpt lat="42.48082" lon="8.87465">
        <ele>1236</ele>
        <time>2015-07-02T06:19:52Z</time>
      </trkpt>
      <trkpt lat="42.48077" lon="8.8746">
        <ele>1234.2</ele>
        <time>2015-07-02T06:20:01Z</time>
      </trkpt>
      <trkpt lat="42.48073" lon="8.87458">
        <ele>1234</ele>
        <time>2015-07-02T06:20:05Z</time>
      </trkpt>
      <trkpt lat="42.48066" lon="8.87455">
        <ele>1232.6</ele>
        <time>2015-07-02T06:20:11Z</time>
      </trkpt>
      <trkpt lat="42.48059" lon="8.87451">
        <ele>1231.2</ele>
        <time>2015-07-02T06:20:18Z</time>
      </trkpt>
      <trkpt lat="42.48055" lon="8.8745">
        <ele>1230.6</ele>
        <time>2015-07-02T06:20:22Z</time>
      </trkpt>
      <trkpt lat="42.48052" lon="8.87442">
        <ele>1229.6</ele>
        <time>2015-07-02T06:20:28Z</time>
      </trkpt>
      <trkpt lat="42.48048" lon="8.87435">
        <ele>1229.4</ele>
        <time>2015-07-02T06:20:33Z</time>
      </trkpt>
      <trkpt lat="42.48044" lon="8.8743">
        <ele>1227.6</ele>
        <time>2015-07-02T06:20:40Z</time>
      </trkpt>
      <trkpt lat="42.4804" lon="8.87428">
        <ele>1226.8</ele>
        <time>2015-07-02T06:20:46Z</time>
      </trkpt>
      <trkpt lat="42.48026" lon="8.87414">
        <ele>1225.2</ele>
        <time>2015-07-02T06:21:11Z</time>
      </trkpt>
      <trkpt lat="42.48021" lon="8.87408">
        <ele>1224.2</ele>
        <time>2015-07-02T06:21:18Z</time>
      </trkpt>
      <trkpt lat="42.48019" lon="8.87404">
        <ele>1223.8</ele>
        <time>2015-07-02T06:21:23Z</time>
      </trkpt>
      <trkpt lat="42.48018" lon="8.87401">
        <ele>1223</ele>
        <time>2015-07-02T06:21:27Z</time>
      </trkpt>
      <trkpt lat="42.48016" lon="8.87398">
        <ele>1221.8</ele>
        <time>2015-07-02T06:21:31Z</time>
      </trkpt>
      <trkpt lat="42.48015" lon="8.87396">
        <ele>1221.4</ele>
        <time>2015-07-02T06:21:33Z</time>
      </trkpt>
      <trkpt lat="42.48016" lon="8.87392">
        <ele>1220.6</ele>
        <time>2015-07-02T06:21:37Z</time>
      </trkpt>
      <trkpt lat="42.48017" lon="8.87392">
        <ele>1220.2</ele>
        <time>2015-07-02T06:21:38Z</time>
      </trkpt>
      <trkpt lat="42.48017" lon="8.87391">
        <ele>1220</ele>
        <time>2015-07-02T06:21:40Z</time>
      </trkpt>
      <trkpt lat="42.48017" lon="8.8739">
        <ele>1219.4</ele>
        <time>2015-07-02T06:21:42Z</time>
      </trkpt>
      <trkpt lat="42.48017" lon="8.87387">
        <ele>1218.6</ele>
        <time>2015-07-02T06:21:46Z</time>
      </trkpt>
      <trkpt lat="42.48019" lon="8.87386">
        <ele>1217.4</ele>
        <time>2015-07-02T06:21:51Z</time>
      </trkpt>
      <trkpt lat="42.48023" lon="8.87386">
        <ele>1216.2</ele>
        <time>2015-07-02T06:21:56Z</time>
      </trkpt>
      <trkpt lat="42.48024" lon="8.87385">
        <ele>1215</ele>
        <time>2015-07-02T06:22:02Z</time>
      </trkpt>
      <trkpt lat="42.48026" lon="8.87382">
        <ele>1213.8</ele>
        <time>2015-07-02T06:22:08Z</time>
      </trkpt>
      <trkpt lat="42.48027" lon="8.87381">
        <ele>1213.2</ele>
        <time>2015-07-02T06:22:12Z</time>
      </trkpt>
      <trkpt lat="42.48026" lon="8.8738">
        <ele>1211.8</ele>
        <time>2015-07-02T06:22:17Z</time>
      </trkpt>
      <trkpt lat="42.48025" lon="8.87378">
        <ele>1210.6</ele>
        <time>2015-07-02T06:22:22Z</time>
      </trkpt>
      <trkpt lat="42.48025" lon="8.87375">
        <ele>1209.6</ele>
        <time>2015-07-02T06:22:28Z</time>
      </trkpt>
      <trkpt lat="42.48024" lon="8.87372">
        <ele>1208.8</ele>
        <time>2015-07-02T06:22:32Z</time>
      </trkpt>
      <trkpt lat="42.48022" lon="8.87369">
        <ele>1207.6</ele>
        <time>2015-07-02T06:22:37Z</time>
      </trkpt>
      <trkpt lat="42.4802" lon="8.87366">
        <ele>1206.4</ele>
        <time>2015-07-02T06:22:42Z</time>
      </trkpt>
      <trkpt lat="42.48019" lon="8.87362">
        <ele>1205.6</ele>
        <time>2015-07-02T06:22:46Z</time>
      </trkpt>
      <trkpt lat="42.48018" lon="8.87356">
        <ele>1203.8</ele>
        <time>2015-07-02T06:22:53Z</time>
      </trkpt>
      <trkpt lat="42.48022" lon="8.87352">
        <ele>1203.2</ele>
        <time>2015-07-02T06:22:58Z</time>
      </trkpt>
      <trkpt lat="42.48026" lon="8.87349">
        <ele>1201.4</ele>
        <time>2015-07-02T06:23:05Z</time>
      </trkpt>
      <trkpt lat="42.48031" lon="8.87348">
        <ele>1200.4</ele>
        <time>2015-07-02T06:23:11Z</time>
      </trkpt>
      <trkpt lat="42.48036" lon="8.87348">
        <ele>1199.4</ele>
        <time>2015-07-02T06:23:16Z</time>
      </trkpt>
      <trkpt lat="42.4804" lon="8.8735">
        <ele>1198.4</ele>
        <time>2015-07-02T06:23:21Z</time>
      </trkpt>
      <trkpt lat="42.48046" lon="8.87354">
        <ele>1196.8</ele>
        <time>2015-07-02T06:23:28Z</time>
      </trkpt>
      <trkpt lat="42.48052" lon="8.87355">
        <ele>1196</ele>
        <time>2015-07-02T06:23:33Z</time>
      </trkpt>
      <trkpt lat="42.48057" lon="8.87358">
        <ele>1194.6</ele>
        <time>2015-07-02T06:23:39Z</time>
      </trkpt>
      <trkpt lat="42.48062" lon="8.87361">
        <ele>1193.2</ele>
        <time>2015-07-02T06:23:47Z</time>
      </trkpt>
      <trkpt lat="42.48065" lon="8.8736">
        <ele>1192.8</ele>
        <time>2015-07-02T06:23:52Z</time>
      </trkpt>
      <trkpt lat="42.48068" lon="8.8736">
        <ele>1192</ele>
        <time>2015-07-02T06:23:56Z</time>
      </trkpt>
      <trkpt lat="42.48069" lon="8.87361">
        <ele>1191.8</ele>
        <time>2015-07-02T06:23:57Z</time>
      </trkpt>
      <trkpt lat="42.48072" lon="8.8736">
        <ele>1190.6</ele>
        <time>2015-07-02T06:24:01Z</time>
      </trkpt>
      <trkpt lat="42.48075" lon="8.87361">
        <ele>1189.6</ele>
        <time>2015-07-02T06:24:06Z</time>
      </trkpt>
      <trkpt lat="42.48088" lon="8.87363">
        <ele>1187.8</ele>
        <time>2015-07-02T06:24:21Z</time>
      </trkpt>
      <trkpt lat="42.48089" lon="8.87363">
        <ele>1187.8</ele>
        <time>2015-07-02T06:24:22Z</time>
      </trkpt>
      <trkpt lat="42.48093" lon="8.87362">
        <ele>1187.2</ele>
        <time>2015-07-02T06:24:27Z</time>
      </trkpt>
      <trkpt lat="42.48097" lon="8.87362">
        <ele>1186.6</ele>
        <time>2015-07-02T06:24:31Z</time>
      </trkpt>
      <trkpt lat="42.48101" lon="8.8736">
        <ele>1185.4</ele>
        <time>2015-07-02T06:24:36Z</time>
      </trkpt>
      <trkpt lat="42.48105" lon="8.8736">
        <ele>1184.6</ele>
        <time>2015-07-02T06:24:40Z</time>
      </trkpt>
      <trkpt lat="42.48109" lon="8.87362">
        <ele>1183</ele>
        <time>2015-07-02T06:24:45Z</time>
      </trkpt>
      <trkpt lat="42.48114" lon="8.87363">
        <ele>1181.6</ele>
        <time>2015-07-02T06:24:52Z</time>
      </trkpt>
      <trkpt lat="42.48119" lon="8.87363">
        <ele>1181.2</ele>
        <time>2015-07-02T06:24:57Z</time>
      </trkpt>
      <trkpt lat="42.48127" lon="8.87357">
        <ele>1180.4</ele>
        <time>2015-07-02T06:25:04Z</time>
      </trkpt>
      <trkpt lat="42.48133" lon="8.87352">
        <ele>1179.8</ele>
        <time>2015-07-02T06:25:10Z</time>
      </trkpt>
      <trkpt lat="42.48139" lon="8.87346">
        <ele>1178.6</ele>
        <time>2015-07-02T06:25:18Z</time>
      </trkpt>
      <trkpt lat="42.48151" lon="8.87339">
        <ele>1177.4</ele>
        <time>2015-07-02T06:25:29Z</time>
      </trkpt>
      <trkpt lat="42.48154" lon="8.87335">
        <ele>1177.2</ele>
        <time>2015-07-02T06:25:33Z</time>
      </trkpt>
      <trkpt lat="42.48159" lon="8.87329">
        <ele>1175.4</ele>
        <time>2015-07-02T06:25:41Z</time>
      </trkpt>
      <trkpt lat="42.4816" lon="8.87325">
        <ele>1175.2</ele>
        <time>2015-07-02T06:25:45Z</time>
      </trkpt>
      <trkpt lat="42.48162" lon="8.87324">
        <ele>1174.2</ele>
        <time>2015-07-02T06:25:49Z</time>
      </trkpt>
      <trkpt lat="42.48164" lon="8.8732">
        <ele>1173</ele>
        <time>2015-07-02T06:25:54Z</time>
      </trkpt>
      <trkpt lat="42.48165" lon="8.87317">
        <ele>1172.2</ele>
        <time>2015-07-02T06:25:58Z</time>
      </trkpt>
      <trkpt lat="42.48167" lon="8.87314">
        <ele>1171.2</ele>
        <time>2015-07-02T06:26:02Z</time>
      </trkpt>
      <trkpt lat="42.48169" lon="8.87312">
        <ele>1170</ele>
        <time>2015-07-02T06:26:06Z</time>
      </trkpt>
      <trkpt lat="42.4817" lon="8.87308">
        <ele>1168.4</ele>
        <time>2015-07-02T06:26:11Z</time>
      </trkpt>
      <trkpt lat="42.48168" lon="8.87302">
        <ele>1167</ele>
        <time>2015-07-02T06:26:18Z</time>
      </trkpt>
      <trkpt lat="42.48165" lon="8.87301">
        <ele>1166.2</ele>
        <time>2015-07-02T06:26:23Z</time>
      </trkpt>
      <trkpt lat="42.48167" lon="8.873">
        <ele>1165</ele>
        <time>2015-07-02T06:26:29Z</time>
      </trkpt>
      <trkpt lat="42.48168" lon="8.87297">
        <ele>1164.2</ele>
        <time>2015-07-02T06:26:34Z</time>
      </trkpt>
      <trkpt lat="42.48169" lon="8.87296">
        <ele>1163</ele>
        <time>2015-07-02T06:26:39Z</time>
      </trkpt>
      <trkpt lat="42.48174" lon="8.87293">
        <ele>1162</ele>
        <time>2015-07-02T06:26:45Z</time>
      </trkpt>
      <trkpt lat="42.48175" lon="8.87288">
        <ele>1161.2</ele>
        <time>2015-07-02T06:26:50Z</time>
      </trkpt>
      <trkpt lat="42.48176" lon="8.87286">
        <ele>1160</ele>
        <time>2015-07-02T06:26:55Z</time>
      </trkpt>
      <trkpt lat="42.48177" lon="8.87283">
        <ele>1158.8</ele>
        <time>2015-07-02T06:27:00Z</time>
      </trkpt>
      <trkpt lat="42.48178" lon="8.8728">
        <ele>1157.8</ele>
        <time>2015-07-02T06:27:05Z</time>
      </trkpt>
      <trkpt lat="42.4818" lon="8.87276">
        <ele>1156.8</ele>
        <time>2015-07-02T06:27:10Z</time>
      </trkpt>
      <trkpt lat="42.48183" lon="8.87273">
        <ele>1155.8</ele>
        <time>2015-07-02T06:27:14Z</time>
      </trkpt>
      <trkpt lat="42.48186" lon="8.87269">
        <ele>1154.4</ele>
        <time>2015-07-02T06:27:20Z</time>
      </trkpt>
      <trkpt lat="42.48188" lon="8.87265">
        <ele>1153.2</ele>
        <time>2015-07-02T06:27:26Z</time>
      </trkpt>
      <trkpt lat="42.4819" lon="8.87263">
        <ele>1152.6</ele>
        <time>2015-07-02T06:27:30Z</time>
      </trkpt>
      <trkpt lat="42.48192" lon="8.87258">
        <ele>1151.4</ele>
        <time>2015-07-02T06:27:36Z</time>
      </trkpt>
      <trkpt lat="42.48193" lon="8.87254">
        <ele>1150.4</ele>
        <time>2015-07-02T06:27:41Z</time>
      </trkpt>
      <trkpt lat="42.48195" lon="8.87251">
        <ele>1149.4</ele>
        <time>2015-07-02T06:27:46Z</time>
      </trkpt>
      <trkpt lat="42.48198" lon="8.87248">
        <ele>1148.2</ele>
        <time>2015-07-02T06:27:53Z</time>
      </trkpt>
      <trkpt lat="42.48199" lon="8.87244">
        <ele>1147.4</ele>
        <time>2015-07-02T06:27:58Z</time>
      </trkpt>
      <trkpt lat="42.482" lon="8.8724">
        <ele>1146.4</ele>
        <time>2015-07-02T06:28:03Z</time>
      </trkpt>
      <trkpt lat="42.48202" lon="8.87239">
        <ele>1145.2</ele>
        <time>2015-07-02T06:28:08Z</time>
      </trkpt>
      <trkpt lat="42.48201" lon="8.87233">
        <ele>1144</ele>
        <time>2015-07-02T06:28:14Z</time>
      </trkpt>
      <trkpt lat="42.48201" lon="8.87228">
        <ele>1143.4</ele>
        <time>2015-07-02T06:28:18Z</time>
      </trkpt>
      <trkpt lat="42.48203" lon="8.87223">
        <ele>1142.2</ele>
        <time>2015-07-02T06:28:23Z</time>
      </trkpt>
      <trkpt lat="42.48205" lon="8.8722">
        <ele>1141</ele>
        <time>2015-07-02T06:28:28Z</time>
      </trkpt>
      <trkpt lat="42.48206" lon="8.87216">
        <ele>1140</ele>
        <time>2015-07-02T06:28:33Z</time>
      </trkpt>
      <trkpt lat="42.48209" lon="8.87215">
        <ele>1139.2</ele>
        <time>2015-07-02T06:28:37Z</time>
      </trkpt>
      <trkpt lat="42.4821" lon="8.8721">
        <ele>1137.8</ele>
        <time>2015-07-02T06:28:43Z</time>
      </trkpt>
      <trkpt lat="42.48211" lon="8.87207">
        <ele>1136.8</ele>
        <time>2015-07-02T06:28:48Z</time>
      </trkpt>
      <trkpt lat="42.48214" lon="8.87203">
        <ele>1135.6</ele>
        <time>2015-07-02T06:28:54Z</time>
      </trkpt>
      <trkpt lat="42.48215" lon="8.87198">
        <ele>1134.6</ele>
        <time>2015-07-02T06:28:59Z</time>
      </trkpt>
      <trkpt lat="42.48216" lon="8.87195">
        <ele>1134</ele>
        <time>2015-07-02T06:29:03Z</time>
      </trkpt>
      <trkpt lat="42.48218" lon="8.87189">
        <ele>1132.8</ele>
        <time>2015-07-02T06:29:08Z</time>
      </trkpt>
      <trkpt lat="42.4822" lon="8.87188">
        <ele>1131.8</ele>
        <time>2015-07-02T06:29:13Z</time>
      </trkpt>
      <trkpt lat="42.48221" lon="8.87183">
        <ele>1130.4</ele>
        <time>2015-07-02T06:29:19Z</time>
      </trkpt>
      <trkpt lat="42.4822" lon="8.8718">
        <ele>1129.4</ele>
        <time>2015-07-02T06:29:24Z</time>
      </trkpt>
      <trkpt lat="42.48217" lon="8.87179">
        <ele>1128.4</ele>
        <time>2015-07-02T06:29:29Z</time>
      </trkpt>
      <trkpt lat="42.48214" lon="8.87178">
        <ele>1127.4</ele>
        <time>2015-07-02T06:29:34Z</time>
      </trkpt>
      <trkpt lat="42.4821" lon="8.87179">
        <ele>1126.4</ele>
        <time>2015-07-02T06:29:39Z</time>
      </trkpt>
      <trkpt lat="42.48205" lon="8.87178">
        <ele>1124.8</ele>
        <time>2015-07-02T06:29:45Z</time>
      </trkpt>
      <trkpt lat="42.48201" lon="8.87176">
        <ele>1123.6</ele>
        <time>2015-07-02T06:29:51Z</time>
      </trkpt>
      <trkpt lat="42.48201" lon="8.87175">
        <ele>1123.4</ele>
        <time>2015-07-02T06:29:53Z</time>
      </trkpt>
      <trkpt lat="42.48201" lon="8.87175">
        <ele>1123</ele>
        <time>2015-07-02T06:29:55Z</time>
      </trkpt>
      <trkpt lat="42.48203" lon="8.87173">
        <ele>1122.4</ele>
        <time>2015-07-02T06:30:04Z</time>
      </trkpt>
      <trkpt lat="42.48205" lon="8.87171">
        <ele>1121.8</ele>
        <time>2015-07-02T06:30:08Z</time>
      </trkpt>
      <trkpt lat="42.48209" lon="8.87167">
        <ele>1120.6</ele>
        <time>2015-07-02T06:30:14Z</time>
      </trkpt>
      <trkpt lat="42.48213" lon="8.87161">
        <ele>1119.4</ele>
        <time>2015-07-02T06:30:22Z</time>
      </trkpt>
      <trkpt lat="42.48216" lon="8.87158">
        <ele>1118.6</ele>
        <time>2015-07-02T06:30:27Z</time>
      </trkpt>
      <trkpt lat="42.48219" lon="8.87152">
        <ele>1117.2</ele>
        <time>2015-07-02T06:30:35Z</time>
      </trkpt>
      <trkpt lat="42.48218" lon="8.87148">
        <ele>1116.8</ele>
        <time>2015-07-02T06:30:39Z</time>
      </trkpt>
      <trkpt lat="42.48214" lon="8.87145">
        <ele>1115.6</ele>
        <time>2015-07-02T06:30:44Z</time>
      </trkpt>
      <trkpt lat="42.48211" lon="8.87142">
        <ele>1114.2</ele>
        <time>2015-07-02T06:30:50Z</time>
      </trkpt>
      <trkpt lat="42.48209" lon="8.87141">
        <ele>1113.6</ele>
        <time>2015-07-02T06:30:55Z</time>
      </trkpt>
      <trkpt lat="42.48209" lon="8.87138">
        <ele>1112</ele>
        <time>2015-07-02T06:31:01Z</time>
      </trkpt>
      <trkpt lat="42.48208" lon="8.87134">
        <ele>1111.2</ele>
        <time>2015-07-02T06:31:06Z</time>
      </trkpt>
      <trkpt lat="42.48212" lon="8.87133">
        <ele>1109</ele>
        <time>2015-07-02T06:31:22Z</time>
      </trkpt>
      <trkpt lat="42.48208" lon="8.8713">
        <ele>1108.6</ele>
        <time>2015-07-02T06:31:40Z</time>
      </trkpt>
      <trkpt lat="42.48205" lon="8.87126">
        <ele>1107.8</ele>
        <time>2015-07-02T06:31:45Z</time>
      </trkpt>
      <trkpt lat="42.48202" lon="8.87125">
        <ele>1106.8</ele>
        <time>2015-07-02T06:31:50Z</time>
      </trkpt>
      <trkpt lat="42.48199" lon="8.87126">
        <ele>1105.8</ele>
        <time>2015-07-02T06:31:55Z</time>
      </trkpt>
      <trkpt lat="42.48193" lon="8.87127">
        <ele>1104.2</ele>
        <time>2015-07-02T06:32:01Z</time>
      </trkpt>
      <trkpt lat="42.4819" lon="8.87128">
        <ele>1103.8</ele>
        <time>2015-07-02T06:32:03Z</time>
      </trkpt>
      <trkpt lat="42.48184" lon="8.8713">
        <ele>1103.4</ele>
        <time>2015-07-02T06:32:08Z</time>
      </trkpt>
      <trkpt lat="42.48179" lon="8.87131">
        <ele>1102.4</ele>
        <time>2015-07-02T06:32:13Z</time>
      </trkpt>
      <trkpt lat="42.48176" lon="8.87133">
        <ele>1101.4</ele>
        <time>2015-07-02T06:32:18Z</time>
      </trkpt>
      <trkpt lat="42.48173" lon="8.87135">
        <ele>1099.8</ele>
        <time>2015-07-02T06:32:25Z</time>
      </trkpt>
      <trkpt lat="42.48168" lon="8.87134">
        <ele>1098.8</ele>
        <time>2015-07-02T06:32:33Z</time>
      </trkpt>
      <trkpt lat="42.48166" lon="8.87133">
        <ele>1098.6</ele>
        <time>2015-07-02T06:32:36Z</time>
      </trkpt>
      <trkpt lat="42.48165" lon="8.87131">
        <ele>1098.2</ele>
        <time>2015-07-02T06:32:41Z</time>
      </trkpt>
      <trkpt lat="42.48167" lon="8.87125">
        <ele>1096.4</ele>
        <time>2015-07-02T06:32:52Z</time>
      </trkpt>
      <trkpt lat="42.4817" lon="8.87123">
        <ele>1096</ele>
        <time>2015-07-02T06:32:57Z</time>
      </trkpt>
      <trkpt lat="42.48172" lon="8.87119">
        <ele>1094.6</ele>
        <time>2015-07-02T06:33:03Z</time>
      </trkpt>
      <trkpt lat="42.48172" lon="8.87114">
        <ele>1094</ele>
        <time>2015-07-02T06:33:08Z</time>
      </trkpt>
      <trkpt lat="42.48171" lon="8.87114">
        <ele>1093.6</ele>
        <time>2015-07-02T06:33:09Z</time>
      </trkpt>
      <trkpt lat="42.4817" lon="8.87114">
        <ele>1092.4</ele>
        <time>2015-07-02T06:33:14Z</time>
      </trkpt>
      <trkpt lat="42.48164" lon="8.87112">
        <ele>1091.2</ele>
        <time>2015-07-02T06:33:22Z</time>
      </trkpt>
      <trkpt lat="42.48159" lon="8.87113">
        <ele>1090.2</ele>
        <time>2015-07-02T06:33:28Z</time>
      </trkpt>
      <trkpt lat="42.48155" lon="8.87115">
        <ele>1089.2</ele>
        <time>2015-07-02T06:33:33Z</time>
      </trkpt>
      <trkpt lat="42.48151" lon="8.87116">
        <ele>1087.8</ele>
        <time>2015-07-02T06:33:40Z</time>
      </trkpt>
      <trkpt lat="42.48147" lon="8.87116">
        <ele>1086.8</ele>
        <time>2015-07-02T06:33:46Z</time>
      </trkpt>
      <trkpt lat="42.48145" lon="8.87117">
        <ele>1085.6</ele>
        <time>2015-07-02T06:33:52Z</time>
      </trkpt>
      <trkpt lat="42.48143" lon="8.87117">
        <ele>1084.6</ele>
        <time>2015-07-02T06:33:58Z</time>
      </trkpt>
      <trkpt lat="42.48142" lon="8.87116">
        <ele>1083</ele>
        <time>2015-07-02T06:34:08Z</time>
      </trkpt>
      <trkpt lat="42.48141" lon="8.87113">
        <ele>1082.6</ele>
        <time>2015-07-02T06:34:13Z</time>
      </trkpt>
      <trkpt lat="42.48141" lon="8.8711">
        <ele>1081.2</ele>
        <time>2015-07-02T06:34:19Z</time>
      </trkpt>
      <trkpt lat="42.48142" lon="8.87106">
        <ele>1080.4</ele>
        <time>2015-07-02T06:34:24Z</time>
      </trkpt>
      <trkpt lat="42.48146" lon="8.871">
        <ele>1079</ele>
        <time>2015-07-02T06:34:30Z</time>
      </trkpt>
      <trkpt lat="42.48149" lon="8.87095">
        <ele>1077.8</ele>
        <time>2015-07-02T06:34:36Z</time>
      </trkpt>
      <trkpt lat="42.48152" lon="8.87092">
        <ele>1077</ele>
        <time>2015-07-02T06:34:41Z</time>
      </trkpt>
      <trkpt lat="42.48152" lon="8.8709">
        <ele>1076.6</ele>
        <time>2015-07-02T06:34:43Z</time>
      </trkpt>
      <trkpt lat="42.48153" lon="8.87088">
        <ele>1076</ele>
        <time>2015-07-02T06:34:47Z</time>
      </trkpt>
      <trkpt lat="42.48155" lon="8.87082">
        <ele>1074</ele>
        <time>2015-07-02T06:34:59Z</time>
      </trkpt>
      <trkpt lat="42.48154" lon="8.87081">
        <ele>1074</ele>
        <time>2015-07-02T06:35:00Z</time>
      </trkpt>
      <trkpt lat="42.48154" lon="8.8708">
        <ele>1074</ele>
        <time>2015-07-02T06:35:02Z</time>
      </trkpt>
      <trkpt lat="42.48154" lon="8.8708">
        <ele>1073.8</ele>
        <time>2015-07-02T06:35:03Z</time>
      </trkpt>
      <trkpt lat="42.48156" lon="8.87075">
        <ele>1072.2</ele>
        <time>2015-07-02T06:35:09Z</time>
      </trkpt>
      <trkpt lat="42.4816" lon="8.87071">
        <ele>1071.2</ele>
        <time>2015-07-02T06:35:14Z</time>
      </trkpt>
      <trkpt lat="42.48182" lon="8.87056">
        <ele>1069.6</ele>
        <time>2015-07-02T06:35:37Z</time>
      </trkpt>
      <trkpt lat="42.48192" lon="8.87046">
        <ele>1068.8</ele>
        <time>2015-07-02T06:35:49Z</time>
      </trkpt>
      <trkpt lat="42.48193" lon="8.87041">
        <ele>1067.8</ele>
        <time>2015-07-02T06:35:55Z</time>
      </trkpt>
      <trkpt lat="42.48195" lon="8.87038">
        <ele>1067.2</ele>
        <time>2015-07-02T06:35:59Z</time>
      </trkpt>
      <trkpt lat="42.48197" lon="8.87034">
        <ele>1065.6</ele>
        <time>2015-07-02T06:36:05Z</time>
      </trkpt>
      <trkpt lat="42.48198" lon="8.8703">
        <ele>1065</ele>
        <time>2015-07-02T06:36:09Z</time>
      </trkpt>
      <trkpt lat="42.48198" lon="8.87027">
        <ele>1064.2</ele>
        <time>2015-07-02T06:36:12Z</time>
      </trkpt>
      <trkpt lat="42.48195" lon="8.87023">
        <ele>1062.8</ele>
        <time>2015-07-02T06:36:17Z</time>
      </trkpt>
      <trkpt lat="42.48193" lon="8.87023">
        <ele>1061.8</ele>
        <time>2015-07-02T06:36:21Z</time>
      </trkpt>
      <trkpt lat="42.48188" lon="8.87024">
        <ele>1060.8</ele>
        <time>2015-07-02T06:36:26Z</time>
      </trkpt>
      <trkpt lat="42.48183" lon="8.87024">
        <ele>1059.6</ele>
        <time>2015-07-02T06:36:32Z</time>
      </trkpt>
      <trkpt lat="42.48178" lon="8.87028">
        <ele>1058.8</ele>
        <time>2015-07-02T06:36:37Z</time>
      </trkpt>
      <trkpt lat="42.48172" lon="8.87028">
        <ele>1057.8</ele>
        <time>2015-07-02T06:36:42Z</time>
      </trkpt>
      <trkpt lat="42.48162" lon="8.87033">
        <ele>1056</ele>
        <time>2015-07-02T06:36:53Z</time>
      </trkpt>
      <trkpt lat="42.48151" lon="8.87038">
        <ele>1055.2</ele>
        <time>2015-07-02T06:37:11Z</time>
      </trkpt>
      <trkpt lat="42.48147" lon="8.87044">
        <ele>1054.6</ele>
        <time>2015-07-02T06:37:16Z</time>
      </trkpt>
      <trkpt lat="42.48125" lon="8.87071">
        <ele>1055</ele>
        <time>2015-07-02T06:37:41Z</time>
      </trkpt>
      <trkpt lat="42.48122" lon="8.87074">
        <ele>1055.2</ele>
        <time>2015-07-02T06:37:45Z</time>
      </trkpt>
      <trkpt lat="42.4811" lon="8.87076">
        <ele>1054.6</ele>
        <time>2015-07-02T06:38:04Z</time>
      </trkpt>
      <trkpt lat="42.48099" lon="8.87055">
        <ele>1054.6</ele>
        <time>2015-07-02T06:38:30Z</time>
      </trkpt>
      <trkpt lat="42.48098" lon="8.87054">
        <ele>1054.6</ele>
        <time>2015-07-02T06:38:33Z</time>
      </trkpt>
      <trkpt lat="42.48098" lon="8.87049">
        <ele>1054.8</ele>
        <time>2015-07-02T06:38:37Z</time>
      </trkpt>
      <trkpt lat="42.48096" lon="8.87045">
        <ele>1054.6</ele>
        <time>2015-07-02T06:38:41Z</time>
      </trkpt>
      <trkpt lat="42.48091" lon="8.87039">
        <ele>1053.2</ele>
        <time>2015-07-02T06:38:47Z</time>
      </trkpt>
      <trkpt lat="42.48087" lon="8.87032">
        <ele>1052.6</ele>
        <time>2015-07-02T06:38:52Z</time>
      </trkpt>
      <trkpt lat="42.48078" lon="8.87017">
        <ele>1050.8</ele>
        <time>2015-07-02T06:39:06Z</time>
      </trkpt>
      <trkpt lat="42.48066" lon="8.87008">
        <ele>1050.2</ele>
        <time>2015-07-02T06:39:20Z</time>
      </trkpt>
      <trkpt lat="42.48064" lon="8.87004">
        <ele>1049.4</ele>
        <time>2015-07-02T06:39:27Z</time>
      </trkpt>
      <trkpt lat="42.48059" lon="8.87001">
        <ele>1048.8</ele>
        <time>2015-07-02T06:39:31Z</time>
      </trkpt>
      <trkpt lat="42.48057" lon="8.86993">
        <ele>1047.2</ele>
        <time>2015-07-02T06:39:38Z</time>
      </trkpt>
      <trkpt lat="42.4806" lon="8.8697">
        <ele>1045.8</ele>
        <time>2015-07-02T06:39:57Z</time>
      </trkpt>
      <trkpt lat="42.48063" lon="8.86956">
        <ele>1045.2</ele>
        <time>2015-07-02T06:40:07Z</time>
      </trkpt>
      <trkpt lat="42.48055" lon="8.86917">
        <ele>1044.4</ele>
        <time>2015-07-02T06:40:51Z</time>
      </trkpt>
      <trkpt lat="42.48043" lon="8.86904">
        <ele>1043.2</ele>
        <time>2015-07-02T06:41:06Z</time>
      </trkpt>
      <trkpt lat="42.48035" lon="8.86898">
        <ele>1042.4</ele>
        <time>2015-07-02T06:41:18Z</time>
      </trkpt>
      <trkpt lat="42.48031" lon="8.86895">
        <ele>1042.2</ele>
        <time>2015-07-02T06:41:22Z</time>
      </trkpt>
      <trkpt lat="42.48025" lon="8.86886">
        <ele>1040.6</ele>
        <time>2015-07-02T06:41:31Z</time>
      </trkpt>
      <trkpt lat="42.48019" lon="8.86877">
        <ele>1039.6</ele>
        <time>2015-07-02T06:41:39Z</time>
      </trkpt>
      <trkpt lat="42.48008" lon="8.8687">
        <ele>1038.6</ele>
        <time>2015-07-02T06:41:50Z</time>
      </trkpt>
      <trkpt lat="42.48003" lon="8.86867">
        <ele>1038.2</ele>
        <time>2015-07-02T06:41:56Z</time>
      </trkpt>
      <trkpt lat="42.47999" lon="8.86864">
        <ele>1037.4</ele>
        <time>2015-07-02T06:42:01Z</time>
      </trkpt>
      <trkpt lat="42.47998" lon="8.86861">
        <ele>1036.8</ele>
        <time>2015-07-02T06:42:04Z</time>
      </trkpt>
      <trkpt lat="42.47996" lon="8.86857">
        <ele>1036.6</ele>
        <time>2015-07-02T06:42:08Z</time>
      </trkpt>
      <trkpt lat="42.47993" lon="8.86852">
        <ele>1035.4</ele>
        <time>2015-07-02T06:42:13Z</time>
      </trkpt>
      <trkpt lat="42.47986" lon="8.86836">
        <ele>1033.4</ele>
        <time>2015-07-02T06:42:31Z</time>
      </trkpt>
      <trkpt lat="42.47987" lon="8.86835">
        <ele>1033.2</ele>
        <time>2015-07-02T06:42:32Z</time>
      </trkpt>
      <trkpt lat="42.47988" lon="8.8683">
        <ele>1033.2</ele>
        <time>2015-07-02T06:42:36Z</time>
      </trkpt>
      <trkpt lat="42.47985" lon="8.86819">
        <ele>1031.8</ele>
        <time>2015-07-02T06:42:44Z</time>
      </trkpt>
      <trkpt lat="42.47983" lon="8.86801">
        <ele>1030.8</ele>
        <time>2015-07-02T06:43:03Z</time>
      </trkpt>
      <trkpt lat="42.47982" lon="8.86797">
        <ele>1030.6</ele>
        <time>2015-07-02T06:43:08Z</time>
      </trkpt>
      <trkpt lat="42.4798" lon="8.86791">
        <ele>1029.4</ele>
        <time>2015-07-02T06:43:13Z</time>
      </trkpt>
      <trkpt lat="42.47981" lon="8.86786">
        <ele>1028</ele>
        <time>2015-07-02T06:43:20Z</time>
      </trkpt>
      <trkpt lat="42.47986" lon="8.86787">
        <ele>1027.4</ele>
        <time>2015-07-02T06:43:25Z</time>
      </trkpt>
      <trkpt lat="42.47989" lon="8.8679">
        <ele>1026.4</ele>
        <time>2015-07-02T06:43:30Z</time>
      </trkpt>
      <trkpt lat="42.47989" lon="8.86789">
        <ele>1025</ele>
        <time>2015-07-02T06:43:37Z</time>
      </trkpt>
      <trkpt lat="42.47989" lon="8.86782">
        <ele>1024.2</ele>
        <time>2015-07-02T06:43:44Z</time>
      </trkpt>
      <trkpt lat="42.47989" lon="8.86779">
        <ele>1023.8</ele>
        <time>2015-07-02T06:43:48Z</time>
      </trkpt>
      <trkpt lat="42.47989" lon="8.86775">
        <ele>1022.6</ele>
        <time>2015-07-02T06:43:52Z</time>
      </trkpt>
      <trkpt lat="42.47987" lon="8.8677">
        <ele>1021.2</ele>
        <time>2015-07-02T06:43:57Z</time>
      </trkpt>
      <trkpt lat="42.47985" lon="8.86766">
        <ele>1020.2</ele>
        <time>2015-07-02T06:44:01Z</time>
      </trkpt>
      <trkpt lat="42.47984" lon="8.86761">
        <ele>1018.6</ele>
        <time>2015-07-02T06:44:07Z</time>
      </trkpt>
      <trkpt lat="42.47981" lon="8.86757">
        <ele>1017.8</ele>
        <time>2015-07-02T06:44:12Z</time>
      </trkpt>
      <trkpt lat="42.47979" lon="8.86752">
        <ele>1016.8</ele>
        <time>2015-07-02T06:44:17Z</time>
      </trkpt>
      <trkpt lat="42.47976" lon="8.86749">
        <ele>1016</ele>
        <time>2015-07-02T06:44:21Z</time>
      </trkpt>
      <trkpt lat="42.47973" lon="8.86747">
        <ele>1014.2</ele>
        <time>2015-07-02T06:44:28Z</time>
      </trkpt>
      <trkpt lat="42.4797" lon="8.86742">
        <ele>1013.4</ele>
        <time>2015-07-02T06:44:37Z</time>
      </trkpt>
      <trkpt lat="42.47968" lon="8.86737">
        <ele>1012.4</ele>
        <time>2015-07-02T06:44:42Z</time>
      </trkpt>
      <trkpt lat="42.47966" lon="8.86734">
        <ele>1011.6</ele>
        <time>2015-07-02T06:44:46Z</time>
      </trkpt>
      <trkpt lat="42.47964" lon="8.86728">
        <ele>1010</ele>
        <time>2015-07-02T06:44:52Z</time>
      </trkpt>
      <trkpt lat="42.47963" lon="8.86725">
        <ele>1009.4</ele>
        <time>2015-07-02T06:44:56Z</time>
      </trkpt>
      <trkpt lat="42.47963" lon="8.8672">
        <ele>1008.2</ele>
        <time>2015-07-02T06:45:01Z</time>
      </trkpt>
      <trkpt lat="42.47962" lon="8.86714">
        <ele>1006.8</ele>
        <time>2015-07-02T06:45:07Z</time>
      </trkpt>
      <trkpt lat="42.47961" lon="8.8671">
        <ele>1006.2</ele>
        <time>2015-07-02T06:45:11Z</time>
      </trkpt>
      <trkpt lat="42.47961" lon="8.86705">
        <ele>1005.4</ele>
        <time>2015-07-02T06:45:15Z</time>
      </trkpt>
      <trkpt lat="42.47959" lon="8.86701">
        <ele>1004.2</ele>
        <time>2015-07-02T06:45:19Z</time>
      </trkpt>
      <trkpt lat="42.47955" lon="8.86696">
        <ele>1002.8</ele>
        <time>2015-07-02T06:45:24Z</time>
      </trkpt>
      <trkpt lat="42.47953" lon="8.86691">
        <ele>1001.6</ele>
        <time>2015-07-02T06:45:29Z</time>
      </trkpt>
      <trkpt lat="42.47951" lon="8.86686">
        <ele>1000.6</ele>
        <time>2015-07-02T06:45:34Z</time>
      </trkpt>
      <trkpt lat="42.47949" lon="8.86681">
        <ele>999.2</ele>
        <time>2015-07-02T06:45:39Z</time>
      </trkpt>
      <trkpt lat="42.47949" lon="8.86677">
        <ele>998.4</ele>
        <time>2015-07-02T06:45:43Z</time>
      </trkpt>
      <trkpt lat="42.47947" lon="8.86669">
        <ele>997.2</ele>
        <time>2015-07-02T06:45:48Z</time>
      </trkpt>
      <trkpt lat="42.47947" lon="8.86666">
        <ele>996</ele>
        <time>2015-07-02T06:45:52Z</time>
      </trkpt>
      <trkpt lat="42.47948" lon="8.86665">
        <ele>995.8</ele>
        <time>2015-07-02T06:45:53Z</time>
      </trkpt>
      <trkpt lat="42.47946" lon="8.86661">
        <ele>994.6</ele>
        <time>2015-07-02T06:45:59Z</time>
      </trkpt>
      <trkpt lat="42.47944" lon="8.86656">
        <ele>993.8</ele>
        <time>2015-07-02T06:46:04Z</time>
      </trkpt>
      <trkpt lat="42.47941" lon="8.8665">
        <ele>992.4</ele>
        <time>2015-07-02T06:46:09Z</time>
      </trkpt>
      <trkpt lat="42.47936" lon="8.86644">
        <ele>991.4</ele>
        <time>2015-07-02T06:46:14Z</time>
      </trkpt>
      <trkpt lat="42.47932" lon="8.86638">
        <ele>989.6</ele>
        <time>2015-07-02T06:46:23Z</time>
      </trkpt>
      <trkpt lat="42.47924" lon="8.86634">
        <ele>988.8</ele>
        <time>2015-07-02T06:46:31Z</time>
      </trkpt>
      <trkpt lat="42.47916" lon="8.86628">
        <ele>988.4</ele>
        <time>2015-07-02T06:46:44Z</time>
      </trkpt>
      <trkpt lat="42.47909" lon="8.86624">
        <ele>987.8</ele>
        <time>2015-07-02T06:46:51Z</time>
      </trkpt>
      <trkpt lat="42.47885" lon="8.86619">
        <ele>986.4</ele>
        <time>2015-07-02T06:47:19Z</time>
      </trkpt>
      <trkpt lat="42.47885" lon="8.86619">
        <ele>986.4</ele>
        <time>2015-07-02T06:47:20Z</time>
      </trkpt>
      <trkpt lat="42.47886" lon="8.86617">
        <ele>986.2</ele>
        <time>2015-07-02T06:47:24Z</time>
      </trkpt>
      <trkpt lat="42.47889" lon="8.86614">
        <ele>985.6</ele>
        <time>2015-07-02T06:47:30Z</time>
      </trkpt>
      <trkpt lat="42.47892" lon="8.86613">
        <ele>984.2</ele>
        <time>2015-07-02T06:47:35Z</time>
      </trkpt>
      <trkpt lat="42.47893" lon="8.8661">
        <ele>983.2</ele>
        <time>2015-07-02T06:47:39Z</time>
      </trkpt>
      <trkpt lat="42.47896" lon="8.86607">
        <ele>982</ele>
        <time>2015-07-02T06:47:44Z</time>
      </trkpt>
      <trkpt lat="42.47899" lon="8.86604">
        <ele>981</ele>
        <time>2015-07-02T06:47:49Z</time>
      </trkpt>
      <trkpt lat="42.47901" lon="8.86603">
        <ele>979.8</ele>
        <time>2015-07-02T06:47:54Z</time>
      </trkpt>
      <trkpt lat="42.47906" lon="8.866">
        <ele>978.2</ele>
        <time>2015-07-02T06:48:04Z</time>
      </trkpt>
      <trkpt lat="42.4791" lon="8.86597">
        <ele>977.8</ele>
        <time>2015-07-02T06:48:09Z</time>
      </trkpt>
      <trkpt lat="42.47914" lon="8.86595">
        <ele>976.6</ele>
        <time>2015-07-02T06:48:14Z</time>
      </trkpt>
      <trkpt lat="42.47917" lon="8.86594">
        <ele>975.8</ele>
        <time>2015-07-02T06:48:18Z</time>
      </trkpt>
      <trkpt lat="42.47921" lon="8.86594">
        <ele>974.6</ele>
        <time>2015-07-02T06:48:23Z</time>
      </trkpt>
      <trkpt lat="42.47925" lon="8.86594">
        <ele>973.4</ele>
        <time>2015-07-02T06:48:28Z</time>
      </trkpt>
      <trkpt lat="42.47927" lon="8.86594">
        <ele>972.2</ele>
        <time>2015-07-02T06:48:33Z</time>
      </trkpt>
      <trkpt lat="42.47932" lon="8.86593">
        <ele>971</ele>
        <time>2015-07-02T06:48:39Z</time>
      </trkpt>
      <trkpt lat="42.47935" lon="8.86591">
        <ele>970.2</ele>
        <time>2015-07-02T06:48:43Z</time>
      </trkpt>
      <trkpt lat="42.47939" lon="8.86591">
        <ele>969.6</ele>
        <time>2015-07-02T06:48:47Z</time>
      </trkpt>
      <trkpt lat="42.47941" lon="8.8659">
        <ele>968</ele>
        <time>2015-07-02T06:48:52Z</time>
      </trkpt>
      <trkpt lat="42.47946" lon="8.86591">
        <ele>967</ele>
        <time>2015-07-02T06:48:57Z</time>
      </trkpt>
      <trkpt lat="42.4795" lon="8.86592">
        <ele>965.6</ele>
        <time>2015-07-02T06:49:02Z</time>
      </trkpt>
      <trkpt lat="42.47953" lon="8.86591">
        <ele>964.4</ele>
        <time>2015-07-02T06:49:07Z</time>
      </trkpt>
      <trkpt lat="42.47955" lon="8.86591">
        <ele>963.6</ele>
        <time>2015-07-02T06:49:11Z</time>
      </trkpt>
      <trkpt lat="42.47958" lon="8.86591">
        <ele>962.4</ele>
        <time>2015-07-02T06:49:16Z</time>
      </trkpt>
      <trkpt lat="42.47959" lon="8.86586">
        <ele>961.4</ele>
        <time>2015-07-02T06:49:21Z</time>
      </trkpt>
      <trkpt lat="42.47956" lon="8.86583">
        <ele>960.2</ele>
        <time>2015-07-02T06:49:26Z</time>
      </trkpt>
      <trkpt lat="42.47953" lon="8.86579">
        <ele>959.4</ele>
        <time>2015-07-02T06:49:31Z</time>
      </trkpt>
      <trkpt lat="42.47947" lon="8.86573">
        <ele>958.2</ele>
        <time>2015-07-02T06:49:38Z</time>
      </trkpt>
      <trkpt lat="42.47944" lon="8.86569">
        <ele>957.2</ele>
        <time>2015-07-02T06:49:43Z</time>
      </trkpt>
      <trkpt lat="42.47941" lon="8.86565">
        <ele>956.2</ele>
        <time>2015-07-02T06:49:48Z</time>
      </trkpt>
      <trkpt lat="42.47935" lon="8.8656">
        <ele>955.2</ele>
        <time>2015-07-02T06:49:54Z</time>
      </trkpt>
      <trkpt lat="42.47929" lon="8.86556">
        <ele>953.8</ele>
        <time>2015-07-02T06:50:01Z</time>
      </trkpt>
      <trkpt lat="42.47925" lon="8.86553">
        <ele>953.2</ele>
        <time>2015-07-02T06:50:06Z</time>
      </trkpt>
      <trkpt lat="42.4792" lon="8.86549">
        <ele>951.8</ele>
        <time>2015-07-02T06:50:12Z</time>
      </trkpt>
      <trkpt lat="42.47915" lon="8.86547">
        <ele>950.8</ele>
        <time>2015-07-02T06:50:17Z</time>
      </trkpt>
      <trkpt lat="42.47911" lon="8.86545">
        <ele>949.8</ele>
        <time>2015-07-02T06:50:22Z</time>
      </trkpt>
      <trkpt lat="42.47907" lon="8.86544">
        <ele>948.8</ele>
        <time>2015-07-02T06:50:27Z</time>
      </trkpt>
      <trkpt lat="42.47902" lon="8.86541">
        <ele>947.8</ele>
        <time>2015-07-02T06:50:33Z</time>
      </trkpt>
      <trkpt lat="42.47895" lon="8.86542">
        <ele>946.6</ele>
        <time>2015-07-02T06:50:39Z</time>
      </trkpt>
      <trkpt lat="42.47877" lon="8.8654">
        <ele>945</ele>
        <time>2015-07-02T06:50:56Z</time>
      </trkpt>
      <trkpt lat="42.47867" lon="8.86538">
        <ele>944.4</ele>
        <time>2015-07-02T06:51:08Z</time>
      </trkpt>
      <trkpt lat="42.47862" lon="8.86537">
        <ele>944.2</ele>
        <time>2015-07-02T06:51:13Z</time>
      </trkpt>
      <trkpt lat="42.47858" lon="8.86536">
        <ele>943</ele>
        <time>2015-07-02T06:51:18Z</time>
      </trkpt>
      <trkpt lat="42.47854" lon="8.86535">
        <ele>942</ele>
        <time>2015-07-02T06:51:23Z</time>
      </trkpt>
      <trkpt lat="42.47851" lon="8.86534">
        <ele>941.4</ele>
        <time>2015-07-02T06:51:27Z</time>
      </trkpt>
      <trkpt lat="42.47846" lon="8.8653">
        <ele>940.2</ele>
        <time>2015-07-02T06:51:32Z</time>
      </trkpt>
      <trkpt lat="42.47842" lon="8.86527">
        <ele>939</ele>
        <time>2015-07-02T06:51:37Z</time>
      </trkpt>
      <trkpt lat="42.47838" lon="8.86525">
        <ele>937.6</ele>
        <time>2015-07-02T06:51:43Z</time>
      </trkpt>
      <trkpt lat="42.47835" lon="8.86522">
        <ele>936.8</ele>
        <time>2015-07-02T06:51:48Z</time>
      </trkpt>
      <trkpt lat="42.47832" lon="8.8652">
        <ele>935.6</ele>
        <time>2015-07-02T06:51:53Z</time>
      </trkpt>
      <trkpt lat="42.4783" lon="8.8652">
        <ele>934.6</ele>
        <time>2015-07-02T06:51:58Z</time>
      </trkpt>
      <trkpt lat="42.47828" lon="8.86517">
        <ele>933.4</ele>
        <time>2015-07-02T06:52:04Z</time>
      </trkpt>
      <trkpt lat="42.47828" lon="8.86517">
        <ele>932.6</ele>
        <time>2015-07-02T06:52:09Z</time>
      </trkpt>
      <trkpt lat="42.47833" lon="8.86516">
        <ele>931.4</ele>
        <time>2015-07-02T06:52:14Z</time>
      </trkpt>
      <trkpt lat="42.47841" lon="8.86513">
        <ele>930.2</ele>
        <time>2015-07-02T06:52:21Z</time>
      </trkpt>
      <trkpt lat="42.47848" lon="8.86512">
        <ele>929.2</ele>
        <time>2015-07-02T06:52:28Z</time>
      </trkpt>
      <trkpt lat="42.47858" lon="8.8651">
        <ele>928</ele>
        <time>2015-07-02T06:52:37Z</time>
      </trkpt>
      <trkpt lat="42.47867" lon="8.86505">
        <ele>927.4</ele>
        <time>2015-07-02T06:52:44Z</time>
      </trkpt>
      <trkpt lat="42.47872" lon="8.86502">
        <ele>926.8</ele>
        <time>2015-07-02T06:52:49Z</time>
      </trkpt>
      <trkpt lat="42.47878" lon="8.865">
        <ele>925.6</ele>
        <time>2015-07-02T06:52:55Z</time>
      </trkpt>
      <trkpt lat="42.47882" lon="8.86499">
        <ele>924.8</ele>
        <time>2015-07-02T06:53:00Z</time>
      </trkpt>
      <trkpt lat="42.47886" lon="8.86497">
        <ele>923.8</ele>
        <time>2015-07-02T06:53:05Z</time>
      </trkpt>
      <trkpt lat="42.47889" lon="8.86495">
        <ele>922.6</ele>
        <time>2015-07-02T06:53:10Z</time>
      </trkpt>
      <trkpt lat="42.47893" lon="8.8649">
        <ele>921.6</ele>
        <time>2015-07-02T06:53:15Z</time>
      </trkpt>
      <trkpt lat="42.47898" lon="8.86488">
        <ele>920.4</ele>
        <time>2015-07-02T06:53:20Z</time>
      </trkpt>
      <trkpt lat="42.47903" lon="8.86485">
        <ele>919.2</ele>
        <time>2015-07-02T06:53:26Z</time>
      </trkpt>
      <trkpt lat="42.47907" lon="8.86482">
        <ele>918.2</ele>
        <time>2015-07-02T06:53:31Z</time>
      </trkpt>
      <trkpt lat="42.47911" lon="8.8648">
        <ele>917</ele>
        <time>2015-07-02T06:53:36Z</time>
      </trkpt>
      <trkpt lat="42.47914" lon="8.86476">
        <ele>916</ele>
        <time>2015-07-02T06:53:41Z</time>
      </trkpt>
      <trkpt lat="42.47917" lon="8.86474">
        <ele>914.8</ele>
        <time>2015-07-02T06:53:46Z</time>
      </trkpt>
      <trkpt lat="42.47921" lon="8.86472">
        <ele>913.6</ele>
        <time>2015-07-02T06:53:51Z</time>
      </trkpt>
      <trkpt lat="42.47926" lon="8.8647">
        <ele>912.6</ele>
        <time>2015-07-02T06:53:56Z</time>
      </trkpt>
      <trkpt lat="42.47931" lon="8.86466">
        <ele>911.6</ele>
        <time>2015-07-02T06:54:01Z</time>
      </trkpt>
      <trkpt lat="42.47935" lon="8.86462">
        <ele>910.6</ele>
        <time>2015-07-02T06:54:06Z</time>
      </trkpt>
      <trkpt lat="42.47939" lon="8.86459">
        <ele>909</ele>
        <time>2015-07-02T06:54:12Z</time>
      </trkpt>
      <trkpt lat="42.47943" lon="8.86456">
        <ele>908.2</ele>
        <time>2015-07-02T06:54:17Z</time>
      </trkpt>
      <trkpt lat="42.47948" lon="8.86452">
        <ele>907</ele>
        <time>2015-07-02T06:54:22Z</time>
      </trkpt>
      <trkpt lat="42.47951" lon="8.86448">
        <ele>906</ele>
        <time>2015-07-02T06:54:27Z</time>
      </trkpt>
      <trkpt lat="42.47954" lon="8.86447">
        <ele>905</ele>
        <time>2015-07-02T06:54:31Z</time>
      </trkpt>
      <trkpt lat="42.4796" lon="8.86445">
        <ele>903.6</ele>
        <time>2015-07-02T06:54:38Z</time>
      </trkpt>
      <trkpt lat="42.47963" lon="8.86445">
        <ele>903</ele>
        <time>2015-07-02T06:54:42Z</time>
      </trkpt>
      <trkpt lat="42.47967" lon="8.86442">
        <ele>901.8</ele>
        <time>2015-07-02T06:54:47Z</time>
      </trkpt>
      <trkpt lat="42.47971" lon="8.86441">
        <ele>900.8</ele>
        <time>2015-07-02T06:54:52Z</time>
      </trkpt>
      <trkpt lat="42.47973" lon="8.86439">
        <ele>900</ele>
        <time>2015-07-02T06:54:55Z</time>
      </trkpt>
      <trkpt lat="42.47973" lon="8.86438">
        <ele>899.8</ele>
        <time>2015-07-02T06:54:56Z</time>
      </trkpt>
      <trkpt lat="42.47972" lon="8.86433">
        <ele>898.8</ele>
        <time>2015-07-02T06:55:00Z</time>
      </trkpt>
      <trkpt lat="42.47968" lon="8.86427">
        <ele>897</ele>
        <time>2015-07-02T06:55:07Z</time>
      </trkpt>
      <trkpt lat="42.47964" lon="8.86425">
        <ele>896.4</ele>
        <time>2015-07-02T06:55:12Z</time>
      </trkpt>
      <trkpt lat="42.47962" lon="8.86423">
        <ele>894.4</ele>
        <time>2015-07-02T06:55:21Z</time>
      </trkpt>
      <trkpt lat="42.47961" lon="8.86421">
        <ele>894.2</ele>
        <time>2015-07-02T06:55:28Z</time>
      </trkpt>
      <trkpt lat="42.47964" lon="8.86418">
        <ele>893.4</ele>
        <time>2015-07-02T06:55:33Z</time>
      </trkpt>
      <trkpt lat="42.47967" lon="8.86417">
        <ele>892.8</ele>
        <time>2015-07-02T06:55:37Z</time>
      </trkpt>
      <trkpt lat="42.4797" lon="8.86417">
        <ele>891.4</ele>
        <time>2015-07-02T06:55:41Z</time>
      </trkpt>
      <trkpt lat="42.47974" lon="8.86415">
        <ele>890</ele>
        <time>2015-07-02T06:55:46Z</time>
      </trkpt>
      <trkpt lat="42.47978" lon="8.86414">
        <ele>888.8</ele>
        <time>2015-07-02T06:55:51Z</time>
      </trkpt>
      <trkpt lat="42.47981" lon="8.86414">
        <ele>887.8</ele>
        <time>2015-07-02T06:55:56Z</time>
      </trkpt>
      <trkpt lat="42.47985" lon="8.86413">
        <ele>886.6</ele>
        <time>2015-07-02T06:56:00Z</time>
      </trkpt>
      <trkpt lat="42.47993" lon="8.86417">
        <ele>884.8</ele>
        <time>2015-07-02T06:56:10Z</time>
      </trkpt>
      <trkpt lat="42.47999" lon="8.86423">
        <ele>884.2</ele>
        <time>2015-07-02T06:56:17Z</time>
      </trkpt>
      <trkpt lat="42.48003" lon="8.86426">
        <ele>883.6</ele>
        <time>2015-07-02T06:56:22Z</time>
      </trkpt>
      <trkpt lat="42.48005" lon="8.86428">
        <ele>882.6</ele>
        <time>2015-07-02T06:56:27Z</time>
      </trkpt>
      <trkpt lat="42.48007" lon="8.86431">
        <ele>881.4</ele>
        <time>2015-07-02T06:56:32Z</time>
      </trkpt>
      <trkpt lat="42.4801" lon="8.86434">
        <ele>880.6</ele>
        <time>2015-07-02T06:56:36Z</time>
      </trkpt>
      <trkpt lat="42.48014" lon="8.86437">
        <ele>879.6</ele>
        <time>2015-07-02T06:56:40Z</time>
      </trkpt>
      <trkpt lat="42.48018" lon="8.86437">
        <ele>878.6</ele>
        <time>2015-07-02T06:56:44Z</time>
      </trkpt>
      <trkpt lat="42.48022" lon="8.86438">
        <ele>877.4</ele>
        <time>2015-07-02T06:56:48Z</time>
      </trkpt>
      <trkpt lat="42.48025" lon="8.8644">
        <ele>876.4</ele>
        <time>2015-07-02T06:56:52Z</time>
      </trkpt>
      <trkpt lat="42.48028" lon="8.86442">
        <ele>875.4</ele>
        <time>2015-07-02T06:56:56Z</time>
      </trkpt>
      <trkpt lat="42.48035" lon="8.86446">
        <ele>873.4</ele>
        <time>2015-07-02T06:57:06Z</time>
      </trkpt>
      <trkpt lat="42.48039" lon="8.86447">
        <ele>872.8</ele>
        <time>2015-07-02T06:57:10Z</time>
      </trkpt>
      <trkpt lat="42.48043" lon="8.86447">
        <ele>872</ele>
        <time>2015-07-02T06:57:15Z</time>
      </trkpt>
      <trkpt lat="42.48045" lon="8.86448">
        <ele>871</ele>
        <time>2015-07-02T06:57:19Z</time>
      </trkpt>
      <trkpt lat="42.48047" lon="8.86448">
        <ele>870</ele>
        <time>2015-07-02T06:57:23Z</time>
      </trkpt>
      <trkpt lat="42.48049" lon="8.86447">
        <ele>868.8</ele>
        <time>2015-07-02T06:57:27Z</time>
      </trkpt>
      <trkpt lat="42.48052" lon="8.86447">
        <ele>867.8</ele>
        <time>2015-07-02T06:57:31Z</time>
      </trkpt>
      <trkpt lat="42.48057" lon="8.86451">
        <ele>865.6</ele>
        <time>2015-07-02T06:57:44Z</time>
      </trkpt>
      <trkpt lat="42.4806" lon="8.86455">
        <ele>865.6</ele>
        <time>2015-07-02T06:57:49Z</time>
      </trkpt>
      <trkpt lat="42.48073" lon="8.86464">
        <ele>865.4</ele>
        <time>2015-07-02T06:58:03Z</time>
      </trkpt>
      <trkpt lat="42.48078" lon="8.86467">
        <ele>864.6</ele>
        <time>2015-07-02T06:58:09Z</time>
      </trkpt>
      <trkpt lat="42.48084" lon="8.86468">
        <ele>864</ele>
        <time>2015-07-02T06:58:13Z</time>
      </trkpt>
      <trkpt lat="42.48089" lon="8.8647">
        <ele>862.4</ele>
        <time>2015-07-02T06:58:19Z</time>
      </trkpt>
      <trkpt lat="42.48096" lon="8.86469">
        <ele>861.2</ele>
        <time>2015-07-02T06:58:25Z</time>
      </trkpt>
      <trkpt lat="42.48101" lon="8.86469">
        <ele>860.6</ele>
        <time>2015-07-02T06:58:30Z</time>
      </trkpt>
      <trkpt lat="42.48106" lon="8.8647">
        <ele>859.2</ele>
        <time>2015-07-02T06:58:36Z</time>
      </trkpt>
      <trkpt lat="42.48113" lon="8.8647">
        <ele>858.2</ele>
        <time>2015-07-02T06:58:42Z</time>
      </trkpt>
      <trkpt lat="42.48126" lon="8.86472">
        <ele>856.4</ele>
        <time>2015-07-02T06:58:58Z</time>
      </trkpt>
      <trkpt lat="42.48128" lon="8.8647">
        <ele>856.2</ele>
        <time>2015-07-02T06:59:02Z</time>
      </trkpt>
      <trkpt lat="42.48131" lon="8.86469">
        <ele>855.2</ele>
        <time>2015-07-02T06:59:08Z</time>
      </trkpt>
      <trkpt lat="42.48138" lon="8.8647">
        <ele>854.2</ele>
        <time>2015-07-02T06:59:14Z</time>
      </trkpt>
      <trkpt lat="42.48145" lon="8.86471">
        <ele>853.2</ele>
        <time>2015-07-02T06:59:20Z</time>
      </trkpt>
      <trkpt lat="42.48153" lon="8.86471">
        <ele>851.8</ele>
        <time>2015-07-02T06:59:27Z</time>
      </trkpt>
      <trkpt lat="42.48161" lon="8.86471">
        <ele>851</ele>
        <time>2015-07-02T06:59:34Z</time>
      </trkpt>
      <trkpt lat="42.48169" lon="8.86475">
        <ele>849.8</ele>
        <time>2015-07-02T06:59:41Z</time>
      </trkpt>
      <trkpt lat="42.48181" lon="8.86482">
        <ele>848.4</ele>
        <time>2015-07-02T06:59:52Z</time>
      </trkpt>
      <trkpt lat="42.48189" lon="8.86487">
        <ele>847.8</ele>
        <time>2015-07-02T07:00:01Z</time>
      </trkpt>
      <trkpt lat="42.48202" lon="8.86486">
        <ele>846.4</ele>
        <time>2015-07-02T07:00:25Z</time>
      </trkpt>
      <trkpt lat="42.48204" lon="8.86486">
        <ele>846.4</ele>
        <time>2015-07-02T07:00:56Z</time>
      </trkpt>
      <trkpt lat="42.48201" lon="8.8649">
        <ele>846.6</ele>
        <time>2015-07-02T07:01:54Z</time>
      </trkpt>
      <trkpt lat="42.48205" lon="8.86484">
        <ele>847.2</ele>
        <time>2015-07-02T07:02:37Z</time>
      </trkpt>
      <trkpt lat="42.48206" lon="8.86484">
        <ele>846.8</ele>
        <time>2015-07-02T07:03:59Z</time>
      </trkpt>
      <trkpt lat="42.48206" lon="8.86485">
        <ele>847</ele>
        <time>2015-07-02T07:05:18Z</time>
      </trkpt>
      <trkpt lat="42.48206" lon="8.86485">
        <ele>846.4</ele>
        <time>2015-07-02T07:05:38Z</time>
      </trkpt>
      <trkpt lat="42.48205" lon="8.86482">
        <ele>846</ele>
        <time>2015-07-02T07:06:22Z</time>
      </trkpt>
      <trkpt lat="42.48203" lon="8.86485">
        <ele>846.2</ele>
        <time>2015-07-02T07:08:17Z</time>
      </trkpt>
      <trkpt lat="42.48201" lon="8.86486">
        <ele>845.6</ele>
        <time>2015-07-02T07:08:50Z</time>
      </trkpt>
      <trkpt lat="42.48204" lon="8.86488">
        <ele>846</ele>
        <time>2015-07-02T07:09:50Z</time>
      </trkpt>
      <trkpt lat="42.48205" lon="8.86512">
        <ele>845.6</ele>
        <time>2015-07-02T07:10:29Z</time>
      </trkpt>
      <trkpt lat="42.48206" lon="8.86518">
        <ele>845.2</ele>
        <time>2015-07-02T07:10:35Z</time>
      </trkpt>
      <trkpt lat="42.48208" lon="8.86526">
        <ele>844</ele>
        <time>2015-07-02T07:10:42Z</time>
      </trkpt>
      <trkpt lat="42.48208" lon="8.86531">
        <ele>843</ele>
        <time>2015-07-02T07:10:49Z</time>
      </trkpt>
      <trkpt lat="42.4821" lon="8.86534">
        <ele>842.6</ele>
        <time>2015-07-02T07:10:53Z</time>
      </trkpt>
      <trkpt lat="42.48213" lon="8.86533">
        <ele>841.4</ele>
        <time>2015-07-02T07:10:58Z</time>
      </trkpt>
      <trkpt lat="42.48217" lon="8.86531">
        <ele>840.2</ele>
        <time>2015-07-02T07:11:03Z</time>
      </trkpt>
      <trkpt lat="42.48219" lon="8.86531">
        <ele>839.2</ele>
        <time>2015-07-02T07:11:08Z</time>
      </trkpt>
      <trkpt lat="42.48221" lon="8.86532">
        <ele>838.2</ele>
        <time>2015-07-02T07:11:12Z</time>
      </trkpt>
      <trkpt lat="42.48224" lon="8.86533">
        <ele>837.2</ele>
        <time>2015-07-02T07:11:16Z</time>
      </trkpt>
      <trkpt lat="42.48228" lon="8.86531">
        <ele>836</ele>
        <time>2015-07-02T07:11:21Z</time>
      </trkpt>
      <trkpt lat="42.48231" lon="8.86528">
        <ele>835</ele>
        <time>2015-07-02T07:11:25Z</time>
      </trkpt>
      <trkpt lat="42.48233" lon="8.86522">
        <ele>833.2</ele>
        <time>2015-07-02T07:11:32Z</time>
      </trkpt>
      <trkpt lat="42.48234" lon="8.86516">
        <ele>832.4</ele>
        <time>2015-07-02T07:11:38Z</time>
      </trkpt>
      <trkpt lat="42.48239" lon="8.86508">
        <ele>831</ele>
        <time>2015-07-02T07:11:45Z</time>
      </trkpt>
      <trkpt lat="42.4824" lon="8.86507">
        <ele>830.8</ele>
        <time>2015-07-02T07:11:47Z</time>
      </trkpt>
      <trkpt lat="42.48243" lon="8.86507">
        <ele>830.4</ele>
        <time>2015-07-02T07:11:49Z</time>
      </trkpt>
      <trkpt lat="42.48245" lon="8.8651">
        <ele>829.4</ele>
        <time>2015-07-02T07:11:53Z</time>
      </trkpt>
      <trkpt lat="42.48246" lon="8.86512">
        <ele>829</ele>
        <time>2015-07-02T07:11:55Z</time>
      </trkpt>
      <trkpt lat="42.48246" lon="8.86514">
        <ele>828.2</ele>
        <time>2015-07-02T07:11:58Z</time>
      </trkpt>
      <trkpt lat="42.48245" lon="8.86519">
        <ele>827.6</ele>
        <time>2015-07-02T07:12:02Z</time>
      </trkpt>
      <trkpt lat="42.48244" lon="8.86527">
        <ele>826.6</ele>
        <time>2015-07-02T07:12:09Z</time>
      </trkpt>
      <trkpt lat="42.48245" lon="8.86528">
        <ele>826.2</ele>
        <time>2015-07-02T07:12:10Z</time>
      </trkpt>
      <trkpt lat="42.48248" lon="8.8653">
        <ele>825.6</ele>
        <time>2015-07-02T07:12:16Z</time>
      </trkpt>
      <trkpt lat="42.4825" lon="8.86535">
        <ele>824</ele>
        <time>2015-07-02T07:12:25Z</time>
      </trkpt>
      <trkpt lat="42.48247" lon="8.86537">
        <ele>823.6</ele>
        <time>2015-07-02T07:12:29Z</time>
      </trkpt>
      <trkpt lat="42.48246" lon="8.86543">
        <ele>822.6</ele>
        <time>2015-07-02T07:12:34Z</time>
      </trkpt>
      <trkpt lat="42.48269" lon="8.8656">
        <ele>821.2</ele>
        <time>2015-07-02T07:13:33Z</time>
      </trkpt>
      <trkpt lat="42.48273" lon="8.86558">
        <ele>820.2</ele>
        <time>2015-07-02T07:13:41Z</time>
      </trkpt>
      <trkpt lat="42.48279" lon="8.86558">
        <ele>819.2</ele>
        <time>2015-07-02T07:13:48Z</time>
      </trkpt>
      <trkpt lat="42.48282" lon="8.86554">
        <ele>818.4</ele>
        <time>2015-07-02T07:13:55Z</time>
      </trkpt>
      <trkpt lat="42.48281" lon="8.86549">
        <ele>817.4</ele>
        <time>2015-07-02T07:14:01Z</time>
      </trkpt>
      <trkpt lat="42.48281" lon="8.86547">
        <ele>816.8</ele>
        <time>2015-07-02T07:14:05Z</time>
      </trkpt>
      <trkpt lat="42.48283" lon="8.86544">
        <ele>816</ele>
        <time>2015-07-02T07:14:09Z</time>
      </trkpt>
      <trkpt lat="42.48285" lon="8.8654">
        <ele>814.8</ele>
        <time>2015-07-02T07:14:13Z</time>
      </trkpt>
      <trkpt lat="42.48288" lon="8.86538">
        <ele>813.6</ele>
        <time>2015-07-02T07:14:17Z</time>
      </trkpt>
      <trkpt lat="42.48289" lon="8.86534">
        <ele>811.8</ele>
        <time>2015-07-02T07:14:23Z</time>
      </trkpt>
      <trkpt lat="42.48291" lon="8.86531">
        <ele>811</ele>
        <time>2015-07-02T07:14:28Z</time>
      </trkpt>
      <trkpt lat="42.48293" lon="8.86526">
        <ele>809.6</ele>
        <time>2015-07-02T07:14:34Z</time>
      </trkpt>
      <trkpt lat="42.48296" lon="8.86522">
        <ele>809.2</ele>
        <time>2015-07-02T07:14:38Z</time>
      </trkpt>
      <trkpt lat="42.48301" lon="8.86519">
        <ele>807.4</ele>
        <time>2015-07-02T07:14:44Z</time>
      </trkpt>
      <trkpt lat="42.48315" lon="8.86524">
        <ele>806</ele>
        <time>2015-07-02T07:15:01Z</time>
      </trkpt>
      <trkpt lat="42.48318" lon="8.86526">
        <ele>805.6</ele>
        <time>2015-07-02T07:15:05Z</time>
      </trkpt>
      <trkpt lat="42.48319" lon="8.86528">
        <ele>805.2</ele>
        <time>2015-07-02T07:15:07Z</time>
      </trkpt>
      <trkpt lat="42.48322" lon="8.86529">
        <ele>803.8</ele>
        <time>2015-07-02T07:15:16Z</time>
      </trkpt>
      <trkpt lat="42.48324" lon="8.86525">
        <ele>802.8</ele>
        <time>2015-07-02T07:15:26Z</time>
      </trkpt>
      <trkpt lat="42.4833" lon="8.86522">
        <ele>801.2</ele>
        <time>2015-07-02T07:15:36Z</time>
      </trkpt>
      <trkpt lat="42.48333" lon="8.86515">
        <ele>800.8</ele>
        <time>2015-07-02T07:15:42Z</time>
      </trkpt>
      <trkpt lat="42.48334" lon="8.86512">
        <ele>800.4</ele>
        <time>2015-07-02T07:15:45Z</time>
      </trkpt>
      <trkpt lat="42.48334" lon="8.86512">
        <ele>800.2</ele>
        <time>2015-07-02T07:15:46Z</time>
      </trkpt>
      <trkpt lat="42.48338" lon="8.86506">
        <ele>799</ele>
        <time>2015-07-02T07:15:52Z</time>
      </trkpt>
      <trkpt lat="42.48339" lon="8.86505">
        <ele>798.6</ele>
        <time>2015-07-02T07:15:53Z</time>
      </trkpt>
      <trkpt lat="42.48343" lon="8.865">
        <ele>797.4</ele>
        <time>2015-07-02T07:16:00Z</time>
      </trkpt>
      <trkpt lat="42.48348" lon="8.86499">
        <ele>797</ele>
        <time>2015-07-02T07:16:04Z</time>
      </trkpt>
      <trkpt lat="42.4835" lon="8.865">
        <ele>796.6</ele>
        <time>2015-07-02T07:16:07Z</time>
      </trkpt>
      <trkpt lat="42.48353" lon="8.86498">
        <ele>796.4</ele>
        <time>2015-07-02T07:16:10Z</time>
      </trkpt>
      <trkpt lat="42.48356" lon="8.86493">
        <ele>795.4</ele>
        <time>2015-07-02T07:16:17Z</time>
      </trkpt>
      <trkpt lat="42.4836" lon="8.86491">
        <ele>794.4</ele>
        <time>2015-07-02T07:16:24Z</time>
      </trkpt>
      <trkpt lat="42.48362" lon="8.86487">
        <ele>793.4</ele>
        <time>2015-07-02T07:16:31Z</time>
      </trkpt>
      <trkpt lat="42.48364" lon="8.86482">
        <ele>792.6</ele>
        <time>2015-07-02T07:16:36Z</time>
      </trkpt>
      <trkpt lat="42.4837" lon="8.86479">
        <ele>791.2</ele>
        <time>2015-07-02T07:16:42Z</time>
      </trkpt>
      <trkpt lat="42.48374" lon="8.86476">
        <ele>790</ele>
        <time>2015-07-02T07:16:50Z</time>
      </trkpt>
      <trkpt lat="42.48378" lon="8.86473">
        <ele>789.2</ele>
        <time>2015-07-02T07:16:57Z</time>
      </trkpt>
      <trkpt lat="42.48386" lon="8.86467">
        <ele>787.8</ele>
        <time>2015-07-02T07:17:07Z</time>
      </trkpt>
      <trkpt lat="42.48396" lon="8.8646">
        <ele>786.8</ele>
        <time>2015-07-02T07:17:18Z</time>
      </trkpt>
      <trkpt lat="42.48405" lon="8.86456">
        <ele>786</ele>
        <time>2015-07-02T07:17:27Z</time>
      </trkpt>
      <trkpt lat="42.48411" lon="8.86455">
        <ele>785.6</ele>
        <time>2015-07-02T07:17:38Z</time>
      </trkpt>
      <trkpt lat="42.48416" lon="8.86449">
        <ele>785</ele>
        <time>2015-07-02T07:17:47Z</time>
      </trkpt>
      <trkpt lat="42.48414" lon="8.86447">
        <ele>784.2</ele>
        <time>2015-07-02T07:17:53Z</time>
      </trkpt>
      <trkpt lat="42.48419" lon="8.86442">
        <ele>783</ele>
        <time>2015-07-02T07:18:01Z</time>
      </trkpt>
      <trkpt lat="42.48422" lon="8.86436">
        <ele>781.8</ele>
        <time>2015-07-02T07:18:08Z</time>
      </trkpt>
      <trkpt lat="42.48428" lon="8.86435">
        <ele>780.8</ele>
        <time>2015-07-02T07:18:15Z</time>
      </trkpt>
      <trkpt lat="42.48431" lon="8.86431">
        <ele>779.8</ele>
        <time>2015-07-02T07:18:21Z</time>
      </trkpt>
      <trkpt lat="42.48435" lon="8.86428">
        <ele>779.2</ele>
        <time>2015-07-02T07:18:26Z</time>
      </trkpt>
      <trkpt lat="42.48438" lon="8.86425">
        <ele>777.6</ele>
        <time>2015-07-02T07:18:33Z</time>
      </trkpt>
      <trkpt lat="42.4844" lon="8.86423">
        <ele>776.8</ele>
        <time>2015-07-02T07:18:40Z</time>
      </trkpt>
      <trkpt lat="42.48443" lon="8.86422">
        <ele>776</ele>
        <time>2015-07-02T07:18:45Z</time>
      </trkpt>
      <trkpt lat="42.48446" lon="8.86419">
        <ele>775.2</ele>
        <time>2015-07-02T07:18:50Z</time>
      </trkpt>
      <trkpt lat="42.4845" lon="8.86416">
        <ele>773.6</ele>
        <time>2015-07-02T07:18:57Z</time>
      </trkpt>
      <trkpt lat="42.48453" lon="8.86414">
        <ele>772.8</ele>
        <time>2015-07-02T07:19:02Z</time>
      </trkpt>
      <trkpt lat="42.48458" lon="8.86411">
        <ele>771.6</ele>
        <time>2015-07-02T07:19:08Z</time>
      </trkpt>
      <trkpt lat="42.48462" lon="8.8641">
        <ele>770.6</ele>
        <time>2015-07-02T07:19:13Z</time>
      </trkpt>
      <trkpt lat="42.48466" lon="8.86411">
        <ele>769.4</ele>
        <time>2015-07-02T07:19:19Z</time>
      </trkpt>
      <trkpt lat="42.4847" lon="8.86413">
        <ele>768.4</ele>
        <time>2015-07-02T07:19:24Z</time>
      </trkpt>
      <trkpt lat="42.48475" lon="8.86412">
        <ele>767.4</ele>
        <time>2015-07-02T07:19:30Z</time>
      </trkpt>
      <trkpt lat="42.48481" lon="8.86408">
        <ele>766.4</ele>
        <time>2015-07-02T07:19:37Z</time>
      </trkpt>
      <trkpt lat="42.48486" lon="8.86404">
        <ele>765</ele>
        <time>2015-07-02T07:19:44Z</time>
      </trkpt>
      <trkpt lat="42.48493" lon="8.86398">
        <ele>764</ele>
        <time>2015-07-02T07:19:52Z</time>
      </trkpt>
      <trkpt lat="42.48498" lon="8.86393">
        <ele>763</ele>
        <time>2015-07-02T07:20:00Z</time>
      </trkpt>
      <trkpt lat="42.48504" lon="8.86388">
        <ele>762</ele>
        <time>2015-07-02T07:20:08Z</time>
      </trkpt>
      <trkpt lat="42.4851" lon="8.86382">
        <ele>761</ele>
        <time>2015-07-02T07:20:16Z</time>
      </trkpt>
      <trkpt lat="42.48515" lon="8.86374">
        <ele>759.6</ele>
        <time>2015-07-02T07:20:25Z</time>
      </trkpt>
      <trkpt lat="42.48518" lon="8.8637">
        <ele>759.2</ele>
        <time>2015-07-02T07:20:32Z</time>
      </trkpt>
      <trkpt lat="42.48516" lon="8.86366">
        <ele>758.4</ele>
        <time>2015-07-02T07:20:37Z</time>
      </trkpt>
      <trkpt lat="42.48521" lon="8.86359">
        <ele>756.8</ele>
        <time>2015-07-02T07:20:47Z</time>
      </trkpt>
      <trkpt lat="42.48525" lon="8.86356">
        <ele>755.8</ele>
        <time>2015-07-02T07:20:55Z</time>
      </trkpt>
      <trkpt lat="42.48528" lon="8.86349">
        <ele>754.8</ele>
        <time>2015-07-02T07:21:03Z</time>
      </trkpt>
      <trkpt lat="42.48532" lon="8.86341">
        <ele>753.6</ele>
        <time>2015-07-02T07:21:12Z</time>
      </trkpt>
      <trkpt lat="42.48532" lon="8.86333">
        <ele>752.8</ele>
        <time>2015-07-02T07:21:19Z</time>
      </trkpt>
      <trkpt lat="42.48532" lon="8.86326">
        <ele>751.8</ele>
        <time>2015-07-02T07:21:26Z</time>
      </trkpt>
      <trkpt lat="42.48533" lon="8.86321">
        <ele>751</ele>
        <time>2015-07-02T07:21:32Z</time>
      </trkpt>
      <trkpt lat="42.48535" lon="8.86314">
        <ele>749.8</ele>
        <time>2015-07-02T07:21:39Z</time>
      </trkpt>
      <trkpt lat="42.48535" lon="8.86309">
        <ele>748.8</ele>
        <time>2015-07-02T07:21:45Z</time>
      </trkpt>
      <trkpt lat="42.48537" lon="8.86301">
        <ele>747.6</ele>
        <time>2015-07-02T07:21:52Z</time>
      </trkpt>
      <trkpt lat="42.48539" lon="8.86295">
        <ele>746.8</ele>
        <time>2015-07-02T07:21:58Z</time>
      </trkpt>
      <trkpt lat="42.48543" lon="8.86287">
        <ele>745.4</ele>
        <time>2015-07-02T07:22:06Z</time>
      </trkpt>
      <trkpt lat="42.48545" lon="8.86281">
        <ele>744.6</ele>
        <time>2015-07-02T07:22:12Z</time>
      </trkpt>
      <trkpt lat="42.48546" lon="8.86276">
        <ele>743.8</ele>
        <time>2015-07-02T07:22:17Z</time>
      </trkpt>
      <trkpt lat="42.48549" lon="8.86269">
        <ele>742.4</ele>
        <time>2015-07-02T07:22:24Z</time>
      </trkpt>
      <trkpt lat="42.48553" lon="8.86263">
        <ele>741.4</ele>
        <time>2015-07-02T07:22:35Z</time>
      </trkpt>
      <trkpt lat="42.48557" lon="8.86257">
        <ele>740.6</ele>
        <time>2015-07-02T07:22:42Z</time>
      </trkpt>
      <trkpt lat="42.48559" lon="8.86255">
        <ele>740.6</ele>
        <time>2015-07-02T07:22:44Z</time>
      </trkpt>
      <trkpt lat="42.48563" lon="8.8625">
        <ele>740.6</ele>
        <time>2015-07-02T07:22:49Z</time>
      </trkpt>
      <trkpt lat="42.48569" lon="8.86244">
        <ele>740.6</ele>
        <time>2015-07-02T07:22:57Z</time>
      </trkpt>
      <trkpt lat="42.48575" lon="8.86234">
        <ele>740.4</ele>
        <time>2015-07-02T07:23:06Z</time>
      </trkpt>
      <trkpt lat="42.48582" lon="8.86221">
        <ele>739.6</ele>
        <time>2015-07-02T07:23:16Z</time>
      </trkpt>
      <trkpt lat="42.48584" lon="8.86218">
        <ele>739.4</ele>
        <time>2015-07-02T07:23:19Z</time>
      </trkpt>
      <trkpt lat="42.48585" lon="8.86213">
        <ele>738.8</ele>
        <time>2015-07-02T07:23:23Z</time>
      </trkpt>
      <trkpt lat="42.4859" lon="8.86209">
        <ele>738</ele>
        <time>2015-07-02T07:23:28Z</time>
      </trkpt>
      <trkpt lat="42.48596" lon="8.86201">
        <ele>736.6</ele>
        <time>2015-07-02T07:23:36Z</time>
      </trkpt>
      <trkpt lat="42.48604" lon="8.86193">
        <ele>735.6</ele>
        <time>2015-07-02T07:23:47Z</time>
      </trkpt>
      <trkpt lat="42.48607" lon="8.86189">
        <ele>735</ele>
        <time>2015-07-02T07:23:52Z</time>
      </trkpt>
      <trkpt lat="42.48611" lon="8.86185">
        <ele>733.6</ele>
        <time>2015-07-02T07:23:58Z</time>
      </trkpt>
      <trkpt lat="42.48617" lon="8.86179">
        <ele>732.4</ele>
        <time>2015-07-02T07:24:05Z</time>
      </trkpt>
      <trkpt lat="42.48623" lon="8.86175">
        <ele>731.8</ele>
        <time>2015-07-02T07:24:11Z</time>
      </trkpt>
      <trkpt lat="42.48634" lon="8.86165">
        <ele>730.2</ele>
        <time>2015-07-02T07:24:24Z</time>
      </trkpt>
      <trkpt lat="42.48641" lon="8.86157">
        <ele>729.6</ele>
        <time>2015-07-02T07:24:32Z</time>
      </trkpt>
      <trkpt lat="42.48648" lon="8.86143">
        <ele>728.4</ele>
        <time>2015-07-02T07:24:44Z</time>
      </trkpt>
      <trkpt lat="42.48649" lon="8.8614">
        <ele>728.2</ele>
        <time>2015-07-02T07:24:46Z</time>
      </trkpt>
      <trkpt lat="42.4865" lon="8.86138">
        <ele>728.2</ele>
        <time>2015-07-02T07:24:48Z</time>
      </trkpt>
      <trkpt lat="42.48656" lon="8.8612">
        <ele>727.4</ele>
        <time>2015-07-02T07:25:01Z</time>
      </trkpt>
      <trkpt lat="42.48659" lon="8.86112">
        <ele>727.2</ele>
        <time>2015-07-02T07:25:07Z</time>
      </trkpt>
      <trkpt lat="42.4866" lon="8.8611">
        <ele>727.2</ele>
        <time>2015-07-02T07:25:09Z</time>
      </trkpt>
      <trkpt lat="42.48669" lon="8.86102">
        <ele>727.2</ele>
        <time>2015-07-02T07:25:25Z</time>
      </trkpt>
      <trkpt lat="42.48672" lon="8.86096">
        <ele>726.2</ele>
        <time>2015-07-02T07:25:32Z</time>
      </trkpt>
      <trkpt lat="42.48675" lon="8.86089">
        <ele>725</ele>
        <time>2015-07-02T07:25:39Z</time>
      </trkpt>
      <trkpt lat="42.4868" lon="8.86077">
        <ele>723.8</ele>
        <time>2015-07-02T07:25:50Z</time>
      </trkpt>
      <trkpt lat="42.4868" lon="8.86075">
        <ele>723.6</ele>
        <time>2015-07-02T07:25:52Z</time>
      </trkpt>
      <trkpt lat="42.4868" lon="8.86071">
        <ele>723.2</ele>
        <time>2015-07-02T07:25:58Z</time>
      </trkpt>
      <trkpt lat="42.48684" lon="8.86065">
        <ele>721.6</ele>
        <time>2015-07-02T07:26:07Z</time>
      </trkpt>
      <trkpt lat="42.48685" lon="8.86058">
        <ele>721.2</ele>
        <time>2015-07-02T07:26:12Z</time>
      </trkpt>
      <trkpt lat="42.48691" lon="8.86049">
        <ele>719.6</ele>
        <time>2015-07-02T07:26:21Z</time>
      </trkpt>
      <trkpt lat="42.48692" lon="8.86048">
        <ele>719.4</ele>
        <time>2015-07-02T07:26:22Z</time>
      </trkpt>
      <trkpt lat="42.48696" lon="8.8604">
        <ele>719.2</ele>
        <time>2015-07-02T07:26:29Z</time>
      </trkpt>
      <trkpt lat="42.487" lon="8.8603">
        <ele>718.6</ele>
        <time>2015-07-02T07:26:39Z</time>
      </trkpt>
      <trkpt lat="42.487" lon="8.86029">
        <ele>718.6</ele>
        <time>2015-07-02T07:26:40Z</time>
      </trkpt>
      <trkpt lat="42.48701" lon="8.86028">
        <ele>718.6</ele>
        <time>2015-07-02T07:26:41Z</time>
      </trkpt>
      <trkpt lat="42.4871" lon="8.86011">
        <ele>718.2</ele>
        <time>2015-07-02T07:26:57Z</time>
      </trkpt>
      <trkpt lat="42.48716" lon="8.86005">
        <ele>716.6</ele>
        <time>2015-07-02T07:27:17Z</time>
      </trkpt>
      <trkpt lat="42.4872" lon="8.86">
        <ele>716.4</ele>
        <time>2015-07-02T07:27:22Z</time>
      </trkpt>
      <trkpt lat="42.48724" lon="8.85997">
        <ele>715.8</ele>
        <time>2015-07-02T07:27:26Z</time>
      </trkpt>
      <trkpt lat="42.48745" lon="8.86004">
        <ele>715.2</ele>
        <time>2015-07-02T07:27:55Z</time>
      </trkpt>
      <trkpt lat="42.48747" lon="8.86007">
        <ele>715.6</ele>
        <time>2015-07-02T07:28:02Z</time>
      </trkpt>
      <trkpt lat="42.48758" lon="8.86006">
        <ele>716</ele>
        <time>2015-07-02T07:28:17Z</time>
      </trkpt>
      <trkpt lat="42.48798" lon="8.85987">
        <ele>716.2</ele>
        <time>2015-07-02T07:29:01Z</time>
      </trkpt>
      <trkpt lat="42.48804" lon="8.85982">
        <ele>716.2</ele>
        <time>2015-07-02T07:29:08Z</time>
      </trkpt>
      <trkpt lat="42.48807" lon="8.8598">
        <ele>716.2</ele>
        <time>2015-07-02T07:29:12Z</time>
      </trkpt>
      <trkpt lat="42.48811" lon="8.85976">
        <ele>716.4</ele>
        <time>2015-07-02T07:29:18Z</time>
      </trkpt>
      <trkpt lat="42.48846" lon="8.85956">
        <ele>716.4</ele>
        <time>2015-07-02T07:29:53Z</time>
      </trkpt>
      <trkpt lat="42.48874" lon="8.85951">
        <ele>715.8</ele>
        <time>2015-07-02T07:30:21Z</time>
      </trkpt>
      <trkpt lat="42.48883" lon="8.85943">
        <ele>715.2</ele>
        <time>2015-07-02T07:30:31Z</time>
      </trkpt>
      <trkpt lat="42.48885" lon="8.85941">
        <ele>715.2</ele>
        <time>2015-07-02T07:30:33Z</time>
      </trkpt>
      <trkpt lat="42.48892" lon="8.85938">
        <ele>715</ele>
        <time>2015-07-02T07:30:40Z</time>
      </trkpt>
      <trkpt lat="42.48925" lon="8.8594">
        <ele>715.4</ele>
        <time>2015-07-02T07:31:10Z</time>
      </trkpt>
      <trkpt lat="42.48931" lon="8.85941">
        <ele>715</ele>
        <time>2015-07-02T07:31:16Z</time>
      </trkpt>
      <trkpt lat="42.48975" lon="8.8595">
        <ele>715.2</ele>
        <time>2015-07-02T07:31:53Z</time>
      </trkpt>
      <trkpt lat="42.4898" lon="8.8595">
        <ele>715.2</ele>
        <time>2015-07-02T07:31:57Z</time>
      </trkpt>
      <trkpt lat="42.48993" lon="8.85944">
        <ele>714.8</ele>
        <time>2015-07-02T07:32:09Z</time>
      </trkpt>
      <trkpt lat="42.48997" lon="8.85941">
        <ele>714.6</ele>
        <time>2015-07-02T07:32:13Z</time>
      </trkpt>
      <trkpt lat="42.49001" lon="8.85938">
        <ele>714.4</ele>
        <time>2015-07-02T07:32:17Z</time>
      </trkpt>
      <trkpt lat="42.49004" lon="8.85938">
        <ele>714.2</ele>
        <time>2015-07-02T07:32:21Z</time>
      </trkpt>
      <trkpt lat="42.49013" lon="8.85929">
        <ele>713.8</ele>
        <time>2015-07-02T07:32:31Z</time>
      </trkpt>
      <trkpt lat="42.49033" lon="8.85903">
        <ele>713</ele>
        <time>2015-07-02T07:32:55Z</time>
      </trkpt>
      <trkpt lat="42.49039" lon="8.85893">
        <ele>713.2</ele>
        <time>2015-07-02T07:33:05Z</time>
      </trkpt>
      <trkpt lat="42.49044" lon="8.85884">
        <ele>714.2</ele>
        <time>2015-07-02T07:33:17Z</time>
      </trkpt>
      <trkpt lat="42.49049" lon="8.85872">
        <ele>715.2</ele>
        <time>2015-07-02T07:33:40Z</time>
      </trkpt>
      <trkpt lat="42.49055" lon="8.85865">
        <ele>713.8</ele>
        <time>2015-07-02T07:33:47Z</time>
      </trkpt>
      <trkpt lat="42.49064" lon="8.85857">
        <ele>712.6</ele>
        <time>2015-07-02T07:33:57Z</time>
      </trkpt>
      <trkpt lat="42.49068" lon="8.85854">
        <ele>712.2</ele>
        <time>2015-07-02T07:34:02Z</time>
      </trkpt>
      <trkpt lat="42.49072" lon="8.85854">
        <ele>711.8</ele>
        <time>2015-07-02T07:34:09Z</time>
      </trkpt>
      <trkpt lat="42.49075" lon="8.85855">
        <ele>711.2</ele>
        <time>2015-07-02T07:34:14Z</time>
      </trkpt>
      <trkpt lat="42.49079" lon="8.85853">
        <ele>710.2</ele>
        <time>2015-07-02T07:34:19Z</time>
      </trkpt>
      <trkpt lat="42.49084" lon="8.85851">
        <ele>709</ele>
        <time>2015-07-02T07:34:24Z</time>
      </trkpt>
      <trkpt lat="42.49087" lon="8.85848">
        <ele>707.8</ele>
        <time>2015-07-02T07:34:29Z</time>
      </trkpt>
      <trkpt lat="42.4909" lon="8.85843">
        <ele>706.4</ele>
        <time>2015-07-02T07:34:37Z</time>
      </trkpt>
      <trkpt lat="42.49093" lon="8.85841">
        <ele>705.2</ele>
        <time>2015-07-02T07:34:45Z</time>
      </trkpt>
      <trkpt lat="42.49095" lon="8.85842">
        <ele>704.6</ele>
        <time>2015-07-02T07:34:49Z</time>
      </trkpt>
      <trkpt lat="42.49098" lon="8.85843">
        <ele>703.2</ele>
        <time>2015-07-02T07:34:55Z</time>
      </trkpt>
      <trkpt lat="42.49101" lon="8.85843">
        <ele>702.4</ele>
        <time>2015-07-02T07:35:00Z</time>
      </trkpt>
      <trkpt lat="42.49104" lon="8.85845">
        <ele>701.4</ele>
        <time>2015-07-02T07:35:04Z</time>
      </trkpt>
      <trkpt lat="42.49108" lon="8.85847">
        <ele>700.6</ele>
        <time>2015-07-02T07:35:08Z</time>
      </trkpt>
      <trkpt lat="42.49112" lon="8.8585">
        <ele>699.2</ele>
        <time>2015-07-02T07:35:13Z</time>
      </trkpt>
      <trkpt lat="42.49116" lon="8.8585">
        <ele>698</ele>
        <time>2015-07-02T07:35:19Z</time>
      </trkpt>
      <trkpt lat="42.49121" lon="8.85848">
        <ele>696.6</ele>
        <time>2015-07-02T07:35:26Z</time>
      </trkpt>
      <trkpt lat="42.49125" lon="8.85845">
        <ele>696</ele>
        <time>2015-07-02T07:35:31Z</time>
      </trkpt>
      <trkpt lat="42.4913" lon="8.85845">
        <ele>694.6</ele>
        <time>2015-07-02T07:35:37Z</time>
      </trkpt>
      <trkpt lat="42.49136" lon="8.85841">
        <ele>693.4</ele>
        <time>2015-07-02T07:35:47Z</time>
      </trkpt>
      <trkpt lat="42.4914" lon="8.85836">
        <ele>692.6</ele>
        <time>2015-07-02T07:35:53Z</time>
      </trkpt>
      <trkpt lat="42.49144" lon="8.85831">
        <ele>691.2</ele>
        <time>2015-07-02T07:36:01Z</time>
      </trkpt>
      <trkpt lat="42.4915" lon="8.85828">
        <ele>690.2</ele>
        <time>2015-07-02T07:36:10Z</time>
      </trkpt>
      <trkpt lat="42.49154" lon="8.85825">
        <ele>689.4</ele>
        <time>2015-07-02T07:36:17Z</time>
      </trkpt>
      <trkpt lat="42.49159" lon="8.85821">
        <ele>688.4</ele>
        <time>2015-07-02T07:36:25Z</time>
      </trkpt>
      <trkpt lat="42.49167" lon="8.85814">
        <ele>687.2</ele>
        <time>2015-07-02T07:36:36Z</time>
      </trkpt>
      <trkpt lat="42.49167" lon="8.85812">
        <ele>687.2</ele>
        <time>2015-07-02T07:36:37Z</time>
      </trkpt>
      <trkpt lat="42.49168" lon="8.85808">
        <ele>686.8</ele>
        <time>2015-07-02T07:36:41Z</time>
      </trkpt>
      <trkpt lat="42.49168" lon="8.85802">
        <ele>685.4</ele>
        <time>2015-07-02T07:36:48Z</time>
      </trkpt>
      <trkpt lat="42.4917" lon="8.85796">
        <ele>684.6</ele>
        <time>2015-07-02T07:36:55Z</time>
      </trkpt>
      <trkpt lat="42.49174" lon="8.85793">
        <ele>683.6</ele>
        <time>2015-07-02T07:37:00Z</time>
      </trkpt>
      <trkpt lat="42.49177" lon="8.85785">
        <ele>682</ele>
        <time>2015-07-02T07:37:08Z</time>
      </trkpt>
      <trkpt lat="42.49179" lon="8.85779">
        <ele>681</ele>
        <time>2015-07-02T07:37:15Z</time>
      </trkpt>
      <trkpt lat="42.49181" lon="8.85774">
        <ele>680.4</ele>
        <time>2015-07-02T07:37:20Z</time>
      </trkpt>
      <trkpt lat="42.49183" lon="8.85769">
        <ele>679</ele>
        <time>2015-07-02T07:37:26Z</time>
      </trkpt>
      <trkpt lat="42.49185" lon="8.85764">
        <ele>678.2</ele>
        <time>2015-07-02T07:37:31Z</time>
      </trkpt>
      <trkpt lat="42.49188" lon="8.85757">
        <ele>676.6</ele>
        <time>2015-07-02T07:37:39Z</time>
      </trkpt>
      <trkpt lat="42.49191" lon="8.8575">
        <ele>675.6</ele>
        <time>2015-07-02T07:37:47Z</time>
      </trkpt>
      <trkpt lat="42.49195" lon="8.85747">
        <ele>674.6</ele>
        <time>2015-07-02T07:37:55Z</time>
      </trkpt>
      <trkpt lat="42.49198" lon="8.85744">
        <ele>673.8</ele>
        <time>2015-07-02T07:38:02Z</time>
      </trkpt>
      <trkpt lat="42.49201" lon="8.8574">
        <ele>672.8</ele>
        <time>2015-07-02T07:38:08Z</time>
      </trkpt>
      <trkpt lat="42.49205" lon="8.85736">
        <ele>671.8</ele>
        <time>2015-07-02T07:38:13Z</time>
      </trkpt>
      <trkpt lat="42.49208" lon="8.85732">
        <ele>670.8</ele>
        <time>2015-07-02T07:38:18Z</time>
      </trkpt>
      <trkpt lat="42.4921" lon="8.85729">
        <ele>670</ele>
        <time>2015-07-02T07:38:22Z</time>
      </trkpt>
      <trkpt lat="42.4921" lon="8.85726">
        <ele>669.6</ele>
        <time>2015-07-02T07:38:24Z</time>
      </trkpt>
      <trkpt lat="42.4921" lon="8.85719">
        <ele>668.8</ele>
        <time>2015-07-02T07:38:30Z</time>
      </trkpt>
      <trkpt lat="42.49214" lon="8.85711">
        <ele>667.2</ele>
        <time>2015-07-02T07:38:38Z</time>
      </trkpt>
      <trkpt lat="42.49215" lon="8.85704">
        <ele>666.6</ele>
        <time>2015-07-02T07:38:44Z</time>
      </trkpt>
      <trkpt lat="42.49215" lon="8.85691">
        <ele>665.2</ele>
        <time>2015-07-02T07:38:53Z</time>
      </trkpt>
      <trkpt lat="42.49215" lon="8.8569">
        <ele>665</ele>
        <time>2015-07-02T07:38:54Z</time>
      </trkpt>
      <trkpt lat="42.49214" lon="8.85681">
        <ele>664.6</ele>
        <time>2015-07-02T07:39:00Z</time>
      </trkpt>
      <trkpt lat="42.49214" lon="8.85679">
        <ele>664.4</ele>
        <time>2015-07-02T07:39:02Z</time>
      </trkpt>
      <trkpt lat="42.4922" lon="8.8567">
        <ele>663.2</ele>
        <time>2015-07-02T07:39:11Z</time>
      </trkpt>
      <trkpt lat="42.49222" lon="8.8566">
        <ele>662.8</ele>
        <time>2015-07-02T07:39:18Z</time>
      </trkpt>
      <trkpt lat="42.49224" lon="8.85658">
        <ele>662.2</ele>
        <time>2015-07-02T07:39:20Z</time>
      </trkpt>
      <trkpt lat="42.49228" lon="8.85648">
        <ele>661.4</ele>
        <time>2015-07-02T07:39:31Z</time>
      </trkpt>
      <trkpt lat="42.4923" lon="8.8564">
        <ele>660.6</ele>
        <time>2015-07-02T07:39:37Z</time>
      </trkpt>
      <trkpt lat="42.49232" lon="8.85632">
        <ele>659.6</ele>
        <time>2015-07-02T07:39:43Z</time>
      </trkpt>
      <trkpt lat="42.49236" lon="8.85626">
        <ele>658.6</ele>
        <time>2015-07-02T07:39:50Z</time>
      </trkpt>
      <trkpt lat="42.49236" lon="8.85623">
        <ele>658.4</ele>
        <time>2015-07-02T07:39:52Z</time>
      </trkpt>
      <trkpt lat="42.49237" lon="8.85623">
        <ele>658.4</ele>
        <time>2015-07-02T07:39:53Z</time>
      </trkpt>
      <trkpt lat="42.4924" lon="8.85617">
        <ele>657.8</ele>
        <time>2015-07-02T07:39:59Z</time>
      </trkpt>
      <trkpt lat="42.49243" lon="8.85612">
        <ele>657.4</ele>
        <time>2015-07-02T07:40:03Z</time>
      </trkpt>
      <trkpt lat="42.49244" lon="8.85612">
        <ele>657.2</ele>
        <time>2015-07-02T07:40:04Z</time>
      </trkpt>
      <trkpt lat="42.49245" lon="8.85612">
        <ele>657</ele>
        <time>2015-07-02T07:40:06Z</time>
      </trkpt>
      <trkpt lat="42.4925" lon="8.85604">
        <ele>656.6</ele>
        <time>2015-07-02T07:40:13Z</time>
      </trkpt>
      <trkpt lat="42.49255" lon="8.85596">
        <ele>655.6</ele>
        <time>2015-07-02T07:40:22Z</time>
      </trkpt>
      <trkpt lat="42.4926" lon="8.8558">
        <ele>654.2</ele>
        <time>2015-07-02T07:40:37Z</time>
      </trkpt>
      <trkpt lat="42.49266" lon="8.85572">
        <ele>653.6</ele>
        <time>2015-07-02T07:40:49Z</time>
      </trkpt>
      <trkpt lat="42.49269" lon="8.85558">
        <ele>652.4</ele>
        <time>2015-07-02T07:41:01Z</time>
      </trkpt>
      <trkpt lat="42.49275" lon="8.85548">
        <ele>651.6</ele>
        <time>2015-07-02T07:41:10Z</time>
      </trkpt>
      <trkpt lat="42.49273" lon="8.85535">
        <ele>650.8</ele>
        <time>2015-07-02T07:41:19Z</time>
      </trkpt>
      <trkpt lat="42.49273" lon="8.85525">
        <ele>649.8</ele>
        <time>2015-07-02T07:41:26Z</time>
      </trkpt>
      <trkpt lat="42.49273" lon="8.85524">
        <ele>649.8</ele>
        <time>2015-07-02T07:41:27Z</time>
      </trkpt>
      <trkpt lat="42.49286" lon="8.85486">
        <ele>649</ele>
        <time>2015-07-02T07:41:57Z</time>
      </trkpt>
      <trkpt lat="42.49285" lon="8.85475">
        <ele>649</ele>
        <time>2015-07-02T07:42:06Z</time>
      </trkpt>
      <trkpt lat="42.49286" lon="8.85456">
        <ele>647.4</ele>
        <time>2015-07-02T07:42:21Z</time>
      </trkpt>
      <trkpt lat="42.49288" lon="8.85444">
        <ele>646.8</ele>
        <time>2015-07-02T07:42:29Z</time>
      </trkpt>
      <trkpt lat="42.4929" lon="8.85437">
        <ele>646.2</ele>
        <time>2015-07-02T07:42:34Z</time>
      </trkpt>
      <trkpt lat="42.4929" lon="8.85435">
        <ele>646</ele>
        <time>2015-07-02T07:42:36Z</time>
      </trkpt>
      <trkpt lat="42.4929" lon="8.85432">
        <ele>646</ele>
        <time>2015-07-02T07:42:38Z</time>
      </trkpt>
      <trkpt lat="42.49292" lon="8.85419">
        <ele>645.6</ele>
        <time>2015-07-02T07:42:48Z</time>
      </trkpt>
      <trkpt lat="42.49291" lon="8.85395">
        <ele>644.8</ele>
        <time>2015-07-02T07:43:06Z</time>
      </trkpt>
      <trkpt lat="42.4929" lon="8.85372">
        <ele>643.6</ele>
        <time>2015-07-02T07:43:22Z</time>
      </trkpt>
      <trkpt lat="42.49288" lon="8.85348">
        <ele>642.4</ele>
        <time>2015-07-02T07:43:39Z</time>
      </trkpt>
      <trkpt lat="42.49284" lon="8.85323">
        <ele>641.6</ele>
        <time>2015-07-02T07:43:55Z</time>
      </trkpt>
      <trkpt lat="42.49283" lon="8.8532">
        <ele>641.6</ele>
        <time>2015-07-02T07:43:57Z</time>
      </trkpt>
      <trkpt lat="42.49278" lon="8.853">
        <ele>640.8</ele>
        <time>2015-07-02T07:44:10Z</time>
      </trkpt>
      <trkpt lat="42.49271" lon="8.85255">
        <ele>639.6</ele>
        <time>2015-07-02T07:44:41Z</time>
      </trkpt>
      <trkpt lat="42.49265" lon="8.85222">
        <ele>639.8</ele>
        <time>2015-07-02T07:45:06Z</time>
      </trkpt>
      <trkpt lat="42.49265" lon="8.85217">
        <ele>639.8</ele>
        <time>2015-07-02T07:45:10Z</time>
      </trkpt>
      <trkpt lat="42.49252" lon="8.85181">
        <ele>639.8</ele>
        <time>2015-07-02T07:45:45Z</time>
      </trkpt>
      <trkpt lat="42.49249" lon="8.85179">
        <ele>639</ele>
        <time>2015-07-02T07:45:50Z</time>
      </trkpt>
      <trkpt lat="42.49245" lon="8.85172">
        <ele>637.4</ele>
        <time>2015-07-02T07:45:57Z</time>
      </trkpt>
      <trkpt lat="42.4924" lon="8.85166">
        <ele>636.2</ele>
        <time>2015-07-02T07:46:05Z</time>
      </trkpt>
      <trkpt lat="42.49238" lon="8.85162">
        <ele>635.8</ele>
        <time>2015-07-02T07:46:10Z</time>
      </trkpt>
      <trkpt lat="42.49236" lon="8.85153">
        <ele>634.2</ele>
        <time>2015-07-02T07:46:17Z</time>
      </trkpt>
      <trkpt lat="42.49237" lon="8.8515">
        <ele>634</ele>
        <time>2015-07-02T07:46:19Z</time>
      </trkpt>
      <trkpt lat="42.49238" lon="8.85147">
        <ele>633.6</ele>
        <time>2015-07-02T07:46:21Z</time>
      </trkpt>
      <trkpt lat="42.49238" lon="8.85145">
        <ele>633.2</ele>
        <time>2015-07-02T07:46:23Z</time>
      </trkpt>
      <trkpt lat="42.49241" lon="8.85133">
        <ele>631.8</ele>
        <time>2015-07-02T07:46:34Z</time>
      </trkpt>
      <trkpt lat="42.49249" lon="8.85119">
        <ele>632.6</ele>
        <time>2015-07-02T07:46:52Z</time>
      </trkpt>
      <trkpt lat="42.49257" lon="8.8511">
        <ele>634</ele>
        <time>2015-07-02T07:47:03Z</time>
      </trkpt>
      <trkpt lat="42.49259" lon="8.85095">
        <ele>634.4</ele>
        <time>2015-07-02T07:47:13Z</time>
      </trkpt>
      <trkpt lat="42.49269" lon="8.85089">
        <ele>634.8</ele>
        <time>2015-07-02T07:47:25Z</time>
      </trkpt>
      <trkpt lat="42.49276" lon="8.85086">
        <ele>635.8</ele>
        <time>2015-07-02T07:47:33Z</time>
      </trkpt>
      <trkpt lat="42.49277" lon="8.85092">
        <ele>637</ele>
        <time>2015-07-02T07:47:43Z</time>
      </trkpt>
      <trkpt lat="42.49279" lon="8.85099">
        <ele>637.8</ele>
        <time>2015-07-02T07:47:50Z</time>
      </trkpt>
      <trkpt lat="42.4928" lon="8.85102">
        <ele>638.8</ele>
        <time>2015-07-02T07:47:56Z</time>
      </trkpt>
      <trkpt lat="42.49284" lon="8.85102">
        <ele>640.2</ele>
        <time>2015-07-02T07:48:04Z</time>
      </trkpt>
      <trkpt lat="42.49288" lon="8.85101">
        <ele>640.8</ele>
        <time>2015-07-02T07:48:10Z</time>
      </trkpt>
      <trkpt lat="42.49293" lon="8.851">
        <ele>642</ele>
        <time>2015-07-02T07:48:16Z</time>
      </trkpt>
      <trkpt lat="42.493" lon="8.85096">
        <ele>643.6</ele>
        <time>2015-07-02T07:48:25Z</time>
      </trkpt>
      <trkpt lat="42.49305" lon="8.85093">
        <ele>644.6</ele>
        <time>2015-07-02T07:48:33Z</time>
      </trkpt>
      <trkpt lat="42.4931" lon="8.8509">
        <ele>645.4</ele>
        <time>2015-07-02T07:48:41Z</time>
      </trkpt>
      <trkpt lat="42.49316" lon="8.85087">
        <ele>646.8</ele>
        <time>2015-07-02T07:48:50Z</time>
      </trkpt>
      <trkpt lat="42.49321" lon="8.85083">
        <ele>647.8</ele>
        <time>2015-07-02T07:48:58Z</time>
      </trkpt>
      <trkpt lat="42.49327" lon="8.8508">
        <ele>649</ele>
        <time>2015-07-02T07:49:07Z</time>
      </trkpt>
      <trkpt lat="42.49332" lon="8.85077">
        <ele>650</ele>
        <time>2015-07-02T07:49:16Z</time>
      </trkpt>
      <trkpt lat="42.49339" lon="8.85073">
        <ele>651.4</ele>
        <time>2015-07-02T07:49:26Z</time>
      </trkpt>
      <trkpt lat="42.49345" lon="8.85074">
        <ele>652.6</ele>
        <time>2015-07-02T07:49:37Z</time>
      </trkpt>
      <trkpt lat="42.49351" lon="8.85075">
        <ele>653.6</ele>
        <time>2015-07-02T07:49:46Z</time>
      </trkpt>
      <trkpt lat="42.49358" lon="8.85071">
        <ele>654.8</ele>
        <time>2015-07-02T07:49:57Z</time>
      </trkpt>
      <trkpt lat="42.49368" lon="8.8506">
        <ele>656</ele>
        <time>2015-07-02T07:50:13Z</time>
      </trkpt>
      <trkpt lat="42.49372" lon="8.85053">
        <ele>657.2</ele>
        <time>2015-07-02T07:50:23Z</time>
      </trkpt>
      <trkpt lat="42.49377" lon="8.85052">
        <ele>658.2</ele>
        <time>2015-07-02T07:50:33Z</time>
      </trkpt>
      <trkpt lat="42.49382" lon="8.85047">
        <ele>659.2</ele>
        <time>2015-07-02T07:50:43Z</time>
      </trkpt>
      <trkpt lat="42.49384" lon="8.8504">
        <ele>660</ele>
        <time>2015-07-02T07:50:51Z</time>
      </trkpt>
      <trkpt lat="42.49389" lon="8.85031">
        <ele>661.2</ele>
        <time>2015-07-02T07:51:00Z</time>
      </trkpt>
      <trkpt lat="42.49399" lon="8.85021">
        <ele>663</ele>
        <time>2015-07-02T07:51:16Z</time>
      </trkpt>
      <trkpt lat="42.49425" lon="8.85006">
        <ele>663.4</ele>
        <time>2015-07-02T07:51:51Z</time>
      </trkpt>
      <trkpt lat="42.49428" lon="8.85005">
        <ele>663.2</ele>
        <time>2015-07-02T07:51:55Z</time>
      </trkpt>
      <trkpt lat="42.49429" lon="8.85003">
        <ele>663</ele>
        <time>2015-07-02T07:51:57Z</time>
      </trkpt>
      <trkpt lat="42.49434" lon="8.84998">
        <ele>662</ele>
        <time>2015-07-02T07:52:05Z</time>
      </trkpt>
      <trkpt lat="42.49437" lon="8.84994">
        <ele>661.6</ele>
        <time>2015-07-02T07:52:09Z</time>
      </trkpt>
      <trkpt lat="42.4944" lon="8.84985">
        <ele>660.8</ele>
        <time>2015-07-02T07:53:27Z</time>
      </trkpt>
      <trkpt lat="42.49442" lon="8.84983">
        <ele>660.8</ele>
        <time>2015-07-02T07:53:30Z</time>
      </trkpt>
      <trkpt lat="42.49444" lon="8.84983">
        <ele>660.8</ele>
        <time>2015-07-02T07:53:32Z</time>
      </trkpt>
      <trkpt lat="42.49445" lon="8.84983">
        <ele>660.8</ele>
        <time>2015-07-02T07:53:34Z</time>
      </trkpt>
      <trkpt lat="42.4945" lon="8.8498">
        <ele>659.6</ele>
        <time>2015-07-02T07:53:42Z</time>
      </trkpt>
      <trkpt lat="42.49453" lon="8.84979">
        <ele>659</ele>
        <time>2015-07-02T07:53:46Z</time>
      </trkpt>
      <trkpt lat="42.49456" lon="8.84983">
        <ele>657.8</ele>
        <time>2015-07-02T07:53:51Z</time>
      </trkpt>
      <trkpt lat="42.4946" lon="8.84987">
        <ele>656.2</ele>
        <time>2015-07-02T07:53:59Z</time>
      </trkpt>
      <trkpt lat="42.49463" lon="8.84985">
        <ele>656</ele>
        <time>2015-07-02T07:54:03Z</time>
      </trkpt>
      <trkpt lat="42.49466" lon="8.84985">
        <ele>655.2</ele>
        <time>2015-07-02T07:54:06Z</time>
      </trkpt>
      <trkpt lat="42.49467" lon="8.84986">
        <ele>654.6</ele>
        <time>2015-07-02T07:54:08Z</time>
      </trkpt>
      <trkpt lat="42.49467" lon="8.84988">
        <ele>654.4</ele>
        <time>2015-07-02T07:54:09Z</time>
      </trkpt>
      <trkpt lat="42.49465" lon="8.84993">
        <ele>653.4</ele>
        <time>2015-07-02T07:54:14Z</time>
      </trkpt>
      <trkpt lat="42.49464" lon="8.84994">
        <ele>653.2</ele>
        <time>2015-07-02T07:54:15Z</time>
      </trkpt>
      <trkpt lat="42.49464" lon="8.85002">
        <ele>652.2</ele>
        <time>2015-07-02T07:54:20Z</time>
      </trkpt>
      <trkpt lat="42.49462" lon="8.85005">
        <ele>651.8</ele>
        <time>2015-07-02T07:54:24Z</time>
      </trkpt>
      <trkpt lat="42.49462" lon="8.8501">
        <ele>651</ele>
        <time>2015-07-02T07:54:31Z</time>
      </trkpt>
      <trkpt lat="42.49463" lon="8.85014">
        <ele>650.4</ele>
        <time>2015-07-02T07:54:36Z</time>
      </trkpt>
      <trkpt lat="42.49464" lon="8.85018">
        <ele>649.2</ele>
        <time>2015-07-02T07:54:41Z</time>
      </trkpt>
      <trkpt lat="42.49469" lon="8.8502">
        <ele>647.4</ele>
        <time>2015-07-02T07:54:56Z</time>
      </trkpt>
      <trkpt lat="42.49473" lon="8.85017">
        <ele>647</ele>
        <time>2015-07-02T07:55:01Z</time>
      </trkpt>
      <trkpt lat="42.49478" lon="8.85017">
        <ele>646</ele>
        <time>2015-07-02T07:55:07Z</time>
      </trkpt>
      <trkpt lat="42.49478" lon="8.8502">
        <ele>645.2</ele>
        <time>2015-07-02T07:55:12Z</time>
      </trkpt>
      <trkpt lat="42.49475" lon="8.85029">
        <ele>643.2</ele>
        <time>2015-07-02T07:55:26Z</time>
      </trkpt>
      <trkpt lat="42.49476" lon="8.85036">
        <ele>643</ele>
        <time>2015-07-02T07:55:32Z</time>
      </trkpt>
      <trkpt lat="42.49482" lon="8.85037">
        <ele>641.8</ele>
        <time>2015-07-02T07:55:38Z</time>
      </trkpt>
      <trkpt lat="42.49486" lon="8.85033">
        <ele>640.6</ele>
        <time>2015-07-02T07:55:45Z</time>
      </trkpt>
      <trkpt lat="42.49491" lon="8.8503">
        <ele>639.8</ele>
        <time>2015-07-02T07:55:51Z</time>
      </trkpt>
      <trkpt lat="42.49491" lon="8.85035">
        <ele>639</ele>
        <time>2015-07-02T07:55:56Z</time>
      </trkpt>
      <trkpt lat="42.49491" lon="8.85041">
        <ele>637.8</ele>
        <time>2015-07-02T07:56:01Z</time>
      </trkpt>
      <trkpt lat="42.4949" lon="8.85043">
        <ele>637.6</ele>
        <time>2015-07-02T07:56:03Z</time>
      </trkpt>
      <trkpt lat="42.49489" lon="8.85045">
        <ele>637.2</ele>
        <time>2015-07-02T07:56:05Z</time>
      </trkpt>
      <trkpt lat="42.49488" lon="8.85048">
        <ele>636.8</ele>
        <time>2015-07-02T07:56:08Z</time>
      </trkpt>
      <trkpt lat="42.49487" lon="8.85054">
        <ele>636</ele>
        <time>2015-07-02T07:56:13Z</time>
      </trkpt>
      <trkpt lat="42.49487" lon="8.85057">
        <ele>636</ele>
        <time>2015-07-02T07:56:15Z</time>
      </trkpt>
      <trkpt lat="42.49486" lon="8.85059">
        <ele>635.8</ele>
        <time>2015-07-02T07:56:17Z</time>
      </trkpt>
      <trkpt lat="42.49487" lon="8.85066">
        <ele>635</ele>
        <time>2015-07-02T07:56:22Z</time>
      </trkpt>
      <trkpt lat="42.49488" lon="8.85073">
        <ele>634.2</ele>
        <time>2015-07-02T07:56:29Z</time>
      </trkpt>
      <trkpt lat="42.49489" lon="8.85074">
        <ele>634</ele>
        <time>2015-07-02T07:56:31Z</time>
      </trkpt>
      <trkpt lat="42.49491" lon="8.85075">
        <ele>633.8</ele>
        <time>2015-07-02T07:56:35Z</time>
      </trkpt>
      <trkpt lat="42.49492" lon="8.85075">
        <ele>633.6</ele>
        <time>2015-07-02T07:56:37Z</time>
      </trkpt>
      <trkpt lat="42.49494" lon="8.85074">
        <ele>632</ele>
        <time>2015-07-02T07:56:48Z</time>
      </trkpt>
      <trkpt lat="42.49499" lon="8.85064">
        <ele>631.2</ele>
        <time>2015-07-02T07:57:22Z</time>
      </trkpt>
      <trkpt lat="42.49504" lon="8.85055">
        <ele>630.4</ele>
        <time>2015-07-02T07:57:30Z</time>
      </trkpt>
      <trkpt lat="42.49509" lon="8.8505">
        <ele>629.4</ele>
        <time>2015-07-02T07:57:37Z</time>
      </trkpt>
      <trkpt lat="42.49515" lon="8.85046">
        <ele>628.4</ele>
        <time>2015-07-02T07:57:45Z</time>
      </trkpt>
      <trkpt lat="42.4952" lon="8.85041">
        <ele>627.6</ele>
        <time>2015-07-02T07:57:51Z</time>
      </trkpt>
      <trkpt lat="42.49523" lon="8.8504">
        <ele>626.8</ele>
        <time>2015-07-02T07:57:55Z</time>
      </trkpt>
      <trkpt lat="42.49525" lon="8.8504">
        <ele>626.6</ele>
        <time>2015-07-02T07:57:57Z</time>
      </trkpt>
      <trkpt lat="42.49526" lon="8.85039">
        <ele>626.4</ele>
        <time>2015-07-02T07:57:58Z</time>
      </trkpt>
      <trkpt lat="42.49531" lon="8.85034">
        <ele>625.2</ele>
        <time>2015-07-02T07:58:05Z</time>
      </trkpt>
      <trkpt lat="42.49532" lon="8.85033">
        <ele>625.2</ele>
        <time>2015-07-02T07:58:06Z</time>
      </trkpt>
      <trkpt lat="42.49536" lon="8.85028">
        <ele>624.4</ele>
        <time>2015-07-02T07:58:13Z</time>
      </trkpt>
      <trkpt lat="42.49537" lon="8.85028">
        <ele>624.2</ele>
        <time>2015-07-02T07:58:14Z</time>
      </trkpt>
      <trkpt lat="42.49542" lon="8.85024">
        <ele>623.4</ele>
        <time>2015-07-02T07:58:20Z</time>
      </trkpt>
      <trkpt lat="42.49546" lon="8.85022">
        <ele>622.2</ele>
        <time>2015-07-02T07:58:27Z</time>
      </trkpt>
      <trkpt lat="42.49551" lon="8.85022">
        <ele>621.2</ele>
        <time>2015-07-02T07:58:33Z</time>
      </trkpt>
      <trkpt lat="42.49555" lon="8.8502">
        <ele>620.2</ele>
        <time>2015-07-02T07:58:39Z</time>
      </trkpt>
      <trkpt lat="42.49559" lon="8.85018">
        <ele>619.2</ele>
        <time>2015-07-02T07:58:44Z</time>
      </trkpt>
      <trkpt lat="42.49565" lon="8.85014">
        <ele>618</ele>
        <time>2015-07-02T07:58:51Z</time>
      </trkpt>
      <trkpt lat="42.4957" lon="8.8501">
        <ele>616.6</ele>
        <time>2015-07-02T07:58:58Z</time>
      </trkpt>
      <trkpt lat="42.49575" lon="8.85007">
        <ele>615.6</ele>
        <time>2015-07-02T07:59:05Z</time>
      </trkpt>
      <trkpt lat="42.49578" lon="8.85005">
        <ele>615</ele>
        <time>2015-07-02T07:59:10Z</time>
      </trkpt>
      <trkpt lat="42.49582" lon="8.85003">
        <ele>613.8</ele>
        <time>2015-07-02T07:59:16Z</time>
      </trkpt>
      <trkpt lat="42.49586" lon="8.85002">
        <ele>612</ele>
        <time>2015-07-02T07:59:26Z</time>
      </trkpt>
      <trkpt lat="42.49591" lon="8.84997">
        <ele>611.2</ele>
        <time>2015-07-02T07:59:35Z</time>
      </trkpt>
      <trkpt lat="42.49595" lon="8.84995">
        <ele>610.8</ele>
        <time>2015-07-02T07:59:40Z</time>
      </trkpt>
      <trkpt lat="42.49601" lon="8.84994">
        <ele>609.4</ele>
        <time>2015-07-02T07:59:47Z</time>
      </trkpt>
      <trkpt lat="42.49607" lon="8.8499">
        <ele>608.4</ele>
        <time>2015-07-02T07:59:54Z</time>
      </trkpt>
      <trkpt lat="42.49612" lon="8.84985">
        <ele>607</ele>
        <time>2015-07-02T08:00:01Z</time>
      </trkpt>
      <trkpt lat="42.49615" lon="8.84982">
        <ele>606.2</ele>
        <time>2015-07-02T08:00:07Z</time>
      </trkpt>
      <trkpt lat="42.4962" lon="8.84978">
        <ele>605</ele>
        <time>2015-07-02T08:00:15Z</time>
      </trkpt>
      <trkpt lat="42.49625" lon="8.84974">
        <ele>603.8</ele>
        <time>2015-07-02T08:00:22Z</time>
      </trkpt>
      <trkpt lat="42.49627" lon="8.84976">
        <ele>602.2</ele>
        <time>2015-07-02T08:00:46Z</time>
      </trkpt>
      <trkpt lat="42.49626" lon="8.84974">
        <ele>602</ele>
        <time>2015-07-02T08:02:30Z</time>
      </trkpt>
      <trkpt lat="42.49626" lon="8.84971">
        <ele>602</ele>
        <time>2015-07-02T08:05:20Z</time>
      </trkpt>
      <trkpt lat="42.49623" lon="8.84976">
        <ele>602</ele>
        <time>2015-07-02T08:06:59Z</time>
      </trkpt>
      <trkpt lat="42.49625" lon="8.84983">
        <ele>601.4</ele>
        <time>2015-07-02T08:07:06Z</time>
      </trkpt>
      <trkpt lat="42.49626" lon="8.8499">
        <ele>600.8</ele>
        <time>2015-07-02T08:07:11Z</time>
      </trkpt>
      <trkpt lat="42.49625" lon="8.84997">
        <ele>599.4</ele>
        <time>2015-07-02T08:07:17Z</time>
      </trkpt>
      <trkpt lat="42.49626" lon="8.85005">
        <ele>598.4</ele>
        <time>2015-07-02T08:07:23Z</time>
      </trkpt>
      <trkpt lat="42.49626" lon="8.85011">
        <ele>597.4</ele>
        <time>2015-07-02T08:07:28Z</time>
      </trkpt>
      <trkpt lat="42.49626" lon="8.8502">
        <ele>596.2</ele>
        <time>2015-07-02T08:07:34Z</time>
      </trkpt>
      <trkpt lat="42.49627" lon="8.85026">
        <ele>595.4</ele>
        <time>2015-07-02T08:07:39Z</time>
      </trkpt>
      <trkpt lat="42.49627" lon="8.85032">
        <ele>594.2</ele>
        <time>2015-07-02T08:07:44Z</time>
      </trkpt>
      <trkpt lat="42.49628" lon="8.85041">
        <ele>593</ele>
        <time>2015-07-02T08:07:50Z</time>
      </trkpt>
      <trkpt lat="42.49628" lon="8.85047">
        <ele>592.2</ele>
        <time>2015-07-02T08:07:55Z</time>
      </trkpt>
      <trkpt lat="42.49628" lon="8.85056">
        <ele>590.8</ele>
        <time>2015-07-02T08:08:02Z</time>
      </trkpt>
      <trkpt lat="42.49628" lon="8.85066">
        <ele>589.6</ele>
        <time>2015-07-02T08:08:09Z</time>
      </trkpt>
      <trkpt lat="42.4963" lon="8.85074">
        <ele>588.6</ele>
        <time>2015-07-02T08:08:15Z</time>
      </trkpt>
      <trkpt lat="42.49633" lon="8.85084">
        <ele>587.2</ele>
        <time>2015-07-02T08:08:22Z</time>
      </trkpt>
      <trkpt lat="42.49635" lon="8.85097">
        <ele>586</ele>
        <time>2015-07-02T08:08:30Z</time>
      </trkpt>
      <trkpt lat="42.49638" lon="8.85112">
        <ele>584.8</ele>
        <time>2015-07-02T08:08:41Z</time>
      </trkpt>
      <trkpt lat="42.49641" lon="8.85125">
        <ele>583.8</ele>
        <time>2015-07-02T08:08:50Z</time>
      </trkpt>
      <trkpt lat="42.49642" lon="8.85128">
        <ele>583.4</ele>
        <time>2015-07-02T08:08:53Z</time>
      </trkpt>
      <trkpt lat="42.49645" lon="8.85135">
        <ele>582.8</ele>
        <time>2015-07-02T08:09:00Z</time>
      </trkpt>
      <trkpt lat="42.49653" lon="8.85143">
        <ele>581.6</ele>
        <time>2015-07-02T08:09:09Z</time>
      </trkpt>
      <trkpt lat="42.49653" lon="8.85144">
        <ele>581.6</ele>
        <time>2015-07-02T08:09:10Z</time>
      </trkpt>
      <trkpt lat="42.49658" lon="8.85153">
        <ele>580.6</ele>
        <time>2015-07-02T08:09:18Z</time>
      </trkpt>
      <trkpt lat="42.49664" lon="8.85163">
        <ele>579.8</ele>
        <time>2015-07-02T08:09:27Z</time>
      </trkpt>
      <trkpt lat="42.49666" lon="8.85165">
        <ele>579.6</ele>
        <time>2015-07-02T08:09:29Z</time>
      </trkpt>
      <trkpt lat="42.49677" lon="8.85182">
        <ele>578.4</ele>
        <time>2015-07-02T08:09:44Z</time>
      </trkpt>
      <trkpt lat="42.49678" lon="8.85183">
        <ele>578.4</ele>
        <time>2015-07-02T08:09:45Z</time>
      </trkpt>
      <trkpt lat="42.49687" lon="8.85192">
        <ele>577.8</ele>
        <time>2015-07-02T08:09:57Z</time>
      </trkpt>
      <trkpt lat="42.49696" lon="8.85198">
        <ele>576.8</ele>
        <time>2015-07-02T08:10:08Z</time>
      </trkpt>
      <trkpt lat="42.49707" lon="8.85207">
        <ele>575.4</ele>
        <time>2015-07-02T08:10:22Z</time>
      </trkpt>
      <trkpt lat="42.49721" lon="8.85214">
        <ele>574.8</ele>
        <time>2015-07-02T08:10:36Z</time>
      </trkpt>
      <trkpt lat="42.49723" lon="8.85215">
        <ele>574.8</ele>
        <time>2015-07-02T08:10:37Z</time>
      </trkpt>
      <trkpt lat="42.49734" lon="8.85216">
        <ele>574</ele>
        <time>2015-07-02T08:10:47Z</time>
      </trkpt>
      <trkpt lat="42.49736" lon="8.85216">
        <ele>573.8</ele>
        <time>2015-07-02T08:10:49Z</time>
      </trkpt>
      <trkpt lat="42.49748" lon="8.85216">
        <ele>572.8</ele>
        <time>2015-07-02T08:10:59Z</time>
      </trkpt>
      <trkpt lat="42.49763" lon="8.85217">
        <ele>571.8</ele>
        <time>2015-07-02T08:11:13Z</time>
      </trkpt>
      <trkpt lat="42.49768" lon="8.85218">
        <ele>571.4</ele>
        <time>2015-07-02T08:11:19Z</time>
      </trkpt>
      <trkpt lat="42.49769" lon="8.85218">
        <ele>571.2</ele>
        <time>2015-07-02T08:11:20Z</time>
      </trkpt>
      <trkpt lat="42.49776" lon="8.85224">
        <ele>570</ele>
        <time>2015-07-02T08:11:29Z</time>
      </trkpt>
      <trkpt lat="42.49784" lon="8.85227">
        <ele>569.2</ele>
        <time>2015-07-02T08:11:37Z</time>
      </trkpt>
      <trkpt lat="42.4979" lon="8.85231">
        <ele>568</ele>
        <time>2015-07-02T08:11:44Z</time>
      </trkpt>
      <trkpt lat="42.49796" lon="8.85234">
        <ele>567.2</ele>
        <time>2015-07-02T08:11:51Z</time>
      </trkpt>
      <trkpt lat="42.49805" lon="8.85238">
        <ele>565.8</ele>
        <time>2015-07-02T08:12:00Z</time>
      </trkpt>
      <trkpt lat="42.49811" lon="8.85241">
        <ele>565.2</ele>
        <time>2015-07-02T08:12:06Z</time>
      </trkpt>
      <trkpt lat="42.49821" lon="8.85247">
        <ele>563.6</ele>
        <time>2015-07-02T08:12:16Z</time>
      </trkpt>
      <trkpt lat="42.49824" lon="8.85249">
        <ele>563.4</ele>
        <time>2015-07-02T08:12:19Z</time>
      </trkpt>
      <trkpt lat="42.49829" lon="8.85252">
        <ele>562.8</ele>
        <time>2015-07-02T08:12:24Z</time>
      </trkpt>
      <trkpt lat="42.49832" lon="8.85254">
        <ele>562.4</ele>
        <time>2015-07-02T08:12:27Z</time>
      </trkpt>
      <trkpt lat="42.49837" lon="8.85257">
        <ele>561.8</ele>
        <time>2015-07-02T08:12:32Z</time>
      </trkpt>
      <trkpt lat="42.4984" lon="8.85259">
        <ele>561.6</ele>
        <time>2015-07-02T08:12:34Z</time>
      </trkpt>
      <trkpt lat="42.49847" lon="8.85262">
        <ele>560.8</ele>
        <time>2015-07-02T08:12:41Z</time>
      </trkpt>
      <trkpt lat="42.49851" lon="8.85264">
        <ele>560.6</ele>
        <time>2015-07-02T08:12:44Z</time>
      </trkpt>
      <trkpt lat="42.49862" lon="8.85271">
        <ele>559.8</ele>
        <time>2015-07-02T08:12:55Z</time>
      </trkpt>
      <trkpt lat="42.4987" lon="8.85271">
        <ele>559</ele>
        <time>2015-07-02T08:13:02Z</time>
      </trkpt>
      <trkpt lat="42.49873" lon="8.85272">
        <ele>558.8</ele>
        <time>2015-07-02T08:13:04Z</time>
      </trkpt>
      <trkpt lat="42.49879" lon="8.85273">
        <ele>557.8</ele>
        <time>2015-07-02T08:13:11Z</time>
      </trkpt>
      <trkpt lat="42.49885" lon="8.85273">
        <ele>556.8</ele>
        <time>2015-07-02T08:13:18Z</time>
      </trkpt>
      <trkpt lat="42.49885" lon="8.85272">
        <ele>556.8</ele>
        <time>2015-07-02T08:13:19Z</time>
      </trkpt>
      <trkpt lat="42.49892" lon="8.85273">
        <ele>555.8</ele>
        <time>2015-07-02T08:13:28Z</time>
      </trkpt>
      <trkpt lat="42.49898" lon="8.85267">
        <ele>554.8</ele>
        <time>2015-07-02T08:13:35Z</time>
      </trkpt>
      <trkpt lat="42.49903" lon="8.85262">
        <ele>553.8</ele>
        <time>2015-07-02T08:13:42Z</time>
      </trkpt>
      <trkpt lat="42.49906" lon="8.85261">
        <ele>553.4</ele>
        <time>2015-07-02T08:13:44Z</time>
      </trkpt>
      <trkpt lat="42.49907" lon="8.85265">
        <ele>552.8</ele>
        <time>2015-07-02T08:13:48Z</time>
      </trkpt>
      <trkpt lat="42.49909" lon="8.85272">
        <ele>551.8</ele>
        <time>2015-07-02T08:13:54Z</time>
      </trkpt>
      <trkpt lat="42.49909" lon="8.85281">
        <ele>550.4</ele>
        <time>2015-07-02T08:14:01Z</time>
      </trkpt>
      <trkpt lat="42.49909" lon="8.85282">
        <ele>550.2</ele>
        <time>2015-07-02T08:14:02Z</time>
      </trkpt>
      <trkpt lat="42.49909" lon="8.85285">
        <ele>549.6</ele>
        <time>2015-07-02T08:14:05Z</time>
      </trkpt>
      <trkpt lat="42.49913" lon="8.85287">
        <ele>549.2</ele>
        <time>2015-07-02T08:14:09Z</time>
      </trkpt>
      <trkpt lat="42.49919" lon="8.8529">
        <ele>548.4</ele>
        <time>2015-07-02T08:14:15Z</time>
      </trkpt>
      <trkpt lat="42.49921" lon="8.85291">
        <ele>548.2</ele>
        <time>2015-07-02T08:14:17Z</time>
      </trkpt>
      <trkpt lat="42.49923" lon="8.85292">
        <ele>547.6</ele>
        <time>2015-07-02T08:14:20Z</time>
      </trkpt>
      <trkpt lat="42.49923" lon="8.85294">
        <ele>547.2</ele>
        <time>2015-07-02T08:14:22Z</time>
      </trkpt>
      <trkpt lat="42.49929" lon="8.85295">
        <ele>546.2</ele>
        <time>2015-07-02T08:14:31Z</time>
      </trkpt>
      <trkpt lat="42.49934" lon="8.85296">
        <ele>545.2</ele>
        <time>2015-07-02T08:14:38Z</time>
      </trkpt>
      <trkpt lat="42.49939" lon="8.85293">
        <ele>544.2</ele>
        <time>2015-07-02T08:14:44Z</time>
      </trkpt>
      <trkpt lat="42.49943" lon="8.85295">
        <ele>543.2</ele>
        <time>2015-07-02T08:14:50Z</time>
      </trkpt>
      <trkpt lat="42.49948" lon="8.85293">
        <ele>542.2</ele>
        <time>2015-07-02T08:14:56Z</time>
      </trkpt>
      <trkpt lat="42.49953" lon="8.85291">
        <ele>540.8</ele>
        <time>2015-07-02T08:15:03Z</time>
      </trkpt>
      <trkpt lat="42.49958" lon="8.85289">
        <ele>540</ele>
        <time>2015-07-02T08:15:09Z</time>
      </trkpt>
      <trkpt lat="42.49961" lon="8.85287">
        <ele>539.2</ele>
        <time>2015-07-02T08:15:13Z</time>
      </trkpt>
      <trkpt lat="42.49962" lon="8.85285">
        <ele>538.8</ele>
        <time>2015-07-02T08:15:15Z</time>
      </trkpt>
      <trkpt lat="42.49963" lon="8.85281">
        <ele>537.8</ele>
        <time>2015-07-02T08:15:19Z</time>
      </trkpt>
      <trkpt lat="42.49964" lon="8.85277">
        <ele>536.8</ele>
        <time>2015-07-02T08:15:24Z</time>
      </trkpt>
      <trkpt lat="42.49967" lon="8.85273">
        <ele>535.8</ele>
        <time>2015-07-02T08:15:29Z</time>
      </trkpt>
      <trkpt lat="42.49972" lon="8.8527">
        <ele>534.6</ele>
        <time>2015-07-02T08:15:34Z</time>
      </trkpt>
      <trkpt lat="42.4998" lon="8.85269">
        <ele>533.2</ele>
        <time>2015-07-02T08:15:45Z</time>
      </trkpt>
      <trkpt lat="42.49985" lon="8.85269">
        <ele>532.4</ele>
        <time>2015-07-02T08:15:50Z</time>
      </trkpt>
      <trkpt lat="42.49992" lon="8.85272">
        <ele>531.2</ele>
        <time>2015-07-02T08:15:57Z</time>
      </trkpt>
      <trkpt lat="42.5" lon="8.85274">
        <ele>530</ele>
        <time>2015-07-02T08:16:05Z</time>
      </trkpt>
      <trkpt lat="42.50005" lon="8.85276">
        <ele>529.4</ele>
        <time>2015-07-02T08:16:10Z</time>
      </trkpt>
      <trkpt lat="42.5001" lon="8.85276">
        <ele>528.8</ele>
        <time>2015-07-02T08:16:14Z</time>
      </trkpt>
      <trkpt lat="42.50015" lon="8.85277">
        <ele>528.4</ele>
        <time>2015-07-02T08:16:19Z</time>
      </trkpt>
      <trkpt lat="42.50019" lon="8.8528">
        <ele>528.2</ele>
        <time>2015-07-02T08:16:23Z</time>
      </trkpt>
      <trkpt lat="42.50027" lon="8.85285">
        <ele>527.4</ele>
        <time>2015-07-02T08:16:30Z</time>
      </trkpt>
      <trkpt lat="42.50034" lon="8.85289">
        <ele>526.2</ele>
        <time>2015-07-02T08:16:37Z</time>
      </trkpt>
      <trkpt lat="42.50041" lon="8.85292">
        <ele>525.2</ele>
        <time>2015-07-02T08:16:44Z</time>
      </trkpt>
      <trkpt lat="42.50047" lon="8.85297">
        <ele>524.2</ele>
        <time>2015-07-02T08:16:51Z</time>
      </trkpt>
      <trkpt lat="42.50051" lon="8.85301">
        <ele>523.4</ele>
        <time>2015-07-02T08:16:56Z</time>
      </trkpt>
      <trkpt lat="42.50054" lon="8.85302">
        <ele>523</ele>
        <time>2015-07-02T08:17:00Z</time>
      </trkpt>
      <trkpt lat="42.50058" lon="8.85302">
        <ele>522.6</ele>
        <time>2015-07-02T08:17:05Z</time>
      </trkpt>
      <trkpt lat="42.50059" lon="8.85304">
        <ele>522.2</ele>
        <time>2015-07-02T08:17:07Z</time>
      </trkpt>
      <trkpt lat="42.50062" lon="8.85309">
        <ele>520.8</ele>
        <time>2015-07-02T08:17:16Z</time>
      </trkpt>
      <trkpt lat="42.50066" lon="8.85312">
        <ele>520.4</ele>
        <time>2015-07-02T08:17:21Z</time>
      </trkpt>
      <trkpt lat="42.50072" lon="8.85315">
        <ele>519.2</ele>
        <time>2015-07-02T08:17:29Z</time>
      </trkpt>
      <trkpt lat="42.50077" lon="8.85316">
        <ele>518.4</ele>
        <time>2015-07-02T08:17:34Z</time>
      </trkpt>
      <trkpt lat="42.50082" lon="8.8532">
        <ele>517</ele>
        <time>2015-07-02T08:17:41Z</time>
      </trkpt>
      <trkpt lat="42.50088" lon="8.85321">
        <ele>516.2</ele>
        <time>2015-07-02T08:17:48Z</time>
      </trkpt>
      <trkpt lat="42.50092" lon="8.85325">
        <ele>515.2</ele>
        <time>2015-07-02T08:17:54Z</time>
      </trkpt>
      <trkpt lat="42.50093" lon="8.85326">
        <ele>514.6</ele>
        <time>2015-07-02T08:17:56Z</time>
      </trkpt>
      <trkpt lat="42.50097" lon="8.85328">
        <ele>513.8</ele>
        <time>2015-07-02T08:18:02Z</time>
      </trkpt>
      <trkpt lat="42.50102" lon="8.85331">
        <ele>513</ele>
        <time>2015-07-02T08:18:10Z</time>
      </trkpt>
      <trkpt lat="42.50108" lon="8.85334">
        <ele>511.8</ele>
        <time>2015-07-02T08:18:18Z</time>
      </trkpt>
      <trkpt lat="42.50113" lon="8.85339">
        <ele>511</ele>
        <time>2015-07-02T08:18:25Z</time>
      </trkpt>
      <trkpt lat="42.5012" lon="8.85341">
        <ele>510</ele>
        <time>2015-07-02T08:18:33Z</time>
      </trkpt>
      <trkpt lat="42.50125" lon="8.85346">
        <ele>508.8</ele>
        <time>2015-07-02T08:18:40Z</time>
      </trkpt>
      <trkpt lat="42.5013" lon="8.8535">
        <ele>507.6</ele>
        <time>2015-07-02T08:18:47Z</time>
      </trkpt>
      <trkpt lat="42.50134" lon="8.85355">
        <ele>507</ele>
        <time>2015-07-02T08:18:52Z</time>
      </trkpt>
      <trkpt lat="42.50136" lon="8.85357">
        <ele>506.4</ele>
        <time>2015-07-02T08:18:55Z</time>
      </trkpt>
      <trkpt lat="42.50136" lon="8.85357">
        <ele>505.2</ele>
        <time>2015-07-02T08:19:06Z</time>
      </trkpt>
      <trkpt lat="42.50145" lon="8.85367">
        <ele>505</ele>
        <time>2015-07-02T08:19:24Z</time>
      </trkpt>
      <trkpt lat="42.50151" lon="8.85373">
        <ele>503.8</ele>
        <time>2015-07-02T08:19:31Z</time>
      </trkpt>
      <trkpt lat="42.50155" lon="8.85376">
        <ele>503.2</ele>
        <time>2015-07-02T08:19:36Z</time>
      </trkpt>
      <trkpt lat="42.50157" lon="8.85377">
        <ele>502.8</ele>
        <time>2015-07-02T08:19:38Z</time>
      </trkpt>
      <trkpt lat="42.50157" lon="8.85378">
        <ele>502.8</ele>
        <time>2015-07-02T08:19:39Z</time>
      </trkpt>
      <trkpt lat="42.50159" lon="8.85384">
        <ele>501.8</ele>
        <time>2015-07-02T08:19:48Z</time>
      </trkpt>
      <trkpt lat="42.50163" lon="8.8539">
        <ele>500.8</ele>
        <time>2015-07-02T08:19:56Z</time>
      </trkpt>
      <trkpt lat="42.50166" lon="8.85396">
        <ele>500</ele>
        <time>2015-07-02T08:20:02Z</time>
      </trkpt>
      <trkpt lat="42.50168" lon="8.854">
        <ele>499</ele>
        <time>2015-07-02T08:20:08Z</time>
      </trkpt>
      <trkpt lat="42.50171" lon="8.85405">
        <ele>497.4</ele>
        <time>2015-07-02T08:20:17Z</time>
      </trkpt>
      <trkpt lat="42.50173" lon="8.85409">
        <ele>496.4</ele>
        <time>2015-07-02T08:20:25Z</time>
      </trkpt>
      <trkpt lat="42.50177" lon="8.85414">
        <ele>495.4</ele>
        <time>2015-07-02T08:20:33Z</time>
      </trkpt>
      <trkpt lat="42.50181" lon="8.85416">
        <ele>494.4</ele>
        <time>2015-07-02T08:20:40Z</time>
      </trkpt>
      <trkpt lat="42.50185" lon="8.85421">
        <ele>493.6</ele>
        <time>2015-07-02T08:20:46Z</time>
      </trkpt>
      <trkpt lat="42.50188" lon="8.85428">
        <ele>492.2</ele>
        <time>2015-07-02T08:20:54Z</time>
      </trkpt>
      <trkpt lat="42.50192" lon="8.85435">
        <ele>491.2</ele>
        <time>2015-07-02T08:21:03Z</time>
      </trkpt>
      <trkpt lat="42.50195" lon="8.8544">
        <ele>490</ele>
        <time>2015-07-02T08:21:12Z</time>
      </trkpt>
      <trkpt lat="42.50198" lon="8.85444">
        <ele>489.2</ele>
        <time>2015-07-02T08:21:19Z</time>
      </trkpt>
      <trkpt lat="42.50204" lon="8.85454">
        <ele>487.8</ele>
        <time>2015-07-02T08:21:31Z</time>
      </trkpt>
      <trkpt lat="42.50208" lon="8.85462">
        <ele>487</ele>
        <time>2015-07-02T08:21:42Z</time>
      </trkpt>
      <trkpt lat="42.50211" lon="8.85463">
        <ele>486.6</ele>
        <time>2015-07-02T08:21:47Z</time>
      </trkpt>
      <trkpt lat="42.50215" lon="8.85467">
        <ele>485.2</ele>
        <time>2015-07-02T08:21:53Z</time>
      </trkpt>
      <trkpt lat="42.50221" lon="8.85475">
        <ele>484</ele>
        <time>2015-07-02T08:22:01Z</time>
      </trkpt>
      <trkpt lat="42.50226" lon="8.8548">
        <ele>483.2</ele>
        <time>2015-07-02T08:22:08Z</time>
      </trkpt>
      <trkpt lat="42.50231" lon="8.85488">
        <ele>481.6</ele>
        <time>2015-07-02T08:22:17Z</time>
      </trkpt>
      <trkpt lat="42.50239" lon="8.85498">
        <ele>480.8</ele>
        <time>2015-07-02T08:22:29Z</time>
      </trkpt>
      <trkpt lat="42.50241" lon="8.855">
        <ele>480.4</ele>
        <time>2015-07-02T08:22:31Z</time>
      </trkpt>
      <trkpt lat="42.50244" lon="8.85507">
        <ele>479.8</ele>
        <time>2015-07-02T08:22:38Z</time>
      </trkpt>
      <trkpt lat="42.50247" lon="8.85511">
        <ele>479.4</ele>
        <time>2015-07-02T08:22:43Z</time>
      </trkpt>
      <trkpt lat="42.50253" lon="8.85515">
        <ele>478.8</ele>
        <time>2015-07-02T08:22:49Z</time>
      </trkpt>
      <trkpt lat="42.50256" lon="8.85519">
        <ele>478.2</ele>
        <time>2015-07-02T08:22:55Z</time>
      </trkpt>
      <trkpt lat="42.50262" lon="8.85526">
        <ele>476.8</ele>
        <time>2015-07-02T08:23:04Z</time>
      </trkpt>
      <trkpt lat="42.5027" lon="8.85534">
        <ele>475.8</ele>
        <time>2015-07-02T08:23:14Z</time>
      </trkpt>
      <trkpt lat="42.50273" lon="8.85537">
        <ele>475.4</ele>
        <time>2015-07-02T08:23:18Z</time>
      </trkpt>
      <trkpt lat="42.50276" lon="8.85538">
        <ele>475</ele>
        <time>2015-07-02T08:23:21Z</time>
      </trkpt>
      <trkpt lat="42.50281" lon="8.85542">
        <ele>474.2</ele>
        <time>2015-07-02T08:23:28Z</time>
      </trkpt>
      <trkpt lat="42.50283" lon="8.85543">
        <ele>474</ele>
        <time>2015-07-02T08:23:30Z</time>
      </trkpt>
      <trkpt lat="42.50284" lon="8.85545">
        <ele>473.6</ele>
        <time>2015-07-02T08:23:32Z</time>
      </trkpt>
      <trkpt lat="42.50284" lon="8.8555">
        <ele>473</ele>
        <time>2015-07-02T08:23:36Z</time>
      </trkpt>
      <trkpt lat="42.50283" lon="8.85555">
        <ele>472</ele>
        <time>2015-07-02T08:23:41Z</time>
      </trkpt>
      <trkpt lat="42.50283" lon="8.85557">
        <ele>472</ele>
        <time>2015-07-02T08:23:43Z</time>
      </trkpt>
      <trkpt lat="42.50287" lon="8.85561">
        <ele>470.8</ele>
        <time>2015-07-02T08:23:49Z</time>
      </trkpt>
      <trkpt lat="42.5029" lon="8.85562">
        <ele>469.4</ele>
        <time>2015-07-02T08:23:56Z</time>
      </trkpt>
      <trkpt lat="42.50291" lon="8.85569">
        <ele>468.4</ele>
        <time>2015-07-02T08:24:03Z</time>
      </trkpt>
      <trkpt lat="42.50297" lon="8.85577">
        <ele>467.2</ele>
        <time>2015-07-02T08:24:12Z</time>
      </trkpt>
      <trkpt lat="42.503" lon="8.85584">
        <ele>466.4</ele>
        <time>2015-07-02T08:24:19Z</time>
      </trkpt>
      <trkpt lat="42.50306" lon="8.85592">
        <ele>465</ele>
        <time>2015-07-02T08:24:27Z</time>
      </trkpt>
      <trkpt lat="42.50309" lon="8.85597">
        <ele>463.8</ele>
        <time>2015-07-02T08:24:34Z</time>
      </trkpt>
      <trkpt lat="42.5031" lon="8.85601">
        <ele>463.2</ele>
        <time>2015-07-02T08:24:39Z</time>
      </trkpt>
      <trkpt lat="42.50309" lon="8.85605">
        <ele>462.4</ele>
        <time>2015-07-02T08:24:44Z</time>
      </trkpt>
      <trkpt lat="42.50309" lon="8.85613">
        <ele>460.6</ele>
        <time>2015-07-02T08:24:52Z</time>
      </trkpt>
      <trkpt lat="42.50308" lon="8.85619">
        <ele>460</ele>
        <time>2015-07-02T08:24:58Z</time>
      </trkpt>
      <trkpt lat="42.50309" lon="8.85626">
        <ele>458.8</ele>
        <time>2015-07-02T08:25:05Z</time>
      </trkpt>
      <trkpt lat="42.50308" lon="8.85634">
        <ele>457.8</ele>
        <time>2015-07-02T08:25:12Z</time>
      </trkpt>
      <trkpt lat="42.50309" lon="8.85642">
        <ele>456.8</ele>
        <time>2015-07-02T08:25:21Z</time>
      </trkpt>
      <trkpt lat="42.5031" lon="8.85646">
        <ele>456</ele>
        <time>2015-07-02T08:25:28Z</time>
      </trkpt>
      <trkpt lat="42.50308" lon="8.85657">
        <ele>454.8</ele>
        <time>2015-07-02T08:25:41Z</time>
      </trkpt>
      <trkpt lat="42.5031" lon="8.85661">
        <ele>454</ele>
        <time>2015-07-02T08:25:47Z</time>
      </trkpt>
      <trkpt lat="42.5031" lon="8.85667">
        <ele>452.6</ele>
        <time>2015-07-02T08:25:55Z</time>
      </trkpt>
      <trkpt lat="42.50313" lon="8.8567">
        <ele>451.8</ele>
        <time>2015-07-02T08:26:02Z</time>
      </trkpt>
      <trkpt lat="42.50313" lon="8.85675">
        <ele>450.8</ele>
        <time>2015-07-02T08:26:08Z</time>
      </trkpt>
      <trkpt lat="42.50313" lon="8.85686">
        <ele>449.6</ele>
        <time>2015-07-02T08:26:17Z</time>
      </trkpt>
      <trkpt lat="42.50311" lon="8.85693">
        <ele>448.6</ele>
        <time>2015-07-02T08:26:24Z</time>
      </trkpt>
      <trkpt lat="42.50312" lon="8.85698">
        <ele>447.6</ele>
        <time>2015-07-02T08:26:29Z</time>
      </trkpt>
      <trkpt lat="42.50312" lon="8.85704">
        <ele>446.8</ele>
        <time>2015-07-02T08:26:34Z</time>
      </trkpt>
      <trkpt lat="42.50312" lon="8.85705">
        <ele>446.2</ele>
        <time>2015-07-02T08:26:36Z</time>
      </trkpt>
      <trkpt lat="42.50315" lon="8.85713">
        <ele>445.4</ele>
        <time>2015-07-02T08:26:44Z</time>
      </trkpt>
      <trkpt lat="42.50316" lon="8.85721">
        <ele>444.4</ele>
        <time>2015-07-02T08:26:51Z</time>
      </trkpt>
      <trkpt lat="42.50318" lon="8.85726">
        <ele>443.2</ele>
        <time>2015-07-02T08:26:58Z</time>
      </trkpt>
      <trkpt lat="42.5032" lon="8.8573">
        <ele>442.4</ele>
        <time>2015-07-02T08:27:04Z</time>
      </trkpt>
      <trkpt lat="42.50322" lon="8.85732">
        <ele>441</ele>
        <time>2015-07-02T08:27:13Z</time>
      </trkpt>
      <trkpt lat="42.50325" lon="8.85737">
        <ele>440</ele>
        <time>2015-07-02T08:27:19Z</time>
      </trkpt>
      <trkpt lat="42.50325" lon="8.85746">
        <ele>439.2</ele>
        <time>2015-07-02T08:27:25Z</time>
      </trkpt>
      <trkpt lat="42.50328" lon="8.85754">
        <ele>437.8</ele>
        <time>2015-07-02T08:27:32Z</time>
      </trkpt>
      <trkpt lat="42.5033" lon="8.85758">
        <ele>437</ele>
        <time>2015-07-02T08:27:38Z</time>
      </trkpt>
      <trkpt lat="42.50332" lon="8.85763">
        <ele>436.2</ele>
        <time>2015-07-02T08:27:43Z</time>
      </trkpt>
      <trkpt lat="42.50335" lon="8.85765">
        <ele>434.4</ele>
        <time>2015-07-02T08:27:51Z</time>
      </trkpt>
      <trkpt lat="42.50336" lon="8.8576">
        <ele>433.8</ele>
        <time>2015-07-02T08:27:57Z</time>
      </trkpt>
      <trkpt lat="42.50339" lon="8.85761">
        <ele>433</ele>
        <time>2015-07-02T08:28:02Z</time>
      </trkpt>
      <trkpt lat="42.5034" lon="8.85765">
        <ele>431.6</ele>
        <time>2015-07-02T08:28:09Z</time>
      </trkpt>
      <trkpt lat="42.50343" lon="8.85768">
        <ele>430.8</ele>
        <time>2015-07-02T08:28:15Z</time>
      </trkpt>
      <trkpt lat="42.50345" lon="8.85774">
        <ele>429.2</ele>
        <time>2015-07-02T08:28:23Z</time>
      </trkpt>
      <trkpt lat="42.50346" lon="8.85782">
        <ele>428.8</ele>
        <time>2015-07-02T08:28:29Z</time>
      </trkpt>
      <trkpt lat="42.50347" lon="8.85789">
        <ele>427.6</ele>
        <time>2015-07-02T08:28:35Z</time>
      </trkpt>
      <trkpt lat="42.50348" lon="8.85793">
        <ele>427</ele>
        <time>2015-07-02T08:28:39Z</time>
      </trkpt>
      <trkpt lat="42.50352" lon="8.85787">
        <ele>425.8</ele>
        <time>2015-07-02T08:28:58Z</time>
      </trkpt>
      <trkpt lat="42.50356" lon="8.85785">
        <ele>425.6</ele>
        <time>2015-07-02T08:29:04Z</time>
      </trkpt>
      <trkpt lat="42.50359" lon="8.85789">
        <ele>424.8</ele>
        <time>2015-07-02T08:29:09Z</time>
      </trkpt>
      <trkpt lat="42.50359" lon="8.85793">
        <ele>424</ele>
        <time>2015-07-02T08:29:14Z</time>
      </trkpt>
      <trkpt lat="42.50359" lon="8.85801">
        <ele>422.2</ele>
        <time>2015-07-02T08:29:21Z</time>
      </trkpt>
      <trkpt lat="42.50359" lon="8.85806">
        <ele>422</ele>
        <time>2015-07-02T08:29:25Z</time>
      </trkpt>
      <trkpt lat="42.50359" lon="8.85807">
        <ele>421.6</ele>
        <time>2015-07-02T08:29:26Z</time>
      </trkpt>
      <trkpt lat="42.50364" lon="8.85804">
        <ele>420.2</ele>
        <time>2015-07-02T08:29:33Z</time>
      </trkpt>
      <trkpt lat="42.50364" lon="8.85803">
        <ele>420.2</ele>
        <time>2015-07-02T08:29:34Z</time>
      </trkpt>
      <trkpt lat="42.50367" lon="8.858">
        <ele>419.4</ele>
        <time>2015-07-02T08:29:39Z</time>
      </trkpt>
      <trkpt lat="42.50368" lon="8.85799">
        <ele>419</ele>
        <time>2015-07-02T08:29:41Z</time>
      </trkpt>
      <trkpt lat="42.5037" lon="8.85799">
        <ele>419</ele>
        <time>2015-07-02T08:29:43Z</time>
      </trkpt>
      <trkpt lat="42.50372" lon="8.85799">
        <ele>418.6</ele>
        <time>2015-07-02T08:29:45Z</time>
      </trkpt>
      <trkpt lat="42.50372" lon="8.85801">
        <ele>418.2</ele>
        <time>2015-07-02T08:29:47Z</time>
      </trkpt>
      <trkpt lat="42.50372" lon="8.85807">
        <ele>417.2</ele>
        <time>2015-07-02T08:29:53Z</time>
      </trkpt>
      <trkpt lat="42.50375" lon="8.85812">
        <ele>416</ele>
        <time>2015-07-02T08:30:00Z</time>
      </trkpt>
      <trkpt lat="42.50378" lon="8.85805">
        <ele>415</ele>
        <time>2015-07-02T08:30:07Z</time>
      </trkpt>
      <trkpt lat="42.50382" lon="8.85802">
        <ele>414.2</ele>
        <time>2015-07-02T08:30:13Z</time>
      </trkpt>
      <trkpt lat="42.50385" lon="8.85801">
        <ele>413.2</ele>
        <time>2015-07-02T08:30:19Z</time>
      </trkpt>
      <trkpt lat="42.50385" lon="8.85805">
        <ele>412</ele>
        <time>2015-07-02T08:30:25Z</time>
      </trkpt>
      <trkpt lat="42.50386" lon="8.8581">
        <ele>411.2</ele>
        <time>2015-07-02T08:30:31Z</time>
      </trkpt>
      <trkpt lat="42.5039" lon="8.85807">
        <ele>410</ele>
        <time>2015-07-02T08:30:37Z</time>
      </trkpt>
      <trkpt lat="42.50393" lon="8.858">
        <ele>408.6</ele>
        <time>2015-07-02T08:30:44Z</time>
      </trkpt>
      <trkpt lat="42.50396" lon="8.85793">
        <ele>407.6</ele>
        <time>2015-07-02T08:30:51Z</time>
      </trkpt>
      <trkpt lat="42.50401" lon="8.85789">
        <ele>406.8</ele>
        <time>2015-07-02T08:30:58Z</time>
      </trkpt>
      <trkpt lat="42.50405" lon="8.85788">
        <ele>405.6</ele>
        <time>2015-07-02T08:31:05Z</time>
      </trkpt>
      <trkpt lat="42.50408" lon="8.85785">
        <ele>404.8</ele>
        <time>2015-07-02T08:31:10Z</time>
      </trkpt>
      <trkpt lat="42.50413" lon="8.85778">
        <ele>403</ele>
        <time>2015-07-02T08:31:18Z</time>
      </trkpt>
      <trkpt lat="42.50414" lon="8.85771">
        <ele>402.2</ele>
        <time>2015-07-02T08:31:24Z</time>
      </trkpt>
      <trkpt lat="42.50416" lon="8.85765">
        <ele>401.2</ele>
        <time>2015-07-02T08:31:33Z</time>
      </trkpt>
      <trkpt lat="42.50419" lon="8.85768">
        <ele>400.6</ele>
        <time>2015-07-02T08:31:38Z</time>
      </trkpt>
      <trkpt lat="42.50424" lon="8.85768">
        <ele>399</ele>
        <time>2015-07-02T08:31:45Z</time>
      </trkpt>
      <trkpt lat="42.50428" lon="8.85764">
        <ele>398</ele>
        <time>2015-07-02T08:31:51Z</time>
      </trkpt>
      <trkpt lat="42.50433" lon="8.85757">
        <ele>397</ele>
        <time>2015-07-02T08:31:58Z</time>
      </trkpt>
      <trkpt lat="42.50438" lon="8.85751">
        <ele>396</ele>
        <time>2015-07-02T08:32:05Z</time>
      </trkpt>
      <trkpt lat="42.50441" lon="8.85751">
        <ele>395.2</ele>
        <time>2015-07-02T08:32:10Z</time>
      </trkpt>
      <trkpt lat="42.50446" lon="8.85749">
        <ele>394.6</ele>
        <time>2015-07-02T08:32:14Z</time>
      </trkpt>
      <trkpt lat="42.50458" lon="8.85743">
        <ele>392.8</ele>
        <time>2015-07-02T08:32:24Z</time>
      </trkpt>
      <trkpt lat="42.50467" lon="8.85737">
        <ele>391.6</ele>
        <time>2015-07-02T08:32:33Z</time>
      </trkpt>
      <trkpt lat="42.50473" lon="8.85734">
        <ele>390.8</ele>
        <time>2015-07-02T08:32:40Z</time>
      </trkpt>
      <trkpt lat="42.5048" lon="8.8573">
        <ele>389.8</ele>
        <time>2015-07-02T08:32:48Z</time>
      </trkpt>
      <trkpt lat="42.50487" lon="8.85724">
        <ele>388.6</ele>
        <time>2015-07-02T08:32:57Z</time>
      </trkpt>
      <trkpt lat="42.50492" lon="8.8572">
        <ele>387.6</ele>
        <time>2015-07-02T08:33:06Z</time>
      </trkpt>
      <trkpt lat="42.50498" lon="8.85713">
        <ele>386.6</ele>
        <time>2015-07-02T08:33:14Z</time>
      </trkpt>
      <trkpt lat="42.50507" lon="8.85704">
        <ele>385.6</ele>
        <time>2015-07-02T08:33:25Z</time>
      </trkpt>
      <trkpt lat="42.50512" lon="8.85697">
        <ele>384.6</ele>
        <time>2015-07-02T08:33:32Z</time>
      </trkpt>
      <trkpt lat="42.50516" lon="8.85693">
        <ele>383.6</ele>
        <time>2015-07-02T08:33:39Z</time>
      </trkpt>
      <trkpt lat="42.50521" lon="8.85688">
        <ele>382.6</ele>
        <time>2015-07-02T08:33:47Z</time>
      </trkpt>
      <trkpt lat="42.50523" lon="8.85681">
        <ele>381.8</ele>
        <time>2015-07-02T08:33:55Z</time>
      </trkpt>
      <trkpt lat="42.50525" lon="8.85679">
        <ele>381.6</ele>
        <time>2015-07-02T08:33:57Z</time>
      </trkpt>
      <trkpt lat="42.50529" lon="8.85673">
        <ele>380.8</ele>
        <time>2015-07-02T08:34:03Z</time>
      </trkpt>
      <trkpt lat="42.50532" lon="8.85669">
        <ele>379.4</ele>
        <time>2015-07-02T08:34:18Z</time>
      </trkpt>
      <trkpt lat="42.50535" lon="8.85663">
        <ele>378.4</ele>
        <time>2015-07-02T08:34:48Z</time>
      </trkpt>
      <trkpt lat="42.50539" lon="8.85662">
        <ele>378.2</ele>
        <time>2015-07-02T08:34:54Z</time>
      </trkpt>
      <trkpt lat="42.50541" lon="8.85663">
        <ele>377.4</ele>
        <time>2015-07-02T08:34:59Z</time>
      </trkpt>
      <trkpt lat="42.50543" lon="8.85661">
        <ele>376</ele>
        <time>2015-07-02T08:35:04Z</time>
      </trkpt>
      <trkpt lat="42.50545" lon="8.85658">
        <ele>375</ele>
        <time>2015-07-02T08:35:08Z</time>
      </trkpt>
      <trkpt lat="42.50548" lon="8.85654">
        <ele>374.4</ele>
        <time>2015-07-02T08:35:11Z</time>
      </trkpt>
      <trkpt lat="42.50549" lon="8.85654">
        <ele>374.2</ele>
        <time>2015-07-02T08:35:12Z</time>
      </trkpt>
      <trkpt lat="42.50554" lon="8.85648">
        <ele>373</ele>
        <time>2015-07-02T08:35:17Z</time>
      </trkpt>
      <trkpt lat="42.50557" lon="8.85646">
        <ele>372.2</ele>
        <time>2015-07-02T08:35:21Z</time>
      </trkpt>
      <trkpt lat="42.50559" lon="8.85644">
        <ele>370.8</ele>
        <time>2015-07-02T08:35:26Z</time>
      </trkpt>
      <trkpt lat="42.5056" lon="8.85639">
        <ele>369.6</ele>
        <time>2015-07-02T08:35:31Z</time>
      </trkpt>
      <trkpt lat="42.5056" lon="8.85635">
        <ele>368.4</ele>
        <time>2015-07-02T08:35:35Z</time>
      </trkpt>
      <trkpt lat="42.5056" lon="8.85634">
        <ele>368.2</ele>
        <time>2015-07-02T08:35:36Z</time>
      </trkpt>
      <trkpt lat="42.50561" lon="8.85634">
        <ele>366.6</ele>
        <time>2015-07-02T08:35:45Z</time>
      </trkpt>
      <trkpt lat="42.50563" lon="8.85632">
        <ele>366.2</ele>
        <time>2015-07-02T08:35:50Z</time>
      </trkpt>
      <trkpt lat="42.50562" lon="8.85637">
        <ele>365.6</ele>
        <time>2015-07-02T08:35:54Z</time>
      </trkpt>
      <trkpt lat="42.50562" lon="8.85637">
        <ele>365.2</ele>
        <time>2015-07-02T08:35:55Z</time>
      </trkpt>
      <trkpt lat="42.50568" lon="8.85634">
        <ele>364</ele>
        <time>2015-07-02T08:36:00Z</time>
      </trkpt>
      <trkpt lat="42.50569" lon="8.85632">
        <ele>363.6</ele>
        <time>2015-07-02T08:36:02Z</time>
      </trkpt>
      <trkpt lat="42.50572" lon="8.85627">
        <ele>362.8</ele>
        <time>2015-07-02T08:36:07Z</time>
      </trkpt>
      <trkpt lat="42.50573" lon="8.85623">
        <ele>361.6</ele>
        <time>2015-07-02T08:36:13Z</time>
      </trkpt>
      <trkpt lat="42.50578" lon="8.85615">
        <ele>360</ele>
        <time>2015-07-02T08:36:31Z</time>
      </trkpt>
      <trkpt lat="42.5058" lon="8.85611">
        <ele>359.8</ele>
        <time>2015-07-02T08:36:36Z</time>
      </trkpt>
      <trkpt lat="42.5058" lon="8.85605">
        <ele>358.6</ele>
        <time>2015-07-02T08:36:42Z</time>
      </trkpt>
      <trkpt lat="42.50584" lon="8.85593">
        <ele>357.6</ele>
        <time>2015-07-02T08:36:48Z</time>
      </trkpt>
      <trkpt lat="42.50586" lon="8.85587">
        <ele>356.8</ele>
        <time>2015-07-02T08:36:52Z</time>
      </trkpt>
      <trkpt lat="42.50589" lon="8.85581">
        <ele>355.6</ele>
        <time>2015-07-02T08:36:57Z</time>
      </trkpt>
      <trkpt lat="42.50594" lon="8.85577">
        <ele>354.6</ele>
        <time>2015-07-02T08:37:56Z</time>
      </trkpt>
      <trkpt lat="42.50594" lon="8.85579">
        <ele>354.4</ele>
        <time>2015-07-02T08:38:15Z</time>
      </trkpt>
      <trkpt lat="42.50594" lon="8.85576">
        <ele>353.8</ele>
        <time>2015-07-02T08:38:26Z</time>
      </trkpt>
      <trkpt lat="42.50594" lon="8.85575">
        <ele>353</ele>
        <time>2015-07-02T08:38:32Z</time>
      </trkpt>
    </trkseg>
  </trk>
</gpx>